[[{"header":{"parameterUnit":"m.s-1","parameterCategory":1,"la1":31.0,"la2":29.5877,"lo1":-88.7671,"lo2":-86.6584,"dx":0.0162,"dy":0.0185,"nx":115,"ny":88,"refTime":"2022-12-01T06:00:00:Z","depth":0,"parameterNumber":2,"parameterNumberName":"U-component_of_WINDS"},"data":[0.0,0.0,0.0,0.0,0.0,0.0,0.0,0.0,0.0,0.0,0.0,0.0,0.0,0.0,0.0,0.0,0.0,0.0,0.0,0.0,0.0,0.0,0.0,0.0,0.0,0.0,0.0,0.0,0.0,0.0,0.0,0.0,0.0,0.0,0.0,0.0,0.0,0.0,0.0,0.0,0.0,0.0,0.0,0.0,0.0,0.0,0.0,0.0,0.0,0.0,0.0,0.0,0.0,0.0,0.0,0.0,0.0,0.0,0.0,0.0,0.0,0.0,0.0,0.0,0.0,0.0,0.0,0.0,0.0,0.0,0.0,0.0,0.0,0.0,0.0,0.0,0.0,0.0,0.0,0.0,0.0,0.0,0.0,0.0,0.0,0.0,0.0,0.0,0.0,0.0,0.0,0.0,0.0,0.0,0.0,0.0,0.0,0.0,0.0,0.0,0.0,0.0,0.0,0.0,0.0,0.0,0.0,0.0,0.0,0.0,0.0,0.0,0.0,0.0,0.0,0.0,0.0,0.0,0.0,0.0,0.0,0.0,0.0,0.0,0.0,0.0,0.0,0.0,0.0,0.0,0.0,0.0,0.0,0.0,0.0,0.0,0.0,0.0,0.0,0.0,0.0,0.0,0.0,0.0,0.0,0.0,0.0,0.0,0.0,0.0,0.0,0.0,0.0,0.0,0.0,0.0,0.0,0.0,0.0,0.0,0.0,0.0,0.0,0.0,0.0,0.0,0.0,0.0,0.0,0.0,0.0,0.0,0.0,0.0,0.0,0.0,0.0,0.0,0.0,0.0,0.0,0.0,0.0,0.0,0.0,0.0,0.0,0.0,0.0,0.0,0.0,0.0,0.0,0.0,0.0,0.0,0.0,0.0,0.0,0.0,0.0,0.0,0.0,0.0,0.0,0.0,0.0,0.0,0.0,0.0,0.0,0.0,0.0,0.0,0.0,0.0,0.0,0.0,0.0,0.0,0.0,0.0,0.0,0.0,0.0,0.0,0.0,0.0,0.0,0.0,0.0,0.0,0.0,0.0,0.0,0.0,0.0,0.0,0.0,0.0,0.0,0.0,0.0,0.0,0.0,0.0,0.0,0.0,0.0,0.0,0.0,0.0,0.0,0.0,0.0,0.0,0.0,0.0,0.0,0.0,0.0,0.0,0.0,0.0,0.0,0.0,0.0,0.0,0.0,0.0,0.0,0.0,0.0,0.0,0.0,0.0,0.0,0.0,0.0,0.0,0.0,0.0,0.0,0.0,0.0,0.0,0.0,0.0,0.0,0.0,0.0,0.0,0.0,0.0,0.0,0.0,0.0,0.0,0.0,0.0,0.0,0.0,0.0,0.0,0.0,0.0,0.0,0.0,0.0,0.0,0.0,0.0,0.0,0.0,0.0,0.0,0.0,0.0,0.0,0.0,0.0,0.0,0.0,0.0,0.0,0.0,0.0,0.0,0.0,0.0,0.0,0.0,0.0,0.0,0.0,0.0,0.0,0.0,0.0,0.0,0.0,0.0,0.0,0.0,0.0,0.0,0.0,0.0,0.0,0.0,0.0,0.0,0.0,0.0,0.0,0.0,0.0,0.0,0.0,0.0,0.0,0.0,0.0,0.0,0.0,0.0,0.0,0.0,0.0,0.0,0.0,0.0,0.0,0.0,0.0,0.0,0.0,0.0,0.0,0.0,0.0,0.0,0.0,0.0,0.0,0.0,0.0,0.0,0.0,0.0,0.0,0.0,0.0,0.0,0.0,0.0,0.0,0.0,0.0,0.0,0.0,0.0,0.0,0.0,0.0,0.0,0.0,0.0,0.0,0.0,0.0,0.0,0.0,0.0,0.0,0.0,0.0,0.0,0.0,0.0,0.0,0.0,0.0,0.0,0.0,0.0,0.0,0.0,0.0,0.0,0.0,0.0,0.0,0.0,0.0,0.0,0.0,0.0,0.0,0.0,0.0,0.0,0.0,0.0,0.0,0.0,0.0,0.0,0.0,0.0,0.0,0.0,0.0,0.0,0.0,0.0,0.0,0.0,0.0,0.0,0.0,0.0,0.0,0.0,0.0,0.0,0.0,0.0,0.0,0.0,0.0,0.0,0.0,0.0,0.0,0.0,0.0,0.0,0.0,0.0,0.0,0.0,0.0,0.0,0.0,0.0,0.0,0.0,0.0,0.0,0.0,0.0,0.0,0.0,0.0,0.0,0.0,0.0,0.0,0.0,0.0,0.0,0.0,0.0,0.0,0.0,0.0,0.0,0.0,0.0,0.0,0.0,0.0,0.0,0.0,0.0,0.0,0.0,0.0,0.0,0.0,0.0,0.0,0.0,0.0,0.0,0.0,0.0,0.0,0.0,0.0,0.0,0.0,0.0,0.0,0.0,0.0,0.0,0.0,0.0,0.0,0.0,0.0,0.0,0.0,0.0,0.0,0.0,0.0,0.0,0.0,0.0,0.0,0.0,0.0,0.0,0.0,0.0,0.0,0.0,0.0,0.0,0.0,0.0,0.0,0.0,0.0,0.0,0.0,0.0,0.0,0.0,0.0,0.0,0.0,0.0,0.0,0.0,0.0,0.0,0.0,0.0,0.0,0.0,0.0,0.0,0.0,0.0,0.0,0.0,0.0,0.0,0.0,0.0,0.0,0.0,0.0,0.0,0.0,0.0,0.0,0.0,0.0,0.0,0.0,0.0,0.0,0.0,0.0,0.0,0.0,0.0,0.0,0.0,0.0,0.0,0.0,0.0,0.0,0.0,0.0,0.0,0.0,0.0,0.0,0.0,0.0,0.0,0.0,0.0,0.0,0.0,0.0,0.0,0.0,0.0,0.0,0.0,0.0,0.0,0.0,0.0,0.0,0.0,0.0,0.0,0.0,0.0,0.0,0.0,0.0,0.0,0.0,0.0,0.0,0.0,0.0,0.0,0.0,0.0,0.0,0.0,0.0,0.0,0.0,0.0,0.0,0.0,0.0,0.0,0.0,0.0,0.0,0.0,0.0,0.0,0.0,0.0,0.0,0.0,0.0,0.0,0.0,0.0,0.0,0.0,0.0,0.0,0.0,0.0,0.0,0.0,0.0,0.0,0.0,0.0,0.0,0.0,0.0,0.0,0.0,0.0,0.0,0.0,0.0,0.0,0.0,0.0,0.0,0.0,0.0,0.0,0.0,0.0,0.0,0.0,0.0,0.0,0.0,0.0,0.0,0.0,0.0,0.0,0.0,0.0,0.0,0.0,0.0,0.0,0.0,0.0,0.0,0.0,0.0,0.0,0.0,0.0,0.0,0.0,0.0,0.0,0.0,0.0,0.0,0.0,0.0,0.0,0.0,0.0,0.0,0.0,0.0,0.0,0.0,0.0,0.0,0.0,0.0,0.0,0.0,0.0,0.0,0.0,0.0,0.0,0.0,0.0,0.0,0.0,0.0,0.0,0.0,0.0,0.0,0.0,0.0,0.0,0.0,0.0,0.0,0.0,0.0,0.0,0.0,0.0,0.0,0.0,0.0,0.0,0.0,0.0,0.0,0.0,0.0,0.0,0.0,0.0,0.0,0.0,0.0,0.0,0.0,0.0,0.0,0.0,0.0,0.0,0.0,0.0,0.0,0.0,0.0,0.0,0.0,0.0,0.0,0.0,0.0,0.0,0.0,0.0,0.0,0.0,0.0,0.0,0.0,0.0,0.0,0.0,0.0,0.0,0.0,0.0,0.0,0.0,0.0,0.0,0.0,0.0,0.0,0.0,0.0,0.0,0.0,0.0,0.0,0.0,0.0,0.0,0.0,0.0,0.0,0.0,0.0,0.0,0.0,0.0,0.0,0.0,0.0,0.0,0.0,0.0,0.0,0.0,0.0,0.0,0.0,0.0,0.0,0.0,0.0,0.0,0.0,0.0,0.0,0.0,0.0,0.0,0.0,0.0,0.0,0.0,0.0,0.0,0.0,0.0,0.0,0.0,0.0,0.0,0.0,0.0,0.0,0.0,0.0,0.0,0.0,0.0,0.0,0.0,0.0,0.0,0.0,0.0,0.0,0.0,0.0,0.0,0.0,0.0,0.0,0.0,0.0,0.0,0.0,0.0,0.0,0.0,0.0,0.0,0.0,0.0,0.0,0.0,0.0,0.0,0.0,0.0,0.0,0.0,0.0,0.0,0.0,0.0,0.0,0.0,0.0,0.0,0.0,0.0,0.0,0.0,0.0,0.0,0.0,0.0,0.0,0.0,0.0,0.0,0.0,0.0,0.0,0.0,0.0,0.0,0.0,0.0,0.0,0.0,1.4106,0.0,0.0,0.0,1.2565,0.0,0.0,0.0,0.0,0.0,0.0,0.0,0.0,0.0,0.0,0.0,0.0,0.0,0.0,0.0,0.0,0.0,0.0,0.0,0.0,0.0,0.0,0.0,0.0,0.0,0.0,0.0,0.0,0.0,0.0,0.0,0.0,0.0,0.0,0.0,0.0,0.0,0.0,0.0,0.0,0.0,0.0,0.0,0.0,0.0,0.0,0.0,0.0,0.0,0.0,0.0,0.0,0.0,0.0,0.0,0.0,0.0,0.0,0.0,0.0,0.0,0.0,0.0,0.0,0.0,0.0,0.0,0.0,0.0,0.0,0.0,0.0,0.0,0.0,0.0,0.0,0.0,0.0,0.0,0.0,0.0,0.0,0.0,0.0,0.0,0.0,0.0,0.0,0.0,0.0,0.0,0.0,0.0,0.0,0.0,0.0,0.0,0.0,0.0,0.0,0.0,0.0,0.0,0.0,0.0,0.0,0.0,0.0,0.0,0.0,1.3955,1.2593,1.3957,1.3884,1.2082,0.0,0.0,0.0,0.0,0.0,0.0,0.0,0.0,0.0,0.0,0.0,0.0,0.0,0.0,0.0,0.0,0.0,0.0,0.0,0.0,0.0,0.0,0.0,0.0,0.0,0.0,0.0,0.0,0.0,0.0,0.0,0.0,0.0,0.0,0.0,0.0,0.0,0.0,0.0,0.0,0.0,0.0,0.0,0.0,0.0,0.0,0.0,0.0,0.0,0.0,0.0,0.0,0.0,0.0,0.0,0.0,0.0,0.0,0.0,0.0,0.0,0.0,0.0,0.0,0.0,0.0,0.0,0.0,0.0,0.0,0.0,0.0,0.0,0.0,0.0,0.0,0.0,0.0,0.0,0.0,0.0,0.0,0.0,0.0,0.0,0.0,0.0,0.0,0.0,0.0,0.0,0.0,0.0,0.0,0.0,0.0,0.0,0.0,0.0,0.0,0.0,0.0,0.0,0.0,0.0,0.0,0.0,0.0,0.0,0.0,0.0,0.0,1.4072,1.394,1.2215,0.0,0.0,0.0,0.0,0.0,0.0,0.0,0.0,0.0,0.0,0.0,0.0,0.0,0.0,0.0,0.0,0.0,0.0,0.0,0.0,0.0,0.0,0.0,0.0,0.0,0.0,0.0,0.0,0.0,0.0,0.0,0.0,0.0,0.0,0.0,0.0,0.0,0.0,0.0,0.0,0.0,0.0,0.0,0.0,0.0,0.0,0.0,0.0,0.0,0.0,0.0,0.0,0.0,0.0,0.0,0.0,0.0,0.0,0.0,0.0,0.0,0.0,0.0,0.0,0.0,0.0,0.0,0.0,0.0,0.0,0.0,0.0,0.0,0.0,0.0,0.0,0.0,0.0,0.0,0.0,0.0,0.0,0.0,0.0,0.0,0.0,0.0,0.0,0.0,0.0,0.0,0.0,0.0,0.0,0.0,0.0,0.0,0.0,0.0,0.0,0.0,0.0,0.0,0.0,0.0,0.0,0.0,0.0,0.0,0.0,1.2748,1.3654,1.3482,0.0,1.3048,0.0,0.0,0.0,0.0,0.0,0.0,0.0,0.0,0.0,0.0,0.0,0.0,0.0,0.0,0.0,0.0,0.0,0.0,0.0,0.0,0.0,0.0,0.0,0.0,0.0,0.0,0.0,0.0,0.0,0.0,0.0,0.0,0.0,0.0,0.0,0.0,0.0,0.0,0.0,0.0,0.0,0.0,0.0,0.0,0.0,0.0,0.0,0.0,0.0,0.0,0.0,0.0,0.0,0.0,0.0,0.0,0.0,0.0,0.0,0.0,0.0,0.0,0.0,0.0,0.0,0.0,0.0,0.0,0.0,0.0,0.0,0.0,0.0,0.0,0.0,0.0,0.0,0.0,0.0,0.0,0.0,0.0,0.0,0.0,0.0,0.0,0.0,0.0,0.0,0.0,0.0,0.0,0.0,0.0,0.0,0.0,0.0,0.0,0.0,0.0,0.0,0.0,0.0,0.0,0.0,0.0,0.0,0.0,0.0,0.0,1.2373,1.3429,1.2823,1.2324,0.0,0.0,0.0,0.0,0.0,0.0,0.0,0.0,0.0,0.0,0.0,0.0,0.0,0.0,0.0,0.0,0.0,0.0,0.0,0.0,0.0,0.0,0.0,0.0,0.0,0.0,0.0,0.0,0.0,0.0,0.0,0.0,0.0,0.0,0.0,0.0,0.0,0.0,0.0,0.0,0.0,0.0,0.0,0.0,0.0,0.0,0.0,0.0,0.0,0.0,0.0,0.0,0.0,0.0,0.0,0.0,0.0,0.0,0.0,0.0,0.0,0.0,0.0,0.0,0.0,0.0,0.0,0.0,0.0,0.0,0.0,0.0,0.0,0.0,0.0,0.0,0.0,0.0,0.0,0.0,0.0,0.0,0.0,0.0,0.0,0.0,0.0,0.0,0.0,0.0,0.0,0.0,0.0,0.0,0.0,0.0,0.0,0.0,0.0,0.0,0.0,0.0,0.0,0.0,0.0,0.0,0.0,0.0,0.0,0.0,1.2038,1.2248,1.3148,1.2367,1.1606,1.1007,0.0,0.0,0.0,0.0,0.0,0.0,0.0,0.0,0.0,0.0,0.0,0.0,0.0,0.0,0.0,0.0,0.0,0.0,0.0,0.0,0.0,0.0,0.0,0.0,0.0,0.0,0.0,0.0,0.0,0.0,0.0,0.0,0.0,0.0,0.0,0.0,0.0,0.0,0.0,0.0,0.0,0.0,0.0,0.0,0.0,0.0,0.0,0.0,0.0,0.0,0.0,0.0,0.0,0.0,0.0,0.0,0.0,0.0,0.0,0.0,0.0,0.0,0.0,0.0,0.0,0.0,0.0,0.0,0.0,0.0,0.0,0.0,0.0,0.0,0.0,0.0,0.0,0.0,0.0,0.0,0.0,0.0,0.0,0.0,0.0,0.0,0.0,0.0,0.0,0.0,0.0,0.0,0.0,0.0,0.0,0.0,0.0,0.0,0.0,0.0,0.0,0.0,0.0,0.0,0.0,0.0,0.0,0.0,1.4045,1.2742,1.2427,1.3328,1.2225,1.1328,0.0,0.0,0.0,0.0,0.0,0.0,0.0,0.0,0.0,0.0,0.0,0.0,0.0,0.0,0.0,0.0,0.0,0.0,0.0,0.0,0.0,0.0,0.0,0.0,0.0,0.0,0.0,0.0,0.0,0.0,0.0,0.0,0.0,0.0,0.0,0.0,0.0,0.0,0.0,0.0,0.0,0.0,0.0,0.0,0.0,0.0,0.0,0.0,0.0,0.0,0.0,0.0,0.0,0.0,0.0,0.0,0.0,0.0,0.0,0.0,0.0,0.0,0.0,0.0,0.0,0.0,0.0,0.0,0.0,0.0,0.0,0.0,0.0,0.0,0.0,0.0,0.0,0.0,0.0,0.0,0.0,0.0,0.0,0.0,0.0,0.0,0.0,0.0,0.0,0.0,0.0,0.0,0.0,0.0,0.0,0.0,0.0,0.0,0.0,0.0,0.0,0.0,0.0,0.0,0.0,0.0,0.0,0.0,0.0,1.105,1.1168,1.179,1.2968,1.1295,1.0536,0.0,0.0,0.0,0.0,0.0,0.0,0.0,0.0,0.0,0.0,0.0,0.0,0.0,0.0,0.0,0.0,0.0,0.0,0.0,0.0,0.0,0.0,0.0,0.0,0.0,0.0,0.0,0.0,0.0,0.0,0.0,0.0,0.0,0.0,0.0,0.0,0.0,0.0,0.0,0.0,0.0,0.0,0.0,0.0,0.0,0.0,0.0,0.0,0.0,0.0,0.0,0.0,0.0,0.0,0.0,0.0,0.0,0.0,0.0,0.0,0.0,0.0,0.0,0.0,0.0,0.0,0.0,0.0,0.0,0.0,0.0,0.0,0.0,0.0,0.0,0.0,0.0,0.0,0.0,0.0,0.0,0.0,0.0,0.0,0.0,0.0,0.0,0.0,0.0,0.0,0.0,0.0,0.0,0.0,0.0,0.0,0.0,0.0,0.0,0.0,0.0,0.0,0.0,0.0,0.0,0.0,0.0,0.0,0.0,0.9937,1.1018,1.1825,1.2222,1.0664,0.9749,0.0,0.0,0.0,0.0,0.0,0.0,0.0,0.0,0.0,0.0,0.0,0.0,0.0,0.0,0.0,0.0,0.0,0.0,0.0,0.0,0.0,0.0,0.0,0.0,0.0,0.0,0.0,0.0,0.0,0.0,0.0,0.0,0.0,0.0,0.0,0.0,0.0,0.0,0.0,0.0,0.0,0.0,0.0,0.0,0.0,0.0,0.0,0.0,0.0,0.0,0.0,0.0,0.0,0.0,0.0,0.0,0.0,0.0,0.0,0.0,0.0,0.0,0.0,0.0,0.0,0.0,0.0,0.0,0.0,0.0,0.0,0.0,0.0,0.0,0.0,0.0,0.0,0.0,0.0,0.0,0.0,0.0,0.0,0.0,0.0,0.0,0.0,0.0,0.0,0.0,0.0,0.0,0.0,0.0,0.0,0.0,0.0,0.0,0.0,0.0,0.0,0.0,0.0,0.0,0.0,0.0,0.0,0.0,0.9074,1.1161,1.2535,1.2504,1.1161,1.0407,0.908,0.0,0.0,0.0,0.0,0.0,0.0,0.0,0.0,0.0,0.0,0.0,0.0,0.0,0.0,0.0,0.0,0.0,0.0,0.0,0.0,0.0,0.0,0.0,0.0,0.0,0.0,0.0,0.0,0.0,0.0,0.0,0.0,0.0,0.0,0.0,0.0,0.0,0.0,0.0,0.0,0.0,0.0,0.0,0.0,0.0,0.0,0.0,0.0,0.0,0.0,0.0,0.0,0.0,0.0,0.0,0.0,0.0,0.0,0.0,0.0,0.0,0.0,0.0,0.0,0.0,0.0,0.0,0.0,0.0,0.0,0.0,0.0,0.0,0.0,0.0,0.0,0.0,0.0,0.0,0.0,0.0,0.0,0.0,0.0,0.0,0.0,0.0,0.0,0.0,0.0,0.0,0.0,0.0,0.0,0.0,0.0,0.0,0.0,0.0,0.0,0.0,0.0,0.0,0.0,0.0,0.0,0.0,0.0,0.0,0.9065,1.0356,1.1181,1.1358,0.9353,0.8656,0.0,0.0,0.0,0.0,0.0,0.0,0.0,0.0,0.0,0.0,0.0,0.0,0.0,0.0,0.0,0.0,0.0,0.0,0.0,0.0,0.0,0.0,0.0,0.0,0.0,0.0,0.0,0.0,0.0,0.0,0.0,0.0,0.0,0.0,0.0,0.0,0.0,0.0,0.0,0.0,0.0,0.0,0.0,0.0,0.0,0.0,0.0,0.0,0.0,0.0,0.0,0.0,0.0,0.0,0.0,0.0,0.0,0.0,0.0,0.0,0.0,0.0,0.0,0.0,0.0,0.0,0.0,0.0,0.0,0.0,0.0,0.0,0.0,0.0,0.0,0.0,0.0,0.0,0.0,0.0,0.0,0.0,0.0,0.0,0.0,0.0,0.0,0.0,0.0,0.0,0.0,0.0,0.0,0.0,0.0,0.0,0.0,0.0,0.0,0.0,0.0,0.0,0.0,0.0,0.0,0.0,0.0,0.0,0.0,0.9639,1.0737,1.1359,1.1442,0.9515,0.8869,0.9672,0.0,0.0,0.0,0.0,0.0,0.0,0.0,0.0,0.0,0.0,0.0,0.0,0.0,0.0,0.0,0.0,0.0,0.0,0.0,0.0,0.0,0.0,0.0,0.0,0.0,0.0,0.0,0.0,0.0,0.0,0.0,0.0,0.0,0.0,0.0,0.0,0.0,0.0,0.0,0.0,0.0,0.0,0.0,0.0,0.0,0.0,0.0,0.0,0.0,0.0,0.0,0.0,0.0,0.0,0.0,0.0,0.0,0.0,0.0,0.0,0.0,0.0,0.0,0.0,0.0,0.0,0.0,0.0,0.0,0.0,0.0,0.0,0.0,0.0,0.0,0.0,0.0,0.0,0.0,0.0,0.0,0.0,0.0,0.0,0.0,0.0,0.0,0.0,0.0,0.0,0.0,0.0,0.0,0.0,0.0,0.0,0.0,0.0,0.0,0.0,0.0,0.0,0.0,0.0,0.0,0.0,0.0,0.0,1.2232,1.314,1.2865,1.1347,1.0616,0.9657,0.0,0.0,0.0,0.0,0.0,0.0,0.0,0.0,0.0,0.0,0.0,0.0,0.0,0.0,0.0,0.0,0.0,0.0,0.0,0.0,0.0,0.0,0.0,0.0,0.0,0.0,0.0,0.0,0.0,0.0,0.0,0.0,0.0,0.0,0.0,0.0,0.0,0.0,0.0,0.0,0.0,0.0,0.0,0.0,0.0,0.0,0.0,0.0,0.0,0.0,0.0,0.0,0.0,0.0,0.0,0.0,0.0,0.0,0.0,0.0,0.0,0.0,0.0,0.0,0.0,0.0,0.0,0.0,0.0,0.0,0.0,0.0,0.0,0.0,0.0,0.0,0.0,0.0,0.0,0.0,0.0,0.0,0.0,0.0,0.0,0.0,0.0,0.0,0.0,0.0,0.0,0.0,0.0,0.0,0.0,0.0,0.0,0.0,0.0,0.0,0.0,0.0,0.0,0.0,0.0,0.0,0.0,0.0,0.0,1.2785,1.3616,1.3563,1.2533,1.0754,0.9847,0.0,0.0,0.0,0.0,0.0,0.0,0.0,0.0,0.0,0.0,0.0,0.0,0.0,0.0,0.0,0.0,0.0,0.0,0.0,0.0,0.0,0.0,0.0,0.0,0.0,0.0,0.0,0.0,0.0,0.0,0.0,0.0,0.0,0.0,0.0,0.0,0.0,0.0,0.0,0.0,0.0,0.0,0.0,0.0,0.0,0.0,0.0,0.0,0.0,0.0,0.0,0.0,0.0,0.0,0.0,0.0,0.0,0.0,0.0,0.0,0.0,0.0,0.0,0.0,0.0,0.0,0.0,0.0,0.0,0.0,0.0,0.0,0.0,0.0,0.0,0.0,0.0,0.0,0.0,0.0,0.0,0.0,0.0,0.0,0.0,0.0,0.0,0.0,0.0,0.0,0.0,0.0,0.0,0.0,0.0,0.0,0.0,0.0,0.0,0.0,0.0,0.0,0.0,0.0,0.0,0.0,0.0,0.0,1.2765,1.3993,1.43,1.4255,1.378,1.1944,1.0797,0.0,0.0,0.0,0.0,0.0,0.0,0.0,0.0,0.0,0.0,0.0,0.0,0.0,0.0,0.0,0.0,0.0,0.0,0.0,0.0,0.0,0.0,0.0,0.0,0.0,0.0,0.0,0.0,0.0,0.0,0.0,0.0,0.0,0.0,0.0,0.0,0.0,0.0,0.0,0.0,0.0,0.0,0.0,0.0,0.0,0.0,0.0,0.0,0.0,0.0,0.0,0.0,0.0,0.0,0.0,0.0,0.0,0.0,0.0,0.0,0.0,0.0,0.0,0.0,0.0,0.0,0.0,0.0,0.0,0.0,0.0,0.0,0.0,0.0,0.0,0.0,0.0,0.0,0.0,0.0,0.0,0.0,0.0,0.0,0.0,0.0,0.0,0.0,0.0,0.0,0.0,0.0,0.0,0.0,0.0,0.0,0.0,0.0,0.0,0.0,0.0,0.0,0.0,0.0,0.0,0.0,0.0,0.0,1.3926,1.5273,1.5037,1.4839,1.4686,1.3478,1.209,0.0,0.0,0.0,0.0,0.0,0.0,0.0,0.0,0.0,0.0,0.0,0.0,0.0,0.0,0.0,0.0,0.0,0.0,0.0,0.0,0.0,0.0,0.0,0.0,0.0,0.0,0.0,0.0,0.0,0.0,0.0,0.0,0.0,0.0,0.0,0.0,0.0,0.0,0.0,0.0,0.0,0.0,0.0,0.0,0.0,0.0,0.0,0.0,0.0,0.0,0.0,0.0,0.0,0.0,0.0,0.0,0.0,0.0,0.0,0.0,0.0,0.0,0.0,0.0,0.0,0.0,0.0,0.0,0.0,0.0,0.0,0.0,0.0,0.0,0.0,0.0,0.0,0.0,0.0,0.0,0.0,0.0,0.0,0.0,0.0,0.0,0.0,0.0,0.0,0.0,0.0,0.0,0.0,0.0,0.0,0.0,0.0,0.0,0.0,0.0,0.0,0.0,0.0,0.0,0.0,0.0,0.0,0.0,1.4332,1.4929,1.5205,1.5011,1.4277,1.3262,1.2338,0.0,0.0,0.0,0.0,0.0,0.0,0.0,0.0,0.0,0.0,0.0,0.0,0.0,0.0,0.0,0.0,0.0,0.0,0.0,0.0,0.0,0.0,0.0,0.0,0.0,0.0,0.0,0.0,0.0,0.0,0.0,0.0,0.0,0.0,0.0,0.0,0.0,0.0,0.0,0.0,0.0,0.0,0.0,0.0,0.0,0.0,0.0,0.0,-0.2285,0.0,0.0,0.0,0.0,0.0,0.0,0.0,0.0,0.0,0.0,0.0,0.0,0.0,0.0,0.0,0.0,0.0,0.0,0.0,0.0,0.0,0.0,0.0,0.0,0.0,0.0,0.0,0.0,0.0,0.0,0.0,0.0,0.0,0.0,0.0,0.0,0.0,0.0,0.0,0.0,0.0,0.0,0.0,0.0,0.0,0.0,0.0,0.0,0.0,0.0,0.0,0.0,0.0,0.0,0.0,0.0,0.0,0.0,0.0,1.4551,1.5058,1.5324,1.5215,1.4717,1.4034,1.3077,0.0,0.0,0.0,0.0,0.0,0.0,0.0,0.0,0.0,0.0,0.0,0.0,0.0,0.0,0.0,0.0,0.0,0.0,0.0,0.0,0.0,0.0,0.0,0.0,0.0,0.0,0.0,0.0,0.0,0.0,0.0,0.0,0.0,0.0,0.0,0.0,0.0,0.0,0.0,0.0,0.0,0.0,0.0,0.0,0.0,0.0,0.0,0.0,0.0,0.0,0.0,0.0,0.0,0.0,0.0,0.0,0.0,0.0,0.0,0.0,0.0,0.0,0.0,0.0,0.0,0.0,0.0,0.0,0.0,0.0,0.0,0.0,0.0,0.0,0.0,0.0,0.0,0.0,0.0,0.0,0.0,0.0,0.0,0.0,0.0,0.0,0.0,0.0,0.0,0.0,0.0,0.0,0.0,0.0,0.0,0.0,0.0,0.0,0.0,0.0,0.0,0.0,0.0,0.0,0.0,0.0,0.0,1.3445,1.4663,1.5381,1.542,1.542,1.5381,1.4945,1.3767,1.1857,0.0,0.0,0.0,0.0,0.0,0.0,0.0,0.0,0.0,0.0,0.0,0.0,0.0,0.0,0.0,0.0,0.0,0.0,0.0,0.0,0.0,0.0,0.0,0.0,0.0,0.0,0.0,0.0,0.0,0.0,0.0,0.0,0.0,0.0,0.0,0.0,0.0,0.0,0.145,0.0076,0.0,0.0,0.0,0.0,0.0,0.0,0.0,0.0,-0.3963,0.0,0.0,0.0,0.0,0.0,0.0,0.0,0.0,0.0,0.0,0.0,0.0,0.0,0.0,0.0,0.0,0.0,0.0,0.0,0.0,0.0,0.0,0.0,0.0,0.0,0.0,0.0,0.0,0.0,0.0,0.0,0.0,0.0,0.0,0.0,0.0,0.0,0.0,0.0,0.0,0.0,0.0,0.0,0.0,0.0,0.0,0.0,0.0,0.0,0.0,0.0,0.0,0.0,0.0,0.0,0.0,1.3782,1.4185,1.4711,1.5371,1.542,1.542,1.5381,1.4681,1.3474,1.1798,0.0,0.0,0.0,0.0,0.0,0.0,0.0,0.0,0.0,0.0,0.0,0.0,0.0,0.0,0.0,0.0,0.0,0.0,0.0,0.0,0.0,0.0,0.0,0.0,0.0,0.0,0.0,0.0,0.0,0.0,0.0,0.0,0.0,0.0,0.0,0.0,0.0,0.0,0.0,-0.1766,-0.2387,0.0,0.0,0.0,0.0,0.0,0.0,0.0,0.0,-0.4767,0.0,0.0,0.0,0.0,0.0,0.0,0.0,0.0,0.0,0.0,0.0,0.0,0.0,0.0,0.0,0.0,0.0,0.0,0.0,0.0,0.0,0.0,0.0,0.0,0.0,0.0,0.0,0.0,0.0,0.0,0.0,0.0,0.0,0.0,0.0,0.0,0.0,0.0,0.0,0.0,0.0,0.0,0.0,0.0,0.0,0.0,0.0,0.0,0.0,0.0,0.0,0.0,0.0,0.0,0.0,1.2791,1.4196,1.5089,1.5391,1.542,1.5196,1.4776,1.4519,1.3283,0.0,0.0,0.0,0.0,0.0,0.0,0.0,0.0,0.0,0.0,0.0,0.0,0.0,0.0,0.0,0.0,0.0,0.0,0.0,0.0,0.0,0.0,0.0,0.0,0.0,0.0,0.0,0.0,0.0,0.0,0.0,0.0,0.0,0.0,0.0,0.0,0.0,0.0,0.0,0.0,-0.2954,-0.3889,-0.4878,0.0,0.0,0.0,0.0,0.0,0.0,-0.5224,-0.5068,0.0,0.0,0.0,0.0,0.0,0.0,0.0,0.0,0.0,0.0,0.0,0.0,0.0,0.0,0.0,0.0,0.0,0.0,0.0,0.0,0.0,0.0,0.0,0.0,0.0,0.0,0.0,0.0,0.0,0.0,0.0,0.0,0.0,0.0,0.0,0.0,0.0,0.0,0.0,0.0,0.0,0.0,0.0,0.0,0.0,0.0,0.0,0.0,0.0,0.0,0.0,0.0,0.0,0.0,0.0,1.1493,1.3896,1.5261,1.5342,1.5235,1.4844,1.4183,1.4034,1.2672,0.0,0.0,0.0,0.0,0.0,0.0,0.0,0.0,0.0,0.0,0.0,0.0,0.0,0.0,0.0,0.0,0.0,0.0,0.0,0.0,0.0,0.0,0.0,0.0,0.0,0.0,0.0,0.0,0.0,0.0,0.0,0.0,0.0,0.0,0.0,0.0,0.0,0.0,0.0,0.0,0.0,-0.5267,-0.6215,-0.6059,0.0,0.0,0.0,0.0,-0.6297,-0.6277,0.0,0.0,0.0,0.0,0.0,0.0,0.0,0.0,0.0,0.0,0.0,0.0,0.0,0.0,0.0,0.0,0.0,0.0,0.0,0.0,0.0,0.0,0.0,0.0,0.0,0.0,0.0,0.0,0.0,0.0,0.0,0.0,0.0,0.0,0.0,0.0,0.0,0.0,0.0,0.0,0.0,0.0,0.0,0.0,0.0,0.0,0.0,0.0,0.0,0.0,0.0,0.0,0.0,0.0,0.0,0.0,1.1435,1.3449,1.4753,1.5158,1.4647,1.4234,1.4025,1.2779,1.1085,0.0,0.0,0.0,0.0,0.0,0.0,0.0,0.0,0.0,0.0,0.0,0.0,0.0,0.0,0.0,0.0,0.0,0.0,0.0,0.0,0.0,0.0,0.0,0.0,0.0,0.0,0.0,0.0,0.0,0.0,0.0,0.0,0.0,0.0,0.0,0.0,0.0,0.0,0.0,0.0,0.0,-0.6224,-0.592,-0.6066,-0.6479,0.0,0.0,-0.7529,-0.863,-0.9418,0.0,0.0,0.0,0.0,0.0,0.0,0.0,0.0,0.0,0.0,0.0,0.0,0.0,0.0,0.0,0.0,0.0,0.0,0.0,0.0,0.0,0.0,0.0,0.0,0.0,0.0,0.0,0.0,0.0,0.0,0.0,0.0,0.0,0.0,0.0,0.0,0.0,0.0,0.0,0.0,0.0,0.0,0.0,0.0,0.0,0.0,0.0,0.0,0.0,0.0,0.0,0.0,0.0,0.0,0.0,1.1021,1.1351,1.364,1.4918,1.5069,1.444,1.3846,1.3334,1.2573,1.0837,0.0,0.0,0.0,0.0,0.0,0.0,0.0,0.0,0.0,0.0,0.0,0.0,0.0,0.0,0.0,0.0,0.0,0.0,0.0,0.0,0.0,0.0,0.0,0.0,0.0,0.0,0.0,0.0,0.0,0.0,0.0,0.0,0.0,0.0,0.0,0.0,0.0,0.0,0.0,0.0,0.0,0.0,-0.7903,-0.7715,0.0,0.0,0.0,-0.8299,-0.924,0.0,0.0,0.0,0.0,0.0,0.0,0.0,0.0,0.0,0.0,0.0,0.0,0.0,0.0,0.0,0.0,0.0,0.0,0.0,0.0,0.0,0.0,0.0,0.0,0.0,0.0,0.0,0.0,0.0,0.0,0.0,0.0,0.0,0.0,0.0,0.0,0.0,0.0,0.0,0.0,0.0,0.0,0.0,0.0,0.0,0.0,0.0,0.0,0.0,0.0,0.0,0.0,0.0,0.0,0.0,0.0,0.0,1.1258,1.3791,1.5059,1.4902,1.4291,1.3554,1.2734,1.2428,0.0,0.0,0.0,0.0,0.0,0.0,0.0,0.0,0.0,0.0,0.0,0.0,0.0,0.0,0.0,0.0,0.0,0.0,0.0,0.0,0.0,0.0,0.0,0.0,0.0,0.0,0.0,0.0012,0.0,0.0,0.0,0.0,0.0,0.0,0.0,0.0,0.0,0.0,0.0,0.0,0.0,0.0,-0.7686,-0.9687,-0.9448,-0.9712,0.0,0.0,-0.947,-1.0152,-1.0606,-1.027,0.0,0.0,0.0,0.0,0.0,0.0,0.0,0.0,0.0,0.0,0.0,0.0,0.0,0.0,0.0,0.0,0.0,0.0,0.0,0.0,0.0,0.0,0.0,0.0,0.0,0.0,0.0,0.0,0.0,0.0,0.0,0.0,0.0,0.0,0.0,0.0,0.0,0.0,0.0,0.0,0.0,0.0,0.0,0.0,0.0,0.0,0.0,0.0,0.0,0.0,0.0,0.0,0.0,0.0,1.0578,1.1263,1.3714,1.4902,1.4715,1.4052,1.3312,1.2543,1.1872,0.9971,0.0,0.0,0.0,0.0,0.0,0.0,0.0,0.0,0.0,0.0,0.0,0.0,0.0,0.0,0.0,0.0,0.0,0.0,0.0,0.0,0.0,0.0,0.0,0.0,0.0,0.0,0.0,0.0,0.0,0.0,0.0,0.0,0.0,0.0,0.0,0.0,0.0,0.0,0.0,0.0,0.0,-0.8179,-1.0414,-1.0844,-1.1331,0.0,-1.2005,-1.1687,-1.2201,-1.2877,-1.22,-0.8839,0.0,0.0,0.0,0.0,0.0,0.0,0.0,0.0,0.0,0.0,0.0,0.0,0.0,0.0,0.0,0.0,0.0,0.0,0.0,0.0,0.0,0.0,0.0,0.0,0.0,0.0,0.0,0.0,0.0,0.0,0.0,0.0,0.0,0.0,0.0,0.0,0.0,0.0,0.0,0.0,0.0,0.0,0.0,0.0,0.0,0.0,0.0,0.0,0.0,0.0,0.0,0.0,0.0,1.0446,1.0971,1.3513,1.4725,1.4556,1.3532,1.2818,1.2512,1.0765,0.8927,0.0,0.0,0.0,0.0,0.0,0.0,0.0,0.0,0.0,0.0,0.0,0.0,0.0,0.0,0.0,0.0,0.0,0.0,0.0,0.0,0.0,0.0,0.0,0.0,0.0,0.0,0.0,0.0,-0.1894,-0.2188,-0.1783,0.0,0.0,0.0,0.0,0.0,0.0,0.0,0.0,0.0,0.0,-0.9288,-1.0821,-1.1204,0.0,0.0,-1.2225,-1.1853,-1.2638,-1.2285,-1.1334,-0.9629,-0.8964,0.0,0.0,0.0,0.0,0.0,0.0,0.0,0.0,0.0,0.0,0.0,0.0,0.0,0.0,0.0,0.0,0.0,0.0,0.0,0.0,0.0,0.0,0.0,0.0,0.0,0.0,0.0,0.0,0.0,0.0,0.0,0.0,0.0,0.0,0.0,0.0,0.0,0.0,0.0,0.0,0.0,0.0,0.0,0.0,0.0,0.0,0.0,0.0,0.0,0.0,0.0,0.0,1.0327,1.0807,1.3332,1.4547,1.4348,1.329,1.2573,1.2235,1.0462,0.8769,0.0,0.0,0.0,0.0,0.0,0.0,0.0,0.0,0.0,0.0,0.0,0.0,0.0,0.0,0.0,0.0,0.0,0.0,0.0,0.0,0.0,0.0,0.0,0.0,0.0,0.0,0.0,0.0,-0.1784,-0.2113,-0.2076,0.0,0.0,0.0,0.0,0.0,0.0,0.0,0.0,0.0,0.0,-1.0278,-1.1747,-1.1965,-1.2168,-1.2807,-1.2139,-1.1588,-1.1807,-1.1673,-1.1176,-1.0294,0.0,0.0,0.0,0.0,0.0,0.0,0.0,0.0,0.0,0.0,0.0,0.0,0.0,0.0,0.0,0.0,0.0,0.0,0.0,0.0,0.0,0.0,0.0,0.0,0.0,0.0,0.0,0.6286,0.0,0.0,0.6821,0.0,0.0,0.0,0.0,0.0,0.0,0.0,0.0,0.0,0.0,0.0,0.0,0.0,0.0,0.0,0.0,0.0,0.0,0.0,0.0,0.0,0.0,1.0207,1.0828,1.3247,1.4327,1.401,1.3519,1.2781,1.1825,1.1236,0.9689,0.7042,0.0,0.0,0.0,0.0,0.0,0.0,0.0,0.0,0.0,0.0,0.0,0.0,0.0,0.0,0.0,0.0,0.0,0.0,0.0,0.0,0.0,0.0,0.0,0.0,0.0,0.0,-0.152,-0.1432,-0.1616,0.0,0.0,0.0,0.0,0.0,0.0,0.0,0.0,0.0,-0.9386,-1.007,-1.1057,-1.3367,-1.3308,-1.2821,-1.2328,-1.1896,-1.1162,-0.9872,-1.1396,-1.2341,0.0,0.0,0.0,0.0,0.0,0.0,0.0,0.0,0.0,0.0,0.0,0.0,0.0,0.0,0.0,0.0,0.0,0.0,0.0,0.0,0.0,0.0,0.0,0.0,0.0,0.0,0.0,0.777,0.744,0.0,0.0,0.0,0.0,0.0,0.0,0.0,0.0,0.0,0.0,0.0,1.2808,1.3531,0.0,0.0,0.0,0.0,0.0,0.0,0.0,0.0,0.0,0.0,0.0,0.0,1.0397,1.1425,1.3221,1.398,1.3519,1.272,1.1981,1.1274,0.9668,0.7658,0.5224,0.0,0.0,0.0,0.0,0.0,0.0,0.0,0.0,0.0,0.0,0.0,0.0,0.0,0.0,0.0,0.0,0.0,0.0,0.0,0.0,0.0,0.0,0.0,0.0,0.0,-0.2702,0.0,0.0,0.0,0.0,0.0,0.0,0.0,0.0,0.0,0.0,0.0,-0.8419,-0.9926,-1.1057,-1.2186,-1.3434,-1.3773,-1.3724,0.0,0.0,0.0,0.0,0.0,0.0,0.0,0.0,0.0,0.0,0.0,0.0,0.0,0.0,-1.0933,-0.8541,-0.814,-0.8205,-0.8255,0.0,0.0,0.0,0.0,0.0,0.0,0.0,0.0,0.0,0.0,0.0,0.0,0.0,0.0,0.9486,0.9149,0.91,0.0,0.0,0.0,0.0,0.0,0.0,0.0,0.0,1.3312,1.4087,1.4451,1.5128,1.4889,0.0,1.4016,1.285,0.0,0.0,0.0,0.0,0.0,0.0,0.0,0.0,1.0828,1.2049,1.334,1.3731,1.3108,1.2189,1.1281,1.0375,0.8349,0.6305,0.4301,0.3423,0.2849,0.0,0.0,0.0,0.0,0.0,0.0,0.0,0.0,0.0,0.0,0.0,0.0,0.0,0.0,0.0,0.0,0.0,0.0,0.0,0.0,0.0,0.0,0.0,-0.3409,0.0,0.0,0.0,0.0,0.0,0.0,0.0,0.0,0.0,-0.6135,-0.8131,-1.0155,-1.1208,-1.2226,-1.3092,-1.3727,0.0,0.0,0.0,0.0,0.0,0.0,0.0,-1.1918,-1.2946,-1.2533,-1.1985,-1.1851,-1.2173,-1.2315,-1.183,0.0,0.0,-1.023,-0.9937,-1.0151,-1.0201,-1.0743,-1.1166,-1.1045,-1.1832,-1.2499,0.0,0.0,0.0,0.0,0.0,0.0,0.0,0.0,1.1779,1.1502,0.0,1.0906,0.0,0.0,0.0,0.0,1.0205,1.1687,0.0,0.0,1.5547,1.635,1.635,1.635,1.6392,1.64,1.6602,1.5836,1.4075,1.1608,0.0,0.0,0.0,0.0,0.0,0.0,1.1478,1.2691,1.3541,1.3571,1.2795,1.1888,1.0721,0.9175,0.7335,0.5687,0.435,0.3868,0.2817,0.0955,0.1841,0.0,0.0,0.0,0.0,0.0,0.0,0.0,0.0,0.0,0.0,0.0,0.0,0.0,0.0,0.0,0.0,0.0,0.0,0.0,0.0,-0.494,0.0,0.0,0.0,0.0,0.0,0.0,0.0,0.0,0.0,0.0,-0.9052,-0.9748,-1.1238,-1.3227,0.0,0.0,0.0,0.0,-1.3617,-1.3439,-1.2723,-1.2,-1.1277,-1.2604,-1.3772,-1.38,0.0,0.0,-1.4066,-1.4302,-1.436,-1.3128,-1.4429,-1.5261,-1.3552,-1.2786,-1.245,-1.245,-1.289,-1.3178,-1.3318,-1.4392,-1.5397,1.2668,0.0,0.0,0.0,0.0,1.2254,1.3022,1.4153,1.3893,1.3556,1.3147,1.3063,0.0,0.0,0.0,0.0,0.0,0.0,1.3246,1.4553,1.5067,1.5669,1.6392,1.6402,1.6402,1.6392,1.6574,1.6392,1.587,1.5221,1.2596,0.8231,0.0,0.0,0.0,0.0,1.2508,1.3231,1.3195,1.2856,1.2235,1.1195,0.9767,0.7962,0.6416,0.4932,0.3547,0.2822,0.2047,0.1189,0.1188,0.0,0.0,0.0,0.0,0.0,0.0,0.0,0.0,0.0,0.0,0.0,0.0,0.0,0.0,0.0,0.0,0.0,0.0,0.0,-0.4029,-0.5837,-0.6966,0.0,0.0,0.0,0.0,0.0,0.0,0.0,0.0,0.0,-1.1452,-1.2207,-1.2989,0.0,0.0,-1.4204,-1.4374,-1.4592,-1.4802,-1.4984,-1.482,0.0,-1.4502,-1.4075,-1.4302,-1.5679,-1.643,-1.6616,-1.5986,-1.5492,-1.5041,-1.4641,-1.5122,-1.5403,-1.5016,-1.511,-1.5205,-1.5134,-1.5311,-1.5626,-1.5928,-1.6468,-1.6836,1.4599,1.3893,1.3243,1.3221,1.3608,1.379,1.45,1.5525,1.5431,1.519,1.4887,1.4927,1.4169,1.2846,1.2456,0.0,0.0,0.0,1.4136,1.5426,1.5442,1.5783,1.6371,1.6402,1.6402,1.642,1.6532,1.6577,1.6524,1.6371,1.4278,1.0474,0.0,0.0,1.0102,1.1669,1.2818,1.3432,1.2907,1.2397,1.2012,1.0135,0.8484,0.7022,0.5562,0.424,0.3115,0.2245,0.1495,0.094,0.0446,0.0205,0.0,0.0,0.0,0.0,0.0,0.0,0.0,0.0,0.0,0.0,0.0,-1.0301,-0.7242,0.0,0.0,0.0,-0.9426,-0.7072,-0.7155,-0.8577,0.0,0.0,0.0,0.0,0.0,0.0,0.0,-1.2112,-1.2802,-1.3361,-1.3793,-1.429,-1.4529,-1.4297,-1.4572,-1.4821,-1.4973,0.0,-1.5537,-1.574,-1.5769,-1.5798,-1.5885,-1.5174,-1.507,-1.6229,-1.6449,-1.6449,-1.641,-1.5899,-1.5642,-1.5824,-1.5957,-1.6026,-1.6026,-1.6345,-1.6621,-1.6578,-1.6811,-1.7107,-1.7338,-1.7472,-1.7533,1.5759,1.579,1.4623,1.4403,1.4857,1.5406,1.5902,1.6363,1.6374,1.6402,1.6402,1.6402,1.585,1.4889,1.3961,0.0,1.485,1.49,1.5447,1.6392,1.6402,1.6402,1.6402,1.6402,1.6402,1.6392,1.6487,1.6481,1.64,1.5859,1.4761,1.3238,1.3569,1.3076,1.1722,1.2081,1.2663,1.3356,1.2628,1.2066,1.1703,0.8881,0.7055,0.6326,0.4743,0.3547,0.2746,0.1944,0.1109,0.0268,-0.0265,-0.0786,-0.1225,0.0,0.0,0.0,0.0,0.0,0.0,0.0,0.0,0.0,0.0,0.0,0.0,0.0,0.0,-1.0715,-1.1849,0.0,-1.2163,-1.2147,0.0,0.0,0.0,-0.9611,-0.9628,-1.142,-1.2778,-1.3032,0.0,0.0,-1.5885,-1.5914,-1.5788,-1.5507,-1.5439,-1.5536,-1.5816,-1.5845,-1.5914,-1.5914,-1.5924,-1.5924,-1.5972,-1.5901,-1.5871,-1.6019,-1.5953,-1.6,-1.6,-1.5972,-1.6192,-1.6588,-1.6779,-1.6832,-1.6825,-1.6873,-1.6983,-1.7161,-1.747,-1.7788,-1.7946,-1.7983,-1.8019,1.573,1.5748,1.5535,1.5516,1.5627,1.5869,1.6061,1.6181,1.6335,1.6402,1.6402,1.6402,1.6244,1.5994,1.5768,1.5783,1.5988,1.6015,1.6137,1.6392,1.6402,1.6402,1.6402,1.6402,1.6402,1.6363,1.601,1.6105,1.6485,1.5532,1.4926,1.4655,1.394,1.2759,1.1209,1.2474,1.2911,1.2351,1.1927,1.0916,0.9372,0.8059,0.6822,0.5592,0.4008,0.2577,0.1339,0.084,0.0269,-0.0504,-0.0293,-0.026,-0.0537,-0.083,0.0,0.0,0.0,0.0,0.0,0.0,0.0,0.0,0.0,-1.0764,-1.4243,0.0,-1.0046,0.0,-1.4242,-1.3438,-1.1025,-1.1809,0.0,0.0,-1.1398,-1.1445,-1.3971,-1.3767,-1.3882,-1.5049,-1.5567,-1.5856,-1.5914,-1.5914,-1.5904,-1.5912,-1.5865,-1.5668,-1.5349,-1.5674,-1.5933,-1.6009,-1.6038,-1.6095,-1.623,-1.6259,-1.6259,-1.6298,-1.6288,-1.6298,-1.6259,-1.6288,-1.6327,-1.6488,-1.6853,-1.7073,-1.7084,-1.7473,-1.7763,-1.7848,-1.7802,-1.8014,-1.8821,-1.9015,-1.9015,1.5575,1.5575,1.5633,1.5672,1.5691,1.5923,1.6009,1.6019,1.6192,1.6278,1.6278,1.6345,1.6402,1.6402,1.6402,1.6402,1.6402,1.6402,1.6402,1.6402,1.6402,1.6487,1.6674,1.6684,1.6591,1.6497,1.6527,1.6387,1.6068,1.5343,1.4768,1.4353,1.3288,1.2104,1.0906,1.2022,1.2371,1.1867,1.1088,0.9533,0.7163,0.6678,0.5855,0.4546,0.3113,0.2039,0.1363,0.0263,-0.0331,-0.0414,-0.092,-0.1206,-0.1204,-0.2143,-0.2619,0.0,0.0,0.0,0.0,0.0,0.0,0.0,0.0,0.0,0.0,0.0,-1.2541,-1.2615,-1.4389,-1.4443,-1.184,-1.333,-1.4469,-1.4405,-1.3882,-1.417,-1.5808,-1.535,-1.5216,-1.6034,-1.6126,-1.6126,-1.6116,-1.6116,-1.6144,-1.6249,-1.6163,-1.6024,-1.5754,-1.5792,-1.5856,-1.5923,-1.5923,-1.6038,-1.6345,-1.6202,-1.6173,-1.6345,-1.6402,-1.6402,-1.6402,-1.6402,-1.6402,-1.6402,-1.6637,-1.6842,-1.687,-1.7324,-1.7765,-1.8038,-1.8201,-1.8494,-1.9078,-1.942,-1.9565,1.542,1.542,1.542,1.542,1.542,1.572,1.5856,1.5885,1.6009,1.6085,1.6124,1.6278,1.6374,1.6384,1.6374,1.6374,1.6384,1.6464,1.6456,1.6506,1.6529,1.6757,1.7099,1.6999,1.6829,1.6629,1.7076,1.666,1.5433,1.498,1.4252,1.3226,1.2164,1.1259,1.0653,1.0946,1.1216,1.1353,1.0141,0.8169,0.5494,0.5425,0.4798,0.3527,0.2154,0.1489,0.147,-0.0258,-0.0975,-0.0482,-0.1941,-0.2745,-0.2593,-0.3709,-0.4657,0.0,-0.4194,0.0,0.0,0.0,0.0,0.0,0.0,0.0,0.0,-1.4214,-1.3596,-1.0536,-1.3688,-1.5253,-1.3721,-1.5461,-1.6503,-1.6048,-1.6552,-1.6712,-1.6228,-1.6306,-1.6402,-1.6402,-1.6431,-1.6459,-1.6431,-1.6498,-1.6516,-1.6545,-1.6545,-1.6506,-1.6449,-1.6095,-1.5856,-1.5788,-1.5817,-1.6077,-1.6278,-1.6105,-1.6019,-1.6335,-1.6316,-1.6355,-1.6431,-1.6374,-1.6355,-1.6431,-1.6488,-1.6488,-1.6459,-1.6842,-1.7296,-1.7722,-1.8213,-1.8709,-1.9093,-1.9486,-1.9773,1.542,1.542,1.542,1.542,1.542,1.5478,1.5604,1.574,1.5885,1.599,1.6085,1.6142,1.6239,1.6384,1.621,1.6239,1.6423,1.6757,1.6882,1.6903,1.7275,1.7482,1.7544,1.6968,1.6654,1.6534,1.5643,1.5168,1.506,1.3563,1.2846,1.2839,1.1356,1.0416,1.0038,0.0,0.0,0.0,0.8947,0.7746,0.6121,0.6042,0.501,0.2943,0.1477,0.0,-0.1114,-0.163,-0.2199,-0.2785,-0.3132,0.0,0.0,0.0,0.0,0.0,0.0,0.0,0.0,0.0,0.0,0.0,-0.7386,-0.8209,-1.1064,-1.3737,-1.4452,-1.2546,-1.4466,-1.5803,-1.5588,-1.594,-1.6257,-1.6316,-1.6431,-1.6459,-1.6363,-1.6384,-1.6402,-1.6402,-1.6602,-1.6733,-1.6733,-1.692,-1.706,-1.7082,-1.7071,-1.706,-1.7032,-1.6563,-1.6288,-1.6259,-1.6363,-1.6467,-1.6361,-1.6457,-1.6428,-1.6389,-1.6038,-1.6105,-1.6563,-1.622,-1.6105,-1.6591,-1.6722,-1.6733,-1.6733,-1.6807,-1.6909,-1.6751,-1.7207,-1.7972,-1.9319,-1.9721,-1.9798,1.542,1.542,1.542,1.542,0.0,1.542,1.5439,1.5575,1.573,1.5875,1.6019,1.6009,1.6058,1.6155,1.6124,1.6294,1.6628,1.6873,1.7141,1.7358,1.7595,1.7823,1.8019,1.729,1.6863,1.6727,1.5872,1.5089,1.4379,1.3473,1.2691,1.2014,1.0997,1.0135,0.9378,0.7893,0.7211,0.73,0.6937,0.5918,0.4323,0.4028,0.3136,0.1515,0.0427,0.0,0.0,0.0,0.0,0.0,0.0,0.0,0.0,0.0,0.0,-0.8239,-0.7672,-0.7768,-0.8897,-0.8194,-0.8305,-0.9674,-1.0016,-1.1045,-1.3165,-1.4823,-1.5389,-1.4557,-1.5502,-1.6173,-1.6249,-1.6475,-1.6634,-1.662,-1.6864,-1.6994,-1.6846,-1.6807,-1.679,-1.6779,-1.6931,-1.6994,-1.7004,-1.7106,-1.719,-1.7239,-1.7228,-1.7228,-1.7172,-1.6768,-1.6438,-1.6438,-1.6332,-1.6446,-1.6673,-1.6645,-1.6712,-1.6691,-1.6599,-1.6637,-1.6948,-1.6694,-1.6581,-1.6948,-1.7004,-1.7004,-1.7071,-1.7245,-1.7401,-1.7346,-1.7847,-1.8566,-1.9514,-1.9552,-1.9526,1.542,1.542,1.542,1.543,1.5527,1.5527,1.5566,1.5635,0.0,0.0,0.0,1.6056,1.6116,1.6126,1.6252,1.6533,1.691,1.7153,1.7451,1.7823,1.7905,1.809,1.8291,1.7517,1.6935,1.6587,1.6024,1.5017,1.363,1.3477,1.2564,1.1023,1.0585,0.9708,0.8288,0.635,0.5164,0.4827,0.4844,0.4037,0.238,0.1801,0.1082,0.0158,-0.0796,-0.1543,-0.2064,-0.3694,-0.4352,-0.3879,-0.5457,-0.6429,-0.6556,-0.7798,-0.8836,-0.9501,-1.0174,-1.0624,-1.0656,-1.0776,-1.0933,-1.1153,-1.2901,-1.4531,-1.5885,-1.6038,-1.6114,-1.6142,-1.6306,-1.6402,-1.6402,-1.6814,-1.7028,-1.6835,-1.7301,-1.7473,-1.7245,-1.7228,-1.7172,-1.7228,-1.7228,-1.7312,-1.7301,-1.7368,-1.7357,-1.7357,-1.7412,-1.7368,-1.729,-1.6983,-1.6729,-1.6758,-1.6578,-1.6482,-1.6927,-1.6983,-1.686,-1.7095,-1.7134,-1.7172,-1.719,-1.7106,-1.705,-1.706,-1.7162,-1.72,-1.7306,-1.7645,-1.7995,-1.7929,-1.859,-1.9212,-1.9291,-1.9081,-1.9107,1.542,1.542,1.542,1.5625,1.6007,1.5997,1.6191,1.6473,1.6295,1.6227,1.6277,1.6685,1.6917,1.702,1.701,1.7164,1.7431,1.7967,1.8237,1.8341,1.8702,1.8601,1.803,1.694,1.6075,1.5385,1.4212,1.3355,1.2824,1.2207,1.119,0.9964,0.9496,0.8219,0.61,0.4447,0.3262,0.2534,0.352,0.3617,0.2735,0.1775,0.0829,-0.0103,-0.2115,-0.3528,-0.4256,-0.5253,-0.5821,-0.5748,-0.6898,-0.7634,-0.7783,-0.9117,-1.0077,-1.039,-1.053,-1.0649,-1.0744,-1.0965,-1.1185,-1.1615,-1.3666,-1.5381,-1.623,-1.6192,-1.6171,-1.6345,-1.6413,-1.6402,-1.6402,-1.6705,-1.6892,-1.6835,-1.7106,-1.7234,-1.7256,-1.7295,-1.7295,-1.7256,-1.7451,-1.7629,-1.7645,-1.781,-1.792,-1.7947,-1.7865,-1.7936,-1.7838,-1.7507,-1.7323,-1.7451,-1.7479,-1.7374,-1.7307,-1.744,-1.7401,-1.7213,-1.6944,-1.6927,-1.7284,-1.6892,-1.6655,-1.6835,-1.7117,-1.7256,-1.7334,-1.7557,-1.7673,-1.754,-1.7733,-1.7925,-1.8417,-1.8471,-1.8777,1.5547,1.5752,1.5801,1.6016,1.6426,1.6426,1.6273,1.6128,1.623,1.6338,1.6548,1.6735,1.6886,1.6886,1.6583,1.6699,1.7157,1.7506,1.7845,1.8184,1.8429,1.8231,1.7627,1.634,1.5375,1.4695,1.3526,1.2694,1.2303,1.1806,1.0864,0.9497,0.7875,0.6193,0.4585,0.3235,0.2351,0.1887,0.2429,0.2159,0.0965,0.0219,-0.069,-0.1784,-0.3402,-0.4334,-0.4703,-0.5894,-0.666,-0.6911,-0.7845,-0.8678,-0.9271,-1.0035,-1.0522,-1.0606,-1.0586,-1.0649,-1.0807,-1.1209,-1.2011,-1.3252,-1.4243,-1.5274,-1.6306,-1.6306,-1.6363,-1.6591,-1.662,-1.6705,-1.6857,-1.6959,-1.7088,-1.7267,-1.7396,-1.7523,-1.7661,-1.7739,-1.7728,-1.7728,-1.7838,-1.7931,-1.792,-1.803,-1.8084,-1.8084,-1.8084,-1.8084,-1.8084,-1.7904,-1.7767,-1.7865,-1.7893,-1.7865,-1.7733,-1.7799,-1.7838,-1.7705,-1.7501,-1.7484,-1.77,-1.7368,-1.7301,-1.7451,-1.759,-1.77,-1.7711,-1.7822,-1.781,-1.7783,-1.7909,-1.8263,-1.867,-1.9148,-1.9592,1.5748,1.6211,1.6048,1.6112,1.6385,1.6641,1.6304,1.5677,1.5965,1.623,1.6439,1.6485,1.6485,1.642,1.6034,1.6243,1.6812,1.6897,1.7288,1.7872,1.7726,1.7379,1.685,1.5532,1.4579,1.3958,1.2934,1.2144,1.1574,1.1269,1.0271,0.8553,0.5888,0.4092,0.331,0.2032,0.1329,0.1134,0.0911,0.0345,-0.0621,-0.1365,-0.2283,-0.3285,-0.4336,-0.502,-0.538,-0.6567,-0.7436,-0.7981,-0.8781,-0.9539,-1.0128,-1.0579,-1.0778,-1.0688,-1.0719,-1.0869,-1.1209,-1.1942,-1.3047,-1.4451,-1.4874,-1.5478,-1.6374,-1.6573,-1.6658,-1.679,-1.6846,-1.6976,-1.7183,-1.7284,-1.7423,-1.7684,-1.7755,-1.7865,-1.8057,-1.8084,-1.8084,-1.8084,-1.8084,-1.8084,-1.8084,-1.8084,-1.8084,-1.8084,-1.8084,-1.8084,-1.8084,-1.8084,-1.8084,-1.8084,-1.8084,-1.8084,-1.8084,-1.8084,-1.8084,-1.8084,-1.8057,-1.7975,-1.7975,-1.7975,-1.792,-1.7838,-1.7893,-1.792,-1.7986,-1.8041,-1.8057,-1.8057,-1.8275,-1.8625,-1.8881,-1.9382,-2.008,1.5993,1.6502,1.5912,1.5486,1.5443,1.6417,1.6406,1.5722,1.5738,1.5747,1.5722,1.5774,1.5783,1.5817,1.5913,1.6321,1.6961,1.6755,1.697,1.7493,1.6848,1.6075,1.5399,1.4388,1.3541,1.2837,1.2005,1.1176,1.0319,1.0058,0.8713,0.6176,0.3413,0.2054,0.1861,0.0428,-0.0425,-0.0567,-0.1426,-0.1506,-0.0909,-0.2364,-0.3283,-0.3392,-0.4712,-0.5991,-0.7041,-0.7839,-0.8458,-0.912,-0.9793,-1.0019,-0.9679,-1.0503,-1.1042,-1.0962,-1.1106,-1.15,-1.2313,-1.3554,-1.4151,-1.4034,-1.5565,-1.6581,-1.6913,-1.711,-1.7099,-1.6948,-1.7022,-1.719,-1.7228,-1.7479,-1.7684,-1.7739,-1.7931,-1.8084,-1.8096,-1.8084,-1.8084,-1.8084,-1.8111,-1.8084,-1.8084,-1.8084,-1.8084,-1.8084,-1.8084,-1.8084,-1.8084,-1.8084,-1.8084,-1.8084,-1.8084,-1.8084,-1.8084,-1.8084,-1.8084,-1.8084,-1.8084,-1.803,-1.7893,-1.7794,-1.7684,-1.77,-1.7645,-1.781,-1.7849,-1.7893,-1.8084,-1.8111,-1.8193,-1.8247,-1.8247,-1.8491,-1.904,1.5524,1.6323,1.559,1.5341,1.5523,1.6,1.5737,1.5065,1.5065,1.4711,1.4147,1.4104,1.4701,1.5675,1.534,1.5419,1.5763,1.5436,1.5575,1.5968,1.5504,1.4796,1.3996,1.3189,1.2407,1.167,1.1301,1.0737,0.9783,0.8327,0.6402,0.4235,0.1969,0.062,0.0,-0.1017,-0.1586,-0.17,-0.2366,-0.2553,-0.2358,-0.3053,-0.3765,-0.4364,-0.5694,-0.6506,-0.6855,-0.7819,-0.8635,-0.9167,-0.9793,-1.02,-1.0396,-1.1134,-1.1504,-1.1478,-1.2233,-1.2773,-1.3065,-1.4197,-1.4948,-1.5118,-1.5902,-1.6581,-1.7088,-1.7379,-1.7462,-1.7379,-1.7434,-1.7562,-1.7728,-1.7865,-1.7931,-1.7975,-1.8139,-1.8259,-1.8111,-1.8263,-1.8317,-1.8139,-1.8205,-1.8232,-1.8139,-1.8084,-1.8084,-1.8084,-1.8111,-1.8111,-1.8084,-1.8084,-1.8084,-1.8084,-1.8084,-1.8084,-1.8084,-1.8084,-1.8084,-1.8084,-1.8084,-1.803,-1.7975,-1.792,-1.7893,-1.7728,-1.781,-1.7893,-1.7947,-1.7975,-1.8111,-1.8139,-1.8383,-1.853,-1.8503,-1.8706,-1.9251,1.5095,1.5888,1.548,1.5184,1.5108,1.5321,1.4945,1.4225,1.4146,1.3651,1.2919,1.287,1.3581,1.4614,1.4245,1.4226,1.4474,1.4138,1.4245,1.4628,1.4104,1.3483,1.2931,1.2033,1.1207,1.0527,1.0454,0.9876,0.8618,0.5968,0.3981,0.257,0.082,-0.0508,-0.1331,-0.2102,-0.2566,-0.2655,-0.3372,-0.3786,-0.3837,-0.4219,-0.4667,-0.5165,-0.6306,-0.694,-0.7091,-0.822,-0.9162,-0.9725,-1.009,-1.0533,-1.1058,-1.1605,-1.1948,-1.2208,-1.3361,-1.4078,-1.397,-1.486,-1.5613,-1.6107,-1.6343,-1.6701,-1.7228,-1.7617,-1.7822,-1.7877,-1.7904,-1.7975,-1.815,-1.8205,-1.8193,-1.822,-1.8394,-1.8394,-1.822,-1.8398,-1.841,-1.8177,-1.8193,-1.8286,-1.8205,-1.8193,-1.8193,-1.8205,-1.822,-1.8193,-1.8193,-1.822,-1.8236,-1.822,-1.8247,-1.8193,-1.8139,-1.8084,-1.8084,-1.8084,-1.8084,-1.8084,-1.8084,-1.8084,-1.8084,-1.7947,-1.8057,-1.8084,-1.803,-1.8084,-1.8111,-1.8166,-1.8367,-1.861,-1.8503,-1.8866,-1.9052,1.4871,1.5632,1.5676,1.4783,1.3659,1.4335,1.4057,1.3164,1.3144,1.289,1.2558,1.2516,1.2562,1.2694,1.2621,1.3017,1.3605,1.3149,1.3423,1.4106,1.2753,1.2192,1.2325,1.1041,0.9993,0.936,0.9233,0.8174,0.6046,0.309,0.1569,0.1526,-0.0313,-0.1293,-0.1641,-0.2879,-0.3477,-0.3631,-0.4773,-0.5418,-0.5353,-0.6094,-0.6218,-0.5803,-0.6248,-0.7298,-0.8624,-0.9484,-1.0224,-1.1212,-1.1189,-1.1189,-1.1145,-1.1647,-1.2298,-1.308,-1.4329,-1.507,-1.516,-1.5742,-1.6226,-1.6431,-1.703,-1.7462,-1.7496,-1.7865,-1.8111,-1.834,-1.8313,-1.8356,-1.8383,-1.8367,-1.8422,-1.8506,-1.856,-1.8518,-1.8383,-1.8422,-1.834,-1.8177,-1.8166,-1.8247,-1.8367,-1.8394,-1.8394,-1.841,-1.8491,-1.8518,-1.841,-1.8479,-1.8533,-1.8533,-1.8506,-1.8452,-1.8193,-1.8166,-1.8166,-1.8166,-1.822,-1.8139,-1.8111,-1.8084,-1.8111,-1.8111,-1.8166,-1.8166,-1.8111,-1.8111,-1.8166,-1.8193,-1.822,-1.8302,-1.8449,-1.8394,-1.8545,1.3651,1.4099,1.3884,1.3517,1.3191,1.3229,1.3031,1.2723,1.2921,1.2826,1.2497,1.2213,1.1943,1.1683,1.117,1.1799,1.3087,1.2472,1.2459,1.2761,1.1543,1.0839,1.0563,0.965,0.9057,0.8596,0.7674,0.6146,0.4074,0.1778,0.0427,-0.0273,-0.1955,-0.2893,-0.3085,-0.396,-0.4695,-0.5138,-0.5715,-0.6043,-0.6301,-0.6699,-0.6983,-0.7134,-0.7418,-0.8,-0.8924,-0.9667,-1.04,-1.106,-1.1355,-1.1533,-1.1715,-1.2785,-1.3683,-1.4376,-1.5865,-1.6328,-1.5681,-1.6941,-1.7573,-1.7048,-1.7717,-1.8086,-1.7967,-1.8111,-1.8302,-1.8394,-1.8491,-1.8545,-1.8622,-1.8514,-1.8437,-1.8572,-1.8575,-1.8614,-1.8572,-1.8679,-1.8706,-1.8479,-1.8425,-1.8452,-1.8491,-1.8518,-1.8518,-1.8506,-1.856,-1.8587,-1.8572,-1.856,-1.8614,-1.8587,-1.8587,-1.856,-1.8479,-1.8425,-1.8425,-1.8425,-1.8425,-1.8425,-1.8398,-1.8371,-1.841,-1.8383,-1.8383,-1.8356,-1.8356,-1.8344,-1.8344,-1.8371,-1.8371,-1.8356,-1.8437,-1.8464,-1.8518,1.2727,1.2558,1.2777,1.2884,1.2889,1.2571,1.2353,1.2261,1.2235,1.2047,1.1703,1.1379,1.1144,1.0864,1.0463,1.0914,1.2078,1.1552,1.1375,1.1511,1.0555,0.9867,0.9421,0.8699,0.7887,0.6949,0.5251,0.3606,0.2176,0.0546,-0.0587,-0.1488,-0.3049,-0.3832,-0.3984,-0.4889,-0.5702,-0.6098,-0.6666,-0.7071,-0.7271,-0.7727,-0.8131,-0.852,-0.8728,-0.897,-0.9315,-1.0057,-1.0645,-1.1089,-1.1501,-1.2004,-1.2785,-1.4171,-1.5144,-1.5655,-1.6958,-1.7334,-1.6412,-1.7616,-1.8167,-1.7342,-1.794,-1.8368,-1.8212,-1.8383,-1.8546,-1.8732,-1.8846,-1.9017,-1.9262,-1.9211,-1.8975,-1.8827,-1.8869,-1.8869,-1.8759,-1.916,-1.9226,-1.8922,-1.8694,-1.864,-1.864,-1.8679,-1.8652,-1.8667,-1.8694,-1.8721,-1.8679,-1.8706,-1.8721,-1.8747,-1.8747,-1.8747,-1.8721,-1.8721,-1.8614,-1.8587,-1.8572,-1.8587,-1.864,-1.864,-1.864,-1.8614,-1.8614,-1.8614,-1.8614,-1.8587,-1.8587,-1.8614,-1.856,-1.8506,-1.856,-1.8614,-1.864,1.2101,1.131,1.2542,1.2791,1.2515,1.2195,1.2035,1.1598,1.1011,1.0681,1.0486,1.0236,1.026,1.0195,1.0265,1.0539,1.0455,1.0184,1.0231,1.0473,0.9712,0.9185,0.8826,0.7925,0.64,0.4495,0.2269,0.0957,0.0351,-0.0821,-0.1801,-0.2543,-0.3517,-0.4103,-0.3871,-0.5471,-0.6261,-0.6493,-0.7667,-0.8383,-0.8308,-0.9242,-0.976,-0.9686,-0.9833,-1.0013,-1.0165,-1.0672,-1.1162,-1.1634,-1.1883,-1.2785,-1.4411,-1.5661,-1.6452,-1.6765,-1.7615,-1.7798,-1.7449,-1.7846,-1.8123,-1.7643,-1.7907,-1.8426,-1.8654,-1.8623,-1.888,-1.9448,-1.9547,-1.9785,-2.0317,-2.0316,-1.9936,-1.9239,-1.9499,-1.9499,-1.9252,-1.9745,-2.0118,-1.951,-1.9095,-1.8768,-1.8795,-1.906,-1.9159,-1.9078,-1.9024,-1.9027,-1.8947,-1.8926,-1.8972,-1.8999,-1.8934,-1.8907,-1.896,-1.8987,-1.8827,-1.8694,-1.8667,-1.8667,-1.8721,-1.8747,-1.8747,-1.8747,-1.8747,-1.8747,-1.8721,-1.8721,-1.8694,-1.8694,-1.8667,-1.8667,-1.8721,-1.8747,-1.8786,1.0673,1.0475,1.0669,1.0846,1.082,1.064,1.0502,1.0472,1.0521,1.0515,1.0414,1.0095,0.9954,0.9812,0.9511,0.9078,0.866,0.8561,0.8864,0.9207,0.8628,0.8018,0.7397,0.6166,0.4317,0.2308,0.0959,-0.0039,-0.0937,-0.2268,-0.3168,-0.3634,-0.4877,-0.5306,-0.4885,-0.6078,-0.6707,-0.6775,-0.7747,-0.8401,-0.876,-0.9768,-1.0196,-1.003,-1.006,-1.0279,-1.0644,-1.0791,-1.1471,-1.2611,-1.3005,-1.4055,-1.5834,-1.6622,-1.714,-1.7697,-1.8584,-1.8901,-1.8625,-1.9179,-1.9424,-1.908,-1.9108,-1.9408,-1.9685,-1.925,-1.9304,-1.996,-1.9921,-1.9981,-2.0425,-2.0569,-2.0421,-2.0113,-2.0149,-2.0188,-2.0093,-2.0324,-2.0245,-1.9909,-2.0214,-2.0235,-1.9834,-1.9976,-2.0278,-1.9957,-1.9729,-1.954,-1.9477,-1.9261,-1.8999,-1.9013,-1.9013,-1.9049,-1.9013,-1.9013,-1.8934,-1.8854,-1.8827,-1.8813,-1.8827,-1.8854,-1.8854,-1.8854,-1.8881,-1.8869,-1.8854,-1.8854,-1.8827,-1.8854,-1.8854,-1.8881,-1.8881,-1.8893,-1.8893,0.9729,0.9537,0.9764,0.9865,0.9902,0.968,0.9603,0.9625,0.9652,0.9495,0.9231,0.909,0.8813,0.8504,0.8161,0.7621,0.7046,0.6888,0.6877,0.7019,0.7107,0.6657,0.588,0.4153,0.2481,0.0881,-0.0116,-0.1094,-0.2229,-0.3246,-0.3949,-0.4457,-0.5467,-0.5819,-0.5512,-0.6703,-0.7433,-0.751,-0.8604,-0.934,-0.9626,-1.0269,-1.0599,-1.0485,-1.0577,-1.1007,-1.166,-1.1867,-1.2319,-1.3292,-1.4237,-1.5755,-1.7389,-1.7677,-1.8,-1.8633,-1.9196,-1.9544,-1.9552,-1.9976,-2.0339,-2.004,-1.9932,-2.0039,-2.0282,-1.9849,-2.0072,-2.0572,-2.0565,-2.0639,-2.1091,-2.1211,-2.1199,-2.117,-2.094,-2.0913,-2.1059,-2.0827,-2.0637,-2.051,-2.0813,-2.0713,-2.0539,-2.0568,-2.1018,-2.0624,-2.0322,-2.0093,-2.0033,-1.9841,-1.9588,-1.9411,-1.9348,-1.929,-1.9049,-1.9013,-1.9013,-1.8987,-1.896,-1.8946,-1.896,-1.896,-1.896,-1.896,-1.896,-1.896,-1.8934,-1.896,-1.896,-1.9013,-1.9025,-1.8987,-1.896,-1.896,-1.8972,0.9095,0.8393,0.9494,0.976,0.9505,0.9175,0.8939,0.8974,0.83,0.7613,0.7115,0.731,0.7011,0.643,0.6619,0.6269,0.5529,0.5253,0.4595,0.4169,0.4482,0.4714,0.3857,0.2181,0.0778,-0.0351,-0.1211,-0.2308,-0.3519,-0.391,-0.4265,-0.4973,-0.5512,-0.5512,-0.5973,-0.7506,-0.8342,-0.8347,-0.99,-1.0541,-1.0319,-1.0819,-1.1064,-1.1014,-1.1436,-1.2095,-1.2846,-1.3539,-1.3813,-1.3871,-1.5652,-1.7173,-1.8405,-1.8785,-1.8988,-1.9442,-1.9605,-1.9955,-2.0267,-2.0394,-2.038,-2.0491,-2.0403,-2.0319,-2.0547,-2.0618,-2.0801,-2.132,-2.1332,-2.1512,-2.1933,-2.2053,-2.2065,-2.2091,-2.1687,-2.1672,-2.1999,-2.1329,-2.1039,-2.1198,-2.099,-2.0711,-2.0764,-2.0834,-2.0935,-2.082,-2.0754,-2.0658,-2.0598,-2.0454,-2.0298,-2.0093,-1.9853,-1.9744,-1.9627,-1.9588,-1.96,-1.96,-1.9468,-1.9326,-1.9134,-1.9062,-1.9158,-1.9146,-1.917,-1.9134,-1.9074,-1.911,-1.9074,-1.8999,-1.9025,-1.9025,-1.9025,-1.9025,-1.9013,0.7022,0.6861,0.7812,0.8172,0.8014,0.749,0.7268,0.7153,0.6573,0.6153,0.5957,0.6034,0.5684,0.5173,0.517,0.4665,0.3775,0.3501,0.3078,0.2343,0.1915,0.1522,0.0936,0.0391,-0.0742,-0.2147,-0.2966,-0.375,-0.4068,-0.4693,-0.5129,-0.5282,-0.6661,-0.7157,-0.7084,-0.8499,-0.9074,-0.8737,-0.9604,-1.0233,-1.0258,-1.076,-1.1156,-1.1403,-1.2325,-1.2952,-1.3411,-1.4942,-1.5834,-1.5774,-1.64,-1.7457,-1.8607,-1.8998,-1.9287,-1.9572,-2.0064,-2.0388,-2.0581,-2.0862,-2.1011,-2.1031,-2.1055,-2.1214,-2.1318,-2.0996,-2.1265,-2.168,-2.168,-2.1632,-2.2065,-2.2197,-2.2197,-2.2204,-2.2098,-2.2124,-2.2119,-2.2073,-2.1831,-2.1533,-2.1965,-2.1851,-2.154,-2.1755,-2.207,-2.1729,-2.1416,-2.1187,-2.1151,-2.0935,-2.073,-2.0574,-2.0394,-2.0322,-2.0261,-2.0237,-2.0249,-2.0298,-2.0129,-1.9829,-1.948,-1.9119,-1.9338,-1.9495,-1.9627,-1.9612,-1.9435,-1.9326,-1.9191,-1.9179,-1.9011,-1.9037,-1.9011,-1.8999,-1.9025,0.5628,0.5641,0.6197,0.6414,0.6337,0.5991,0.5701,0.5431,0.512,0.4598,0.4208,0.4244,0.3895,0.335,0.3426,0.2921,0.195,0.1794,0.1406,0.0782,0.0,-0.0626,-0.1055,-0.1289,-0.2264,-0.3513,-0.4176,-0.4491,-0.4771,-0.5362,-0.5521,-0.5709,-0.7084,-0.7621,-0.7318,-0.8927,-0.9733,-0.9425,-0.9992,-1.0406,-1.0475,-1.0925,-1.1298,-1.1632,-1.2475,-1.3055,-1.3954,-1.5411,-1.6219,-1.6384,-1.7129,-1.7944,-1.8405,-1.9098,-1.9408,-1.9528,-2.0172,-2.0635,-2.0892,-2.121,-2.1411,-2.1423,-2.1529,-2.1686,-2.1772,-2.1514,-2.1611,-2.2022,-2.1873,-2.1921,-2.2101,-2.2197,-2.2216,-2.2278,-2.2359,-2.2328,-2.2216,-2.223,-2.2133,-2.2019,-2.225,-2.2524,-2.1783,-2.236,-2.2451,-2.2237,-2.1897,-2.1777,-2.1692,-2.1404,-2.1151,-2.1019,-2.0899,-2.0827,-2.0658,-2.0586,-2.0634,-2.0706,-2.0706,-2.0406,-2.0093,-1.9612,-1.9768,-2.0021,-2.0093,-2.0069,-1.9877,-1.9748,-1.9724,-1.9615,-1.9302,-1.9131,-1.9203,-1.9239,-1.9191,0.469,0.4687,0.4821,0.4816,0.4811,0.4751,0.4368,0.3882,0.3637,0.2966,0.2188,0.2187,0.1993,0.1175,0.1602,0.1212,0.0431,0.0274,-0.0196,-0.0862,-0.1724,-0.2349,-0.2465,-0.289,-0.3669,-0.4528,-0.4606,-0.5002,-0.5437,-0.5637,-0.5754,-0.6135,-0.6973,-0.7468,-0.8042,-0.9344,-0.9992,-1.0218,-1.0738,-1.1074,-1.1111,-1.1335,-1.1521,-1.1781,-1.2298,-1.3273,-1.4458,-1.5463,-1.5842,-1.5746,-1.7619,-1.8216,-1.8236,-1.9175,-1.9528,-1.9671,-2.0269,-2.086,-2.1115,-2.1305,-2.1474,-2.1592,-2.1635,-2.1824,-2.1975,-2.1873,-2.1916,-2.2142,-2.2197,-2.2161,-2.2204,-2.2197,-2.2247,-2.234,-2.2359,-2.2328,-2.2247,-2.2216,-2.2228,-2.2197,-2.2228,-2.2197,-2.2197,-2.2197,-2.2197,-2.2247,-2.2077,-2.2041,-2.2005,-2.1873,-2.1668,-2.1536,-2.1416,-2.1308,-2.1103,-2.0887,-2.0959,-2.1031,-2.1115,-2.0983,-2.0887,-2.0598,-2.0574,-2.0634,-2.067,-2.0586,-2.0406,-2.031,-2.0302,-2.0121,-1.9841,-1.9696,-1.9652,-1.9648,-1.9624,0.3886,0.3939,0.4687,0.4676,0.4198,0.3579,0.2922,0.2324,0.164,0.1254,0.0941,0.098,0.0628,0.0078,0.0118,-0.0235,-0.0746,-0.0903,-0.1335,-0.2235,-0.3679,-0.4261,-0.4261,-0.4375,-0.4882,-0.5586,-0.5864,-0.5867,-0.5906,-0.6103,-0.6409,-0.6938,-0.7778,-0.8694,-0.9344,-1.0244,-1.1074,-1.1149,-1.1409,-1.1521,-1.1521,-1.1595,-1.1744,-1.204,-1.2806,-1.3745,-1.4637,-1.5631,-1.6062,-1.6202,-1.6853,-1.7969,-1.8831,-1.9253,-1.9639,-2.0172,-2.0667,-2.1094,-2.1221,-2.1336,-2.1431,-2.1506,-2.1655,-2.1761,-2.1937,-2.1937,-2.1999,-2.2135,-2.2197,-2.2197,-2.2216,-2.2309,-2.2309,-2.2309,-2.2328,-2.2359,-2.2247,-2.2278,-2.2278,-2.2216,-2.2197,-2.2197,-2.2197,-2.2197,-2.2197,-2.2197,-2.2197,-2.2197,-2.2197,-2.2197,-2.2053,-2.1861,-2.1825,-2.1716,-2.1644,-2.1452,-2.1452,-2.1464,-2.15,-2.1524,-2.1428,-2.1272,-2.1127,-2.1139,-2.1235,-2.1115,-2.0971,-2.0947,-2.0923,-2.067,-2.043,-2.0225,-2.0093,-2.0081,-1.9957,0.2987,0.289,0.3222,0.3095,0.2622,0.2015,0.1402,0.0812,0.0391,0.0,-0.0236,-0.0275,-0.0471,-0.0825,-0.1138,-0.1374,-0.1374,-0.1766,-0.2549,-0.3602,-0.4652,-0.5162,-0.5589,-0.5512,-0.5786,-0.6261,-0.6257,-0.618,-0.6219,-0.6602,-0.7022,-0.7437,-0.8585,-0.942,-1.0067,-1.0962,-1.1372,-1.1484,-1.1632,-1.1706,-1.1706,-1.1892,-1.215,-1.2445,-1.3178,-1.3861,-1.4752,-1.5463,-1.6097,-1.6559,-1.7113,-1.7789,-1.8754,-1.922,-1.9715,-2.0182,-2.086,-2.1169,-2.1233,-2.1336,-2.1463,-2.1549,-2.1686,-2.1862,-2.1987,-2.203,-2.2061,-2.2154,-2.2197,-2.2216,-2.2309,-2.2278,-2.2278,-2.2309,-2.2359,-2.2328,-2.2247,-2.2278,-2.2278,-2.2228,-2.2197,-2.2197,-2.2197,-2.2197,-2.2197,-2.2197,-2.2197,-2.2197,-2.2197,-2.2197,-2.2197,-2.2101,-2.2137,-2.2125,-2.2125,-2.2053,-2.1993,-2.1969,-2.1933,-2.1957,-2.1909,-2.1716,-2.1524,-2.1596,-2.1668,-2.1716,-2.1608,-2.1596,-2.15,-2.1392,-2.1151,-2.0791,-2.0562,-2.0562,-2.0418,0.2054,0.1764,0.1469,0.1128,0.0669,0.0386,-0.0078,-0.0536,-0.0583,-0.0785,-0.1218,-0.1297,-0.1178,-0.1492,-0.1883,-0.1884,-0.1922,-0.2391,-0.3483,-0.4727,-0.5196,-0.567,-0.6099,-0.618,-0.6335,-0.6451,-0.6338,-0.6335,-0.6679,-0.7138,-0.7672,-0.8093,-0.9155,-1.0099,-1.055,-1.1074,-1.1595,-1.1744,-1.1855,-1.1929,-1.1966,-1.2224,-1.2562,-1.282,-1.3083,-1.3724,-1.4617,-1.5321,-1.6026,-1.7088,-1.774,-1.8061,-1.8465,-1.9034,-1.9813,-2.0031,-2.0848,-2.1158,-2.1253,-2.1336,-2.1494,-2.173,-2.1843,-2.1999,-2.2123,-2.2154,-2.2154,-2.2185,-2.2197,-2.2247,-2.2389,-2.2309,-2.2278,-2.2328,-2.2389,-2.2328,-2.2278,-2.2228,-2.2197,-2.2197,-2.2197,-2.2197,-2.2197,-2.2197,-2.2197,-2.2197,-2.2197,-2.2197,-2.2197,-2.2197,-2.2197,-2.2197,-2.2197,-2.2197,-2.2197,-2.2197,-2.2197,-2.2197,-2.2197,-2.2197,-2.2197,-2.2041,-2.1861,-2.2005,-2.2077,-2.2053,-2.1993,-2.1849,-2.1837,-2.1969,-2.1777,-2.132,-2.1139,-2.1084,-2.088,0.1429,0.0752,0.0733,0.0039,-0.1047,-0.1211,-0.1329,-0.1639,-0.1604,-0.1491,-0.1335,-0.1336,-0.157,-0.1765,-0.1531,-0.1883,-0.2781,-0.3482,-0.4258,-0.5348,-0.5857,-0.6331,-0.6296,-0.6447,-0.6756,-0.6984,-0.6718,-0.6641,-0.7138,-0.7484,-0.8356,-0.9458,-1.003,-1.0588,-1.126,-1.175,-1.1861,-1.2009,-1.2194,-1.2335,-1.2409,-1.2636,-1.282,-1.301,-1.3229,-1.3768,-1.4446,-1.5188,-1.5991,-1.7035,-1.7765,-1.859,-1.9245,-1.9683,-2.0182,-2.072,-2.1051,-2.1253,-2.1336,-2.1388,-2.1557,-2.1769,-2.1894,-2.1987,-2.2154,-2.2197,-2.2197,-2.2197,-2.2197,-2.2247,-2.2389,-2.2278,-2.2278,-2.2328,-2.2328,-2.2309,-2.2359,-2.2309,-2.2197,-2.2197,-2.2197,-2.2197,-2.2197,-2.2197,-2.2197,-2.2197,-2.2197,-2.2197,-2.2197,-2.2197,-2.2197,-2.2197,-2.2197,-2.2197,-2.2197,-2.2197,-2.2197,-2.2197,-2.2197,-2.2197,-2.2197,-2.2197,-2.2197,-2.2197,-2.2197,-2.2149,-2.2089,-2.2029,-2.2084,-2.2151,-2.1964,-2.1795,-2.1711,-2.1643,-2.1527,0.0231,-0.0231,-0.0468,-0.0979,-0.1724,-0.1998,-0.2117,-0.2195,-0.2195,-0.2117,-0.1962,-0.1923,-0.2002,-0.2313,-0.2935,-0.3711,-0.4606,-0.4686,-0.5306,-0.6086,-0.644,-0.6563,-0.6451,-0.6563,-0.6714,-0.6907,-0.6753,-0.6984,-0.7706,-0.8585,-0.915,-0.9685,-1.0475,-1.1298,-1.1706,-1.1892,-1.2083,-1.2194,-1.2452,-1.2636,-1.2636,-1.29,-1.3083,-1.3302,-1.376,-1.4366,-1.4939,-1.5781,-1.6655,-1.7516,-1.8341,-1.909,-1.9705,-2.0279,-2.0688,-2.1126,-2.1285,-2.1336,-2.1431,-2.1514,-2.1769,-2.1862,-2.1968,-2.2092,-2.2154,-2.2197,-2.219,-2.2178,-2.2197,-2.2228,-2.2278,-2.2216,-2.2247,-2.2278,-2.2278,-2.2309,-2.234,-2.2309,-2.2302,-2.224,-2.2197,-2.2197,-2.2197,-2.2197,-2.2197,-2.2197,-2.2197,-2.2197,-2.2197,-2.2197,-2.2197,-2.2197,-2.2197,-2.2197,-2.2197,-2.2197,-2.2197,-2.2197,-2.2197,-2.2197,-2.2197,-2.2197,-2.2197,-2.2197,-2.2197,-2.2197,-2.2173,-2.2144,-2.2223,-2.2309,-2.2188,-2.2153,-2.222,-2.2183,-2.2054,-0.094,-0.1254,-0.1606,-0.1959,-0.2313,-0.2627,-0.2707,-0.2627,-0.2627,-0.2549,-0.251,-0.2627,-0.2744,-0.3134,-0.4146,-0.5386,-0.6588,-0.5815,-0.6047,-0.671,-0.6791,-0.6718,-0.6679,-0.6756,-0.6868,-0.7211,-0.7476,-0.7625,-0.8275,-0.9188,-0.9755,-1.0395,-1.1329,-1.1855,-1.204,-1.2157,-1.2231,-1.2378,-1.2599,-1.2716,-1.2863,-1.3083,-1.3375,-1.363,-1.4446,-1.5073,-1.5569,-1.6515,-1.7413,-1.8196,-1.8867,-1.9486,-2.0074,-2.0656,-2.1063,-2.1221,-2.1348,-2.1431,-2.1557,-2.1694,-2.1894,-2.1999,-2.1956,-2.203,-2.2183,-2.2181,-2.217,-2.2111,-2.1934,-2.1938,-2.1929,-2.1956,-2.1987,-2.208,-2.2216,-2.2364,-2.2411,-2.2416,-2.2392,-2.2337,-2.2277,-2.2221,-2.2234,-2.2197,-2.2197,-2.2197,-2.2197,-2.2197,-2.2197,-2.2197,-2.2197,-2.2197,-2.2197,-2.2197,-2.2197,-2.2197,-2.2197,-2.2197,-2.2197,-2.2197,-2.2197,-2.2197,-2.2197,-2.2197,-2.2197,-2.2197,-2.2197,-2.2247,-2.2309,-2.2371,-2.2432,-2.2457,-2.2476,-2.2524,-2.2499,-0.1646,-0.2313,-0.2353,-0.2863,-0.3489,-0.3567,-0.3374,-0.3061,-0.3061,-0.2824,-0.2705,-0.3136,-0.36,-0.4107,-0.4652,-0.5425,-0.5851,-0.6005,-0.6282,-0.7061,-0.7103,-0.6988,-0.6903,-0.7065,-0.7403,-0.7744,-0.8504,-0.8998,-0.9263,-0.9528,-1.0314,-1.1292,-1.1669,-1.2083,-1.2305,-1.2415,-1.2526,-1.2636,-1.2936,-1.32,-1.3353,-1.3426,-1.3674,-1.4093,-1.4697,-1.5392,-1.6105,-1.7079,-1.807,-1.8977,-1.9098,-1.9781,-2.0656,-2.0463,-2.0764,-2.1135,-2.142,-2.1526,-2.1726,-2.18,-2.1862,-2.1831,-2.1569,-2.1663,-2.1859,-2.2037,-2.1976,-2.1845,-2.146,-2.1311,-2.1435,-2.134,-2.1336,-2.1599,-2.193,-2.2404,-2.2631,-2.2496,-2.2468,-2.265,-2.2674,-2.2445,-2.2294,-2.2246,-2.2197,-2.2197,-2.2197,-2.2197,-2.2197,-2.2197,-2.2197,-2.2197,-2.2216,-2.2216,-2.2216,-2.2228,-2.2197,-2.2197,-2.2197,-2.2197,-2.2197,-2.2197,-2.2197,-2.2197,-2.2197,-2.2197,-2.2228,-2.2247,-2.2328,-2.2389,-2.2463,-2.2555,-2.2665,-2.2769,-2.2818,-0.2899,-0.3214,-0.3214,-0.345,-0.3763,-0.3802,-0.3684,-0.3608,-0.388,-0.3919,-0.3878,-0.438,-0.4963,-0.547,-0.5822,-0.6244,-0.6665,-0.6665,-0.6861,-0.7215,-0.7257,-0.7142,-0.7103,-0.718,-0.7557,-0.8237,-0.8808,-0.9523,-0.9976,-1.0651,-1.1285,-1.1589,-1.2114,-1.2459,-1.2599,-1.2716,-1.2753,-1.2863,-1.3046,-1.3266,-1.3492,-1.3739,-1.4057,-1.4581,-1.5498,-1.6271,-1.6941,-1.7672,-1.8687,-1.9485,-1.9528,-1.9955,-2.0828,-2.0892,-2.086,-2.072,-2.088,-2.1242,-2.1726,-2.158,-2.1561,-2.1423,-2.1022,-2.0812,-2.1256,-2.1597,-2.1565,-2.1186,-2.0963,-2.0919,-2.0985,-2.0929,-2.1174,-2.1473,-2.1737,-2.2261,-2.2678,-2.2632,-2.2596,-2.2852,-2.3011,-2.2683,-2.2407,-2.2313,-2.2252,-2.2197,-2.2228,-2.2216,-2.2197,-2.2197,-2.2197,-2.2197,-2.2247,-2.2309,-2.2278,-2.2247,-2.2247,-2.2216,-2.2197,-2.2197,-2.2197,-2.2197,-2.2197,-2.2197,-2.2197,-2.2197,-2.2228,-2.2247,-2.2309,-2.2402,-2.2463,-2.2586,-2.2678,-2.2708,-2.2769,-0.3882,-0.3999,-0.388,-0.3882,-0.4036,-0.3997,-0.4151,-0.4307,-0.4696,-0.489,-0.5085,-0.5547,-0.617,-0.6676,-0.6791,-0.7019,-0.7442,-0.7518,-0.7518,-0.7446,-0.7373,-0.7296,-0.7257,-0.733,-0.771,-0.8499,-0.9069,-0.9863,-1.0956,-1.1706,-1.1966,-1.1744,-1.2378,-1.268,-1.2863,-1.2936,-1.301,-1.3083,-1.32,-1.3419,-1.3702,-1.4086,-1.4625,-1.5392,-1.6402,-1.7379,-1.7731,-1.8586,-1.9419,-1.9495,-1.9396,-1.9649,-2.0484,-2.0226,-2.0238,-2.0271,-2.05,-2.0906,-2.1274,-2.1261,-2.105,-2.0958,-2.0775,-2.0661,-2.0472,-2.0976,-2.1315,-2.093,-2.084,-2.0762,-2.0698,-2.0732,-2.0998,-2.1275,-2.1545,-2.2125,-2.256,-2.2469,-2.2411,-2.2518,-2.2686,-2.2774,-2.2552,-2.2378,-2.2277,-2.224,-2.2216,-2.2247,-2.2216,-2.2154,-2.2197,-2.2197,-2.2216,-2.2278,-2.2247,-2.2247,-2.2247,-2.2247,-2.2228,-2.2197,-2.2197,-2.2197,-2.2197,-2.2197,-2.2197,-2.2197,-2.2197,-2.2247,-2.2278,-2.2402,-2.2494,-2.2586,-2.2647,-2.2678,-2.2739,-0.4155,-0.4584,-0.4036,-0.4153,-0.4621,-0.4623,-0.4968,-0.5312,-0.547,-0.5586,-0.5741,-0.6209,-0.6868,-0.7253,-0.733,-0.7403,-0.7518,-0.7518,-0.7518,-0.748,-0.748,-0.7446,-0.7484,-0.7633,-0.8012,-0.8846,-0.9636,-1.0576,-1.144,-1.2378,-1.2562,-1.2599,-1.2753,-1.282,-1.2973,-1.3127,-1.3309,-1.3419,-1.3528,-1.3702,-1.4093,-1.4553,-1.5152,-1.5991,-1.7154,-1.8007,-1.7808,-1.8934,-1.9649,-1.9429,-1.9127,-1.9145,-1.9799,-1.9509,-1.9609,-2.0035,-2.0234,-2.0631,-2.093,-2.0796,-2.0697,-2.1043,-2.1105,-2.061,-2.006,-2.1006,-2.1289,-2.0964,-2.0885,-2.0794,-2.0762,-2.0773,-2.1058,-2.12,-2.155,-2.2076,-2.2371,-2.224,-2.2213,-2.2241,-2.2342,-2.2485,-2.2313,-2.2078,-2.2435,-2.2407,-2.2228,-2.2247,-2.2142,-2.2111,-2.2216,-2.2216,-2.2216,-2.2216,-2.2197,-2.2216,-2.2278,-2.2247,-2.2197,-2.2197,-2.2197,-2.2197,-2.2197,-2.2197,-2.2197,-2.2197,-2.2197,-2.2247,-2.2309,-2.2402,-2.2494,-2.2555,-2.2647,-2.2678,-2.2757,-0.4504,-0.4701,-0.4813,-0.5043,-0.524,-0.5279,-0.5392,-0.5664,-0.6012,-0.644,-0.6745,-0.7057,-0.7292,-0.7442,-0.7518,-0.7518,-0.7518,-0.7518,-0.7518,-0.7518,-0.7518,-0.7518,-0.7633,-0.8203,-0.8846,-0.9674,-1.0645,-1.1552,-1.2342,-1.2863,-1.2973,-1.301,-1.3046,-1.3156,-1.3273,-1.3346,-1.3564,-1.3775,-1.3884,-1.4057,-1.4425,-1.484,-1.5436,-1.6237,-1.6811,-1.7867,-1.8452,-1.8844,-1.9386,-1.9625,-1.9326,-1.9411,-1.962,-1.9398,-1.96,-1.9949,-2.0075,-2.0262,-2.0447,-2.0269,-2.0202,-1.9853,-2.0154,-2.028,-1.9834,-2.0599,-2.0777,-2.0724,-2.1001,-2.1051,-2.0709,-2.1052,-2.1441,-2.1356,-2.1565,-2.1987,-2.2127,-2.2002,-2.2017,-2.2067,-2.2167,-2.2278,-2.1991,-2.1688,-2.2185,-2.2603,-2.2402,-2.2173,-2.2037,-2.2099,-2.2216,-2.2247,-2.2216,-2.2216,-2.2197,-2.2247,-2.2278,-2.2216,-2.2197,-2.2197,-2.2197,-2.2197,-2.2197,-2.2197,-2.2197,-2.2197,-2.2197,-2.2216,-2.2278,-2.2309,-2.2432,-2.2512,-2.2604,-2.2665,-2.2696,-0.5087,-0.5321,-0.5705,-0.5896,-0.5896,-0.5896,-0.6012,-0.6244,-0.6633,-0.7061,-0.7518,-0.7518,-0.7518,-0.7518,-0.7518,-0.7518,-0.7518,-0.7518,-0.7518,-0.7557,-0.7638,-0.7748,-0.8165,-0.8803,-0.9636,-1.0608,-1.1354,-1.2144,-1.29,-1.3193,-1.3273,-1.3273,-1.3309,-1.3382,-1.3455,-1.363,-1.3811,-1.4021,-1.4238,-1.4418,-1.4784,-1.5436,-1.5987,-1.6802,-1.7546,-1.8117,-1.8825,-1.9116,-1.9424,-1.9637,-1.9591,-1.9525,-1.9731,-1.9958,-2.0046,-2.001,-1.9945,-1.9999,-2.0155,-2.014,-1.9972,-1.9482,-1.9895,-2.0094,-2.0145,-2.0473,-2.0794,-2.0631,-2.1106,-2.1366,-2.0934,-2.1331,-2.149,-2.1425,-2.1288,-2.1594,-2.1755,-2.1774,-2.1829,-2.1898,-2.1968,-2.1962,-2.1988,-2.1689,-2.1599,-2.1992,-2.1891,-2.1757,-2.1714,-2.1882,-2.2247,-2.2247,-2.2247,-2.2216,-2.2216,-2.2216,-2.2216,-2.2216,-2.2197,-2.2197,-2.2197,-2.2197,-2.2197,-2.2197,-2.2197,-2.2197,-2.2185,-2.2185,-2.2185,-2.2197,-2.2309,-2.2402,-2.2512,-2.2574,-2.2586,-0.5938,-0.6521,-0.6563,-0.656,-0.656,-0.6602,-0.6868,-0.7211,-0.7365,-0.7442,-0.7518,-0.7518,-0.7518,-0.7518,-0.7518,-0.7518,-0.7518,-0.7561,-0.7561,-0.7676,-0.8093,-0.8437,-0.896,-0.9593,-1.049,-1.144,-1.207,-1.2622,-1.3193,-1.3346,-1.3455,-1.3492,-1.3492,-1.3564,-1.3572,-1.3884,-1.4057,-1.4173,-1.4497,-1.4856,-1.54,-1.6194,-1.6785,-1.7469,-1.8248,-1.8733,-1.8948,-1.9393,-1.9598,-1.9558,-1.9469,-1.9598,-2.0008,-1.9891,-2.0038,-2.0303,-2.0108,-2.0314,-2.0828,-2.0713,-2.0152,-1.9627,-2.0145,-2.0496,-2.0631,-2.0893,-2.1094,-2.0849,-2.1451,-2.1675,-2.159,-2.1538,-2.1603,-2.1433,-2.1282,-2.1254,-2.1436,-2.1464,-2.1521,-2.1515,-2.1496,-2.1564,-2.1782,-2.1772,-2.1308,-2.1263,-2.1277,-2.1296,-2.1397,-2.1887,-2.2385,-2.2247,-2.2216,-2.2216,-2.2197,-2.2197,-2.2197,-2.2197,-2.2197,-2.2197,-2.2197,-2.2197,-2.2197,-2.2166,-2.1999,-2.1831,-2.1987,-2.2123,-2.1831,-2.1537,-2.2061,-2.2278,-2.2402,-2.2482,-2.2525,-0.6405,-0.6641,-0.7022,-0.7176,-0.7215,-0.7176,-0.733,-0.7484,-0.7518,-0.7518,-0.7518,-0.7518,-0.7518,-0.7518,-0.7518,-0.7561,-0.7561,-0.7829,-0.791,-0.8021,-0.8661,-0.9107,-0.9669,-1.0565,-1.1415,-1.1983,-1.2542,-1.2996,-1.3382,-1.3499,-1.3492,-1.3528,-1.3783,-1.3876,-1.3912,-1.4093,-1.4274,-1.4776,-1.5122,-1.5499,-1.6167,-1.6693,-1.7178,-1.7706,-1.8322,-1.8721,-1.9008,-1.9521,-1.9607,-1.9697,-1.9713,-2.0038,-2.0562,-2.0561,-2.0931,-2.1423,-2.1508,-2.1716,-2.1511,-2.1046,-2.0526,-2.0379,-2.0447,-2.0809,-2.1001,-2.1113,-2.1143,-2.125,-2.1697,-2.1755,-2.1461,-2.188,-2.1918,-2.1415,-2.1215,-2.1215,-2.1282,-2.1128,-2.1078,-2.1019,-2.103,-2.0852,-2.0974,-2.1565,-2.1371,-2.1446,-2.1565,-2.1306,-2.1282,-2.2104,-2.2722,-2.2361,-2.2197,-2.2197,-2.2197,-2.2197,-2.2092,-2.1999,-2.2092,-2.2197,-2.2197,-2.1968,-2.1999,-2.1862,-2.1663,-2.1463,-2.1431,-2.1336,-2.0944,-2.0848,-2.1411,-2.1925,-2.2142,-2.2328,-2.2482,-0.6714,-0.6945,-0.7326,-0.7518,-0.7518,-0.7518,-0.7518,-0.7518,-0.7518,-0.7518,-0.7518,-0.7518,-0.7599,-0.7676,-0.7714,-0.7868,-0.7944,-0.8174,-0.8551,-0.8661,-0.9377,-1.0008,-1.0752,-1.1576,-1.2204,-1.2622,-1.3032,-1.3492,-1.3455,-1.3492,-1.3593,-1.3775,-1.4065,-1.4346,-1.4453,-1.4589,-1.4705,-1.521,-1.5579,-1.615,-1.6654,-1.7147,-1.7655,-1.7983,-1.8373,-1.8711,-1.9137,-1.9447,-1.9588,-2.0025,-2.0342,-2.066,-2.1207,-2.1434,-2.1697,-2.2131,-2.2101,-2.1945,-2.1275,-2.0952,-2.0566,-2.0556,-2.0741,-2.0858,-2.1012,-2.1011,-2.1136,-2.1349,-2.1749,-2.1711,-2.1568,-2.2042,-2.1749,-2.1205,-2.1138,-2.1138,-2.1061,-2.0896,-2.0819,-2.076,-2.0769,-2.0514,-2.0528,-2.0988,-2.1418,-2.1688,-2.1936,-2.1596,-2.1351,-2.2228,-2.2782,-2.2337,-2.2114,-2.2109,-2.2128,-2.2197,-2.2061,-2.1862,-2.1831,-2.18,-2.1411,-2.1083,-2.1305,-2.1463,-2.1071,-2.0741,-2.0677,-2.0484,-2.0291,-2.0355,-2.0752,-2.1273,-2.1745,-2.187,-2.1932,-0.6988,-0.748,-0.7518,-0.7599,-0.7561,-0.7633,-0.7595,-0.7557,-0.7557,-0.7595,-0.7599,-0.7633,-0.7829,-0.8063,-0.8102,-0.8327,-0.8703,-0.8775,-0.9188,-0.9674,-1.0314,-1.1019,-1.1687,-1.2365,-1.2849,-1.3229,-1.3528,-1.3528,-1.3528,-1.371,-1.3884,-1.4165,-1.4497,-1.4848,-1.5062,-1.5279,-1.5367,-1.5726,-1.628,-1.6797,-1.719,-1.7796,-1.8208,-1.8541,-1.8887,-1.919,-1.9511,-1.9647,-1.9744,-2.0043,-2.0377,-2.1162,-2.1533,-2.146,-2.1731,-2.1839,-2.1581,-2.123,-2.0979,-2.0828,-2.0605,-2.0615,-2.0615,-2.0605,-2.0731,-2.0935,-2.1061,-2.1099,-2.1349,-2.1502,-2.1617,-2.1464,-2.131,-2.1089,-2.1012,-2.0935,-2.0896,-2.078,-2.0693,-2.0683,-2.0789,-2.0806,-2.1082,-2.1432,-2.1545,-2.1738,-2.1985,-2.2018,-2.1918,-2.2475,-2.2763,-2.2098,-2.1948,-2.1993,-2.1989,-2.178,-2.1506,-2.1146,-2.1071,-2.1008,-2.0549,-2.0366,-2.0624,-2.0677,-2.0291,-1.9998,-1.9737,-1.9737,-1.9835,-1.9966,-1.9901,-2.0366,-2.0773,-2.0805,-2.0794,-0.7753,-0.7949,-0.8246,-0.836,-0.836,-0.836,-0.8212,-0.7987,-0.8212,-0.8356,-0.836,-0.836,-0.8399,-0.8518,-0.8513,-0.8889,-0.9263,-0.9679,-1.0132,-1.0694,-1.1329,-1.1966,-1.2482,-1.2929,-1.3309,-1.3419,-1.3528,-1.3674,-1.3956,-1.4101,-1.4461,-1.4883,-1.4995,-1.5336,-1.5757,-1.6098,-1.6201,-1.6456,-1.7074,-1.7452,-1.7787,-1.8357,-1.8736,-1.9042,-1.9279,-1.9539,-1.967,-1.9947,-2.009,-2.0454,-2.0578,-2.1067,-2.1453,-2.1618,-2.1913,-2.2555,-2.2105,-2.1539,-2.1375,-2.0905,-2.0615,-2.0615,-2.0615,-2.0722,-2.0838,-2.0935,-2.1022,-2.1022,-2.1012,-2.1156,-2.1195,-2.1079,-2.1002,-2.0964,-2.0886,-2.0858,-2.077,-2.0693,-2.0605,-2.0683,-2.0789,-2.1126,-2.1423,-2.1593,-2.169,-2.1838,-2.1949,-2.2011,-2.2215,-2.265,-2.2624,-2.1964,-2.166,-2.1653,-2.1199,-2.0949,-2.0683,-2.042,-2.0366,-2.0302,-2.0063,-1.9933,-2.0063,-1.9901,-1.954,-1.9088,-1.8596,-1.8731,-1.9054,-1.8731,-1.8697,-1.9253,-1.9715,-1.977,-1.9857,-0.8136,-0.8365,-0.8589,-0.8703,-0.8742,-0.8894,-0.8784,-0.8637,-0.8665,-0.8703,-0.8703,-0.8665,-0.878,-0.8937,-0.8975,-0.9344,-1.0094,-1.0319,-1.0812,-1.1744,-1.2298,-1.2636,-1.301,-1.3273,-1.3419,-1.3528,-1.3674,-1.3884,-1.4209,-1.4633,-1.4991,-1.515,-1.5411,-1.5886,-1.6345,-1.6893,-1.7276,-1.7477,-1.7778,-1.8154,-1.8459,-1.8813,-1.9187,-1.9365,-1.9548,-1.9728,-1.9985,-2.0287,-2.0438,-2.0737,-2.0798,-2.1056,-2.1462,-2.1722,-2.1555,-2.1952,-2.1545,-2.1201,-2.1098,-2.0867,-2.0644,-2.0615,-2.0615,-2.0644,-2.076,-2.0848,-2.0896,-2.0945,-2.0858,-2.0809,-2.0809,-2.0809,-2.0809,-2.0838,-2.0809,-2.0731,-2.0693,-2.0644,-2.0683,-2.0712,-2.0972,-2.1308,-2.1576,-2.168,-2.1794,-2.1832,-2.1707,-2.16,-2.1818,-2.2168,-2.2105,-2.1651,-2.137,-2.1226,-2.0758,-2.0394,-2.019,-1.9974,-1.9725,-1.9615,-1.9495,-1.9287,-1.9121,-1.8988,-1.8865,-1.8472,-1.8168,-1.811,-1.8236,-1.8008,-1.8008,-1.8506,-1.8898,-1.8888,-1.9021,-0.8241,-0.8742,-0.8775,-0.8856,-0.8856,-0.9203,-0.9322,-0.9322,-0.9008,-0.8818,-0.8856,-0.8813,-0.9051,-0.9354,-0.9506,-1.003,-1.07,-1.1074,-1.1669,-1.2643,-1.2709,-1.301,-1.3309,-1.3572,-1.3666,-1.3739,-1.392,-1.4201,-1.4433,-1.4964,-1.5425,-1.535,-1.5981,-1.6497,-1.6867,-1.7526,-1.7935,-1.819,-1.8355,-1.8613,-1.8754,-1.9169,-1.9597,-1.9636,-1.9786,-1.9965,-2.0396,-2.0528,-2.0485,-2.0829,-2.1061,-2.1232,-2.1398,-2.1542,-2.1221,-2.1049,-2.0867,-2.0838,-2.0799,-2.0683,-2.0644,-2.0615,-2.0615,-2.0605,-2.0693,-2.0731,-2.078,-2.078,-2.0731,-2.077,-2.077,-2.077,-2.077,-2.0809,-2.077,-2.0731,-2.0683,-2.0644,-2.0644,-2.0722,-2.0867,-2.1203,-2.1242,-2.1346,-2.1318,-2.1538,-2.1489,-2.1239,-2.1366,-2.1681,-2.157,-2.1314,-2.0963,-2.0751,-2.0628,-2.0268,-1.9954,-1.9667,-1.9259,-1.8916,-1.8741,-1.8405,-1.8076,-1.8236,-1.8438,-1.8236,-1.8042,-1.8008,-1.8008,-1.8008,-1.8008,-1.8008,-1.811,-1.8269,-1.8371,-0.9013,-0.9203,-0.9501,-0.9614,-0.9614,-0.9728,-0.9733,-0.9733,-0.9652,-0.9576,-0.9614,-0.9614,-0.9657,-0.9803,-1.0218,-1.0812,-1.1409,-1.1818,-1.2562,-1.301,-1.3193,-1.3266,-1.3564,-1.3775,-1.392,-1.4057,-1.431,-1.4697,-1.5145,-1.5674,-1.608,-1.6096,-1.6576,-1.6931,-1.7303,-1.7947,-1.8336,-1.8634,-1.8855,-1.9081,-1.9303,-1.9397,-1.9636,-1.9833,-2.0031,-2.0158,-2.0503,-2.0744,-2.0808,-2.1025,-2.1009,-2.0968,-2.0894,-2.0885,-2.0828,-2.0644,-2.0615,-2.0615,-2.0615,-2.0615,-2.0615,-2.0615,-2.0615,-2.0615,-2.0615,-2.0615,-2.0615,-2.0654,-2.0693,-2.0731,-2.0722,-2.0731,-2.0731,-2.0731,-2.0741,-2.0731,-2.0683,-2.0644,-2.0615,-2.0683,-2.0838,-2.0905,-2.0944,-2.0944,-2.0905,-2.0867,-2.0867,-2.0779,-2.0818,-2.1024,-2.1108,-2.0849,-2.0413,-2.0209,-2.0242,-2.0103,-1.9778,-1.9253,-1.8833,-1.8424,-1.8071,-1.8008,-1.8008,-1.8008,-1.8042,-1.8008,-1.8008,-1.8008,-1.8008,-1.8008,-1.8008,-1.8008,-1.8008,-1.8144,-1.8076,-0.9582,-0.9582,-0.9809,-0.9884,-0.9884,-0.9884,-0.9884,-0.9884,-0.9884,-0.9884,-0.996,-1.0143,-1.0293,-1.0368,-1.0925,-1.1484,-1.204,-1.2409,-1.2863,-1.3309,-1.3564,-1.363,-1.3811,-1.4021,-1.4165,-1.4361,-1.4948,-1.5425,-1.5942,-1.6283,-1.661,-1.6727,-1.7104,-1.7444,-1.7831,-1.824,-1.8641,-1.8999,-1.921,-1.9441,-1.9676,-1.9754,-1.9872,-2.0069,-2.0255,-2.043,-2.0581,-2.0829,-2.0886,-2.0914,-2.088,-2.0759,-2.0672,-2.0683,-2.0644,-2.0605,-2.0615,-2.0615,-2.0615,-2.0615,-2.0615,-2.0615,-2.0615,-2.0615,-2.0615,-2.0615,-2.0615,-2.0615,-2.0615,-2.0644,-2.0644,-2.0654,-2.0654,-2.0654,-2.0654,-2.0654,-2.0644,-2.0605,-2.0615,-2.0644,-2.0722,-2.0722,-2.076,-2.076,-2.0722,-2.0722,-2.0605,-2.0605,-2.0605,-2.0615,-2.0615,-2.0556,-2.0254,-2.0185,-2.0393,-2.0054,-1.9535,-1.9007,-1.8525,-1.8281,-1.8105,-1.8037,-1.8008,-1.8008,-1.8008,-1.8008,-1.8008,-1.8008,-1.8008,-1.8008,-1.8008,-1.8008,-1.8008,-1.8008,-1.8008,-0.9884,-0.9884,-0.9884,-0.9884,-0.9884,-0.9884,-0.9884,-0.9884,-0.9884,-0.9884,-1.003,-1.0625,-1.085,-1.0999,-1.1558,-1.2077,-1.2526,-1.2746,-1.3119,-1.3492,-1.3601,-1.3848,-1.4093,-1.4274,-1.4617,-1.5118,-1.5675,-1.6274,-1.6885,-1.7107,-1.724,-1.7369,-1.7672,-1.8021,-1.8314,-1.868,-1.9018,-1.9189,-1.9371,-1.9578,-1.9745,-1.9902,-2.0059,-2.0294,-2.0498,-2.0735,-2.0805,-2.0785,-2.0779,-2.0789,-2.0781,-2.0681,-2.0615,-2.0615,-2.0615,-2.0615,-2.0615,-2.0615,-2.0615,-2.0615,-2.0615,-2.0615,-2.0615,-2.0615,-2.0615,-2.0615,-2.0615,-2.0615,-2.0615,-2.0615,-2.0615,-2.0615,-2.0615,-2.0615,-2.0615,-2.0615,-2.0615,-2.0615,-2.0615,-2.0615,-2.0615,-2.0615,-2.0615,-2.0615,-2.0615,-2.0615,-2.0615,-2.0615,-2.0615,-2.0615,-2.0615,-2.0615,-2.0498,-2.0488,-2.0537,-2.0117,-1.959,-1.916,-1.875,-1.8428,-1.8174,-1.8066,-1.8008,-1.8008,-1.8008,-1.8008,-1.8008,-1.8008,-1.8008,-1.8008,-1.8008,-1.8008,-1.8008,-1.8008,-1.8008,-0.9884,-0.9884,-0.9884,-0.9884,-0.9884,-0.9884,-0.9884,-0.9884,-0.9884,-0.9884,-1.0143,-1.0962,-1.1298,-1.085,-1.2009,-1.2562,-1.2636,-1.2966,-1.3513,-1.392,-1.3956,-1.4201,-1.4513,-1.4856,-1.5411,-1.5965,-1.6478,-1.6908,-1.7409,-1.769,-1.7798,-1.7747,-1.8285,-1.8589,-1.8806,-1.9042,-1.9112,-1.9311,-1.9508,-1.9666,-1.9824,-1.9981,-2.0177,-2.0372,-2.0566,-2.0634,-2.0653,-2.0634,-2.0663,-2.0653,-2.0643,-2.0634,-2.0615,-2.0615,-2.0615,-2.0615,-2.0615,-2.0615,-2.0615,-2.0615,-2.0615,-2.0615,-2.0615,-2.0615,-2.0615,-2.0615,-2.0615,-2.0615,-2.0615,-2.0615,-2.0615,-2.0615,-2.0615,-2.0615,-2.0615,-2.0615,-2.0615,-2.0615,-2.0615,-2.0615,-2.0615,-2.0615,-2.0615,-2.0615,-2.0615,-2.0615,-2.0615,-2.0615,-2.0615,-2.0615,-2.0615,-2.0615,-2.0615,-2.0605,-2.0586,-2.0254,-1.9795,-1.9375,-1.8926,-1.8496,-1.8193,-1.8057,-1.8008,-1.8008,-1.8008,-1.8008,-1.8008,-1.8008,-1.8008,-1.8008,-1.8008,-1.8008,-1.8008,-1.8008,-1.8008]},{"header":{"parameterUnit":"m.s-1","parameterCategory":1,"la1":31.0,"la2":29.5877,"lo1":-88.7671,"lo2":-86.6584,"dx":0.0162,"dy":0.0185,"nx":115,"ny":88,"refTime":"2022-12-01T06:00:00:Z","depth":0,"parameterNumber":3,"parameterNumberName":"V-component_of_WINDS"},"data":[0.0,0.0,0.0,0.0,0.0,0.0,0.0,0.0,0.0,0.0,0.0,0.0,0.0,0.0,0.0,0.0,0.0,0.0,0.0,0.0,0.0,0.0,0.0,0.0,0.0,0.0,0.0,0.0,0.0,0.0,0.0,0.0,0.0,0.0,0.0,0.0,0.0,0.0,0.0,0.0,0.0,0.0,0.0,0.0,0.0,0.0,0.0,0.0,0.0,0.0,0.0,0.0,0.0,0.0,0.0,0.0,0.0,0.0,0.0,0.0,0.0,0.0,0.0,0.0,0.0,0.0,0.0,0.0,0.0,0.0,0.0,0.0,0.0,0.0,0.0,0.0,0.0,0.0,0.0,0.0,0.0,0.0,0.0,0.0,0.0,0.0,0.0,0.0,0.0,0.0,0.0,0.0,0.0,0.0,0.0,0.0,0.0,0.0,0.0,0.0,0.0,0.0,0.0,0.0,0.0,0.0,0.0,0.0,0.0,0.0,0.0,0.0,0.0,0.0,0.0,0.0,0.0,0.0,0.0,0.0,0.0,0.0,0.0,0.0,0.0,0.0,0.0,0.0,0.0,0.0,0.0,0.0,0.0,0.0,0.0,0.0,0.0,0.0,0.0,0.0,0.0,0.0,0.0,0.0,0.0,0.0,0.0,0.0,0.0,0.0,0.0,0.0,0.0,0.0,0.0,0.0,0.0,0.0,0.0,0.0,0.0,0.0,0.0,0.0,0.0,0.0,0.0,0.0,0.0,0.0,0.0,0.0,0.0,0.0,0.0,0.0,0.0,0.0,0.0,0.0,0.0,0.0,0.0,0.0,0.0,0.0,0.0,0.0,0.0,0.0,0.0,0.0,0.0,0.0,0.0,0.0,0.0,0.0,0.0,0.0,0.0,0.0,0.0,0.0,0.0,0.0,0.0,0.0,0.0,0.0,0.0,0.0,0.0,0.0,0.0,0.0,0.0,0.0,0.0,0.0,0.0,0.0,0.0,0.0,0.0,0.0,0.0,0.0,0.0,0.0,0.0,0.0,0.0,0.0,0.0,0.0,0.0,0.0,0.0,0.0,0.0,0.0,0.0,0.0,0.0,0.0,0.0,0.0,0.0,0.0,0.0,0.0,0.0,0.0,0.0,0.0,0.0,0.0,0.0,0.0,0.0,0.0,0.0,0.0,0.0,0.0,0.0,0.0,0.0,0.0,0.0,0.0,0.0,0.0,0.0,0.0,0.0,0.0,0.0,0.0,0.0,0.0,0.0,0.0,0.0,0.0,0.0,0.0,0.0,0.0,0.0,0.0,0.0,0.0,0.0,0.0,0.0,0.0,0.0,0.0,0.0,0.0,0.0,0.0,0.0,0.0,0.0,0.0,0.0,0.0,0.0,0.0,0.0,0.0,0.0,0.0,0.0,0.0,0.0,0.0,0.0,0.0,0.0,0.0,0.0,0.0,0.0,0.0,0.0,0.0,0.0,0.0,0.0,0.0,0.0,0.0,0.0,0.0,0.0,0.0,0.0,0.0,0.0,0.0,0.0,0.0,0.0,0.0,0.0,0.0,0.0,0.0,0.0,0.0,0.0,0.0,0.0,0.0,0.0,0.0,0.0,0.0,0.0,0.0,0.0,0.0,0.0,0.0,0.0,0.0,0.0,0.0,0.0,0.0,0.0,0.0,0.0,0.0,0.0,0.0,0.0,0.0,0.0,0.0,0.0,0.0,0.0,0.0,0.0,0.0,0.0,0.0,0.0,0.0,0.0,0.0,0.0,0.0,0.0,0.0,0.0,0.0,0.0,0.0,0.0,0.0,0.0,0.0,0.0,0.0,0.0,0.0,0.0,0.0,0.0,0.0,0.0,0.0,0.0,0.0,0.0,0.0,0.0,0.0,0.0,0.0,0.0,0.0,0.0,0.0,0.0,0.0,0.0,0.0,0.0,0.0,0.0,0.0,0.0,0.0,0.0,0.0,0.0,0.0,0.0,0.0,0.0,0.0,0.0,0.0,0.0,0.0,0.0,0.0,0.0,0.0,0.0,0.0,0.0,0.0,0.0,0.0,0.0,0.0,0.0,0.0,0.0,0.0,0.0,0.0,0.0,0.0,0.0,0.0,0.0,0.0,0.0,0.0,0.0,0.0,0.0,0.0,0.0,0.0,0.0,0.0,0.0,0.0,0.0,0.0,0.0,0.0,0.0,0.0,0.0,0.0,0.0,0.0,0.0,0.0,0.0,0.0,0.0,0.0,0.0,0.0,0.0,0.0,0.0,0.0,0.0,0.0,0.0,0.0,0.0,0.0,0.0,0.0,0.0,0.0,0.0,0.0,0.0,0.0,0.0,0.0,0.0,0.0,0.0,0.0,0.0,0.0,0.0,0.0,0.0,0.0,0.0,0.0,0.0,0.0,0.0,0.0,0.0,0.0,0.0,0.0,0.0,0.0,0.0,0.0,0.0,0.0,0.0,0.0,0.0,0.0,0.0,0.0,0.0,0.0,0.0,0.0,0.0,0.0,0.0,0.0,0.0,0.0,0.0,0.0,0.0,0.0,0.0,0.0,0.0,0.0,0.0,0.0,0.0,0.0,0.0,0.0,0.0,0.0,0.0,0.0,0.0,0.0,0.0,0.0,0.0,0.0,0.0,0.0,0.0,0.0,0.0,0.0,0.0,0.0,0.0,0.0,0.0,0.0,0.0,0.0,0.0,0.0,0.0,0.0,0.0,0.0,0.0,0.0,0.0,0.0,0.0,0.0,0.0,0.0,0.0,0.0,0.0,0.0,0.0,0.0,0.0,0.0,0.0,0.0,0.0,0.0,0.0,0.0,0.0,0.0,0.0,0.0,0.0,0.0,0.0,0.0,0.0,0.0,0.0,0.0,0.0,0.0,0.0,0.0,0.0,0.0,0.0,0.0,0.0,0.0,0.0,0.0,0.0,0.0,0.0,0.0,0.0,0.0,0.0,0.0,0.0,0.0,0.0,0.0,0.0,0.0,0.0,0.0,0.0,0.0,0.0,0.0,0.0,0.0,0.0,0.0,0.0,0.0,0.0,0.0,0.0,0.0,0.0,0.0,0.0,0.0,0.0,0.0,0.0,0.0,0.0,0.0,0.0,0.0,0.0,0.0,0.0,0.0,0.0,0.0,0.0,0.0,0.0,0.0,0.0,0.0,0.0,0.0,0.0,0.0,0.0,0.0,0.0,0.0,0.0,0.0,0.0,0.0,0.0,0.0,0.0,0.0,0.0,0.0,0.0,0.0,0.0,0.0,0.0,0.0,0.0,0.0,0.0,0.0,0.0,0.0,0.0,0.0,0.0,0.0,0.0,0.0,0.0,0.0,0.0,0.0,0.0,0.0,0.0,0.0,0.0,0.0,0.0,0.0,0.0,0.0,0.0,0.0,0.0,0.0,0.0,0.0,0.0,0.0,0.0,0.0,0.0,0.0,0.0,0.0,0.0,0.0,0.0,0.0,0.0,0.0,0.0,0.0,0.0,0.0,0.0,0.0,0.0,0.0,0.0,0.0,0.0,0.0,0.0,0.0,0.0,0.0,0.0,0.0,0.0,0.0,0.0,0.0,0.0,0.0,0.0,0.0,0.0,0.0,0.0,0.0,0.0,0.0,0.0,0.0,0.0,0.0,0.0,0.0,0.0,0.0,0.0,0.0,0.0,0.0,0.0,0.0,0.0,0.0,0.0,0.0,0.0,0.0,0.0,0.0,0.0,0.0,0.0,0.0,0.0,0.0,0.0,0.0,0.0,0.0,0.0,0.0,0.0,0.0,0.0,0.0,0.0,0.0,0.0,0.0,0.0,0.0,0.0,0.0,0.0,0.0,0.0,0.0,0.0,0.0,0.0,0.0,0.0,0.0,0.0,0.0,0.0,0.0,0.0,0.0,0.0,0.0,0.0,0.0,0.0,0.0,0.0,0.0,0.0,0.0,0.0,0.0,0.0,0.0,0.0,0.0,0.0,0.0,0.0,0.0,0.0,0.0,0.0,0.0,0.0,0.0,0.0,0.0,0.0,0.0,0.0,0.0,0.0,0.0,0.0,0.0,0.0,0.0,0.0,0.0,0.0,0.0,0.0,0.0,0.0,0.0,0.0,0.0,0.0,0.0,0.0,0.0,0.0,0.0,0.0,0.0,0.0,0.0,0.0,0.0,0.0,0.0,0.0,0.0,0.0,0.0,0.0,0.0,0.0,0.0,0.0,0.0,0.0,0.0,0.0,0.0,0.0,0.0,0.0,0.0,0.0,0.0,0.0,0.0,0.0,0.0,0.9786,0.0,0.0,0.0,0.9773,0.0,0.0,0.0,0.0,0.0,0.0,0.0,0.0,0.0,0.0,0.0,0.0,0.0,0.0,0.0,0.0,0.0,0.0,0.0,0.0,0.0,0.0,0.0,0.0,0.0,0.0,0.0,0.0,0.0,0.0,0.0,0.0,0.0,0.0,0.0,0.0,0.0,0.0,0.0,0.0,0.0,0.0,0.0,0.0,0.0,0.0,0.0,0.0,0.0,0.0,0.0,0.0,0.0,0.0,0.0,0.0,0.0,0.0,0.0,0.0,0.0,0.0,0.0,0.0,0.0,0.0,0.0,0.0,0.0,0.0,0.0,0.0,0.0,0.0,0.0,0.0,0.0,0.0,0.0,0.0,0.0,0.0,0.0,0.0,0.0,0.0,0.0,0.0,0.0,0.0,0.0,0.0,0.0,0.0,0.0,0.0,0.0,0.0,0.0,0.0,0.0,0.0,0.0,0.0,0.0,0.0,0.0,0.0,0.0,0.0,1.0,0.915,1.0686,1.097,0.9784,0.0,0.0,0.0,0.0,0.0,0.0,0.0,0.0,0.0,0.0,0.0,0.0,0.0,0.0,0.0,0.0,0.0,0.0,0.0,0.0,0.0,0.0,0.0,0.0,0.0,0.0,0.0,0.0,0.0,0.0,0.0,0.0,0.0,0.0,0.0,0.0,0.0,0.0,0.0,0.0,0.0,0.0,0.0,0.0,0.0,0.0,0.0,0.0,0.0,0.0,0.0,0.0,0.0,0.0,0.0,0.0,0.0,0.0,0.0,0.0,0.0,0.0,0.0,0.0,0.0,0.0,0.0,0.0,0.0,0.0,0.0,0.0,0.0,0.0,0.0,0.0,0.0,0.0,0.0,0.0,0.0,0.0,0.0,0.0,0.0,0.0,0.0,0.0,0.0,0.0,0.0,0.0,0.0,0.0,0.0,0.0,0.0,0.0,0.0,0.0,0.0,0.0,0.0,0.0,0.0,0.0,0.0,0.0,0.0,0.0,0.0,0.0,1.1143,1.1492,1.0479,0.0,0.0,0.0,0.0,0.0,0.0,0.0,0.0,0.0,0.0,0.0,0.0,0.0,0.0,0.0,0.0,0.0,0.0,0.0,0.0,0.0,0.0,0.0,0.0,0.0,0.0,0.0,0.0,0.0,0.0,0.0,0.0,0.0,0.0,0.0,0.0,0.0,0.0,0.0,0.0,0.0,0.0,0.0,0.0,0.0,0.0,0.0,0.0,0.0,0.0,0.0,0.0,0.0,0.0,0.0,0.0,0.0,0.0,0.0,0.0,0.0,0.0,0.0,0.0,0.0,0.0,0.0,0.0,0.0,0.0,0.0,0.0,0.0,0.0,0.0,0.0,0.0,0.0,0.0,0.0,0.0,0.0,0.0,0.0,0.0,0.0,0.0,0.0,0.0,0.0,0.0,0.0,0.0,0.0,0.0,0.0,0.0,0.0,0.0,0.0,0.0,0.0,0.0,0.0,0.0,0.0,0.0,0.0,0.0,0.0,1.014,1.1256,1.1849,0.0,1.1982,0.0,0.0,0.0,0.0,0.0,0.0,0.0,0.0,0.0,0.0,0.0,0.0,0.0,0.0,0.0,0.0,0.0,0.0,0.0,0.0,0.0,0.0,0.0,0.0,0.0,0.0,0.0,0.0,0.0,0.0,0.0,0.0,0.0,0.0,0.0,0.0,0.0,0.0,0.0,0.0,0.0,0.0,0.0,0.0,0.0,0.0,0.0,0.0,0.0,0.0,0.0,0.0,0.0,0.0,0.0,0.0,0.0,0.0,0.0,0.0,0.0,0.0,0.0,0.0,0.0,0.0,0.0,0.0,0.0,0.0,0.0,0.0,0.0,0.0,0.0,0.0,0.0,0.0,0.0,0.0,0.0,0.0,0.0,0.0,0.0,0.0,0.0,0.0,0.0,0.0,0.0,0.0,0.0,0.0,0.0,0.0,0.0,0.0,0.0,0.0,0.0,0.0,0.0,0.0,0.0,0.0,0.0,0.0,0.0,0.0,1.0474,1.1881,1.188,1.167,0.0,0.0,0.0,0.0,0.0,0.0,0.0,0.0,0.0,0.0,0.0,0.0,0.0,0.0,0.0,0.0,0.0,0.0,0.0,0.0,0.0,0.0,0.0,0.0,0.0,0.0,0.0,0.0,0.0,0.0,0.0,0.0,0.0,0.0,0.0,0.0,0.0,0.0,0.0,0.0,0.0,0.0,0.0,0.0,0.0,0.0,0.0,0.0,0.0,0.0,0.0,0.0,0.0,0.0,0.0,0.0,0.0,0.0,0.0,0.0,0.0,0.0,0.0,0.0,0.0,0.0,0.0,0.0,0.0,0.0,0.0,0.0,0.0,0.0,0.0,0.0,0.0,0.0,0.0,0.0,0.0,0.0,0.0,0.0,0.0,0.0,0.0,0.0,0.0,0.0,0.0,0.0,0.0,0.0,0.0,0.0,0.0,0.0,0.0,0.0,0.0,0.0,0.0,0.0,0.0,0.0,0.0,0.0,0.0,0.0,1.0534,1.1149,1.2532,1.2048,1.143,1.084,0.0,0.0,0.0,0.0,0.0,0.0,0.0,0.0,0.0,0.0,0.0,0.0,0.0,0.0,0.0,0.0,0.0,0.0,0.0,0.0,0.0,0.0,0.0,0.0,0.0,0.0,0.0,0.0,0.0,0.0,0.0,0.0,0.0,0.0,0.0,0.0,0.0,0.0,0.0,0.0,0.0,0.0,0.0,0.0,0.0,0.0,0.0,0.0,0.0,0.0,0.0,0.0,0.0,0.0,0.0,0.0,0.0,0.0,0.0,0.0,0.0,0.0,0.0,0.0,0.0,0.0,0.0,0.0,0.0,0.0,0.0,0.0,0.0,0.0,0.0,0.0,0.0,0.0,0.0,0.0,0.0,0.0,0.0,0.0,0.0,0.0,0.0,0.0,0.0,0.0,0.0,0.0,0.0,0.0,0.0,0.0,0.0,0.0,0.0,0.0,0.0,0.0,0.0,0.0,0.0,0.0,0.0,0.0,1.2481,1.1882,1.2238,1.3711,1.2631,1.1705,0.0,0.0,0.0,0.0,0.0,0.0,0.0,0.0,0.0,0.0,0.0,0.0,0.0,0.0,0.0,0.0,0.0,0.0,0.0,0.0,0.0,0.0,0.0,0.0,0.0,0.0,0.0,0.0,0.0,0.0,0.0,0.0,0.0,0.0,0.0,0.0,0.0,0.0,0.0,0.0,0.0,0.0,0.0,0.0,0.0,0.0,0.0,0.0,0.0,0.0,0.0,0.0,0.0,0.0,0.0,0.0,0.0,0.0,0.0,0.0,0.0,0.0,0.0,0.0,0.0,0.0,0.0,0.0,0.0,0.0,0.0,0.0,0.0,0.0,0.0,0.0,0.0,0.0,0.0,0.0,0.0,0.0,0.0,0.0,0.0,0.0,0.0,0.0,0.0,0.0,0.0,0.0,0.0,0.0,0.0,0.0,0.0,0.0,0.0,0.0,0.0,0.0,0.0,0.0,0.0,0.0,0.0,0.0,0.0,1.0259,1.0927,1.2209,1.3998,1.2086,1.1299,0.0,0.0,0.0,0.0,0.0,0.0,0.0,0.0,0.0,0.0,0.0,0.0,0.0,0.0,0.0,0.0,0.0,0.0,0.0,0.0,0.0,0.0,0.0,0.0,0.0,0.0,0.0,0.0,0.0,0.0,0.0,0.0,0.0,0.0,0.0,0.0,0.0,0.0,0.0,0.0,0.0,0.0,0.0,0.0,0.0,0.0,0.0,0.0,0.0,0.0,0.0,0.0,0.0,0.0,0.0,0.0,0.0,0.0,0.0,0.0,0.0,0.0,0.0,0.0,0.0,0.0,0.0,0.0,0.0,0.0,0.0,0.0,0.0,0.0,0.0,0.0,0.0,0.0,0.0,0.0,0.0,0.0,0.0,0.0,0.0,0.0,0.0,0.0,0.0,0.0,0.0,0.0,0.0,0.0,0.0,0.0,0.0,0.0,0.0,0.0,0.0,0.0,0.0,0.0,0.0,0.0,0.0,0.0,0.0,1.0495,1.2156,1.3425,1.409,1.2001,1.0828,0.0,0.0,0.0,0.0,0.0,0.0,0.0,0.0,0.0,0.0,0.0,0.0,0.0,0.0,0.0,0.0,0.0,0.0,0.0,0.0,0.0,0.0,0.0,0.0,0.0,0.0,0.0,0.0,0.0,0.0,0.0,0.0,0.0,0.0,0.0,0.0,0.0,0.0,0.0,0.0,0.0,0.0,0.0,0.0,0.0,0.0,0.0,0.0,0.0,0.0,0.0,0.0,0.0,0.0,0.0,0.0,0.0,0.0,0.0,0.0,0.0,0.0,0.0,0.0,0.0,0.0,0.0,0.0,0.0,0.0,0.0,0.0,0.0,0.0,0.0,0.0,0.0,0.0,0.0,0.0,0.0,0.0,0.0,0.0,0.0,0.0,0.0,0.0,0.0,0.0,0.0,0.0,0.0,0.0,0.0,0.0,0.0,0.0,0.0,0.0,0.0,0.0,0.0,0.0,0.0,0.0,0.0,0.0,1.0122,1.363,1.5759,1.5933,1.4157,1.243,1.0377,0.0,0.0,0.0,0.0,0.0,0.0,0.0,0.0,0.0,0.0,0.0,0.0,0.0,0.0,0.0,0.0,0.0,0.0,0.0,0.0,0.0,0.0,0.0,0.0,0.0,0.0,0.0,0.0,0.0,0.0,0.0,0.0,0.0,0.0,0.0,0.0,0.0,0.0,0.0,0.0,0.0,0.0,0.0,0.0,0.0,0.0,0.0,0.0,0.0,0.0,0.0,0.0,0.0,0.0,0.0,0.0,0.0,0.0,0.0,0.0,0.0,0.0,0.0,0.0,0.0,0.0,0.0,0.0,0.0,0.0,0.0,0.0,0.0,0.0,0.0,0.0,0.0,0.0,0.0,0.0,0.0,0.0,0.0,0.0,0.0,0.0,0.0,0.0,0.0,0.0,0.0,0.0,0.0,0.0,0.0,0.0,0.0,0.0,0.0,0.0,0.0,0.0,0.0,0.0,0.0,0.0,0.0,0.0,0.0,1.0156,1.3619,1.5318,1.4869,1.2272,1.128,0.0,0.0,0.0,0.0,0.0,0.0,0.0,0.0,0.0,0.0,0.0,0.0,0.0,0.0,0.0,0.0,0.0,0.0,0.0,0.0,0.0,0.0,0.0,0.0,0.0,0.0,0.0,0.0,0.0,0.0,0.0,0.0,0.0,0.0,0.0,0.0,0.0,0.0,0.0,0.0,0.0,0.0,0.0,0.0,0.0,0.0,0.0,0.0,0.0,0.0,0.0,0.0,0.0,0.0,0.0,0.0,0.0,0.0,0.0,0.0,0.0,0.0,0.0,0.0,0.0,0.0,0.0,0.0,0.0,0.0,0.0,0.0,0.0,0.0,0.0,0.0,0.0,0.0,0.0,0.0,0.0,0.0,0.0,0.0,0.0,0.0,0.0,0.0,0.0,0.0,0.0,0.0,0.0,0.0,0.0,0.0,0.0,0.0,0.0,0.0,0.0,0.0,0.0,0.0,0.0,0.0,0.0,0.0,0.0,1.2173,1.5514,1.7121,1.657,1.3652,1.2434,1.3131,0.0,0.0,0.0,0.0,0.0,0.0,0.0,0.0,0.0,0.0,0.0,0.0,0.0,0.0,0.0,0.0,0.0,0.0,0.0,0.0,0.0,0.0,0.0,0.0,0.0,0.0,0.0,0.0,0.0,0.0,0.0,0.0,0.0,0.0,0.0,0.0,0.0,0.0,0.0,0.0,0.0,0.0,0.0,0.0,0.0,0.0,0.0,0.0,0.0,0.0,0.0,0.0,0.0,0.0,0.0,0.0,0.0,0.0,0.0,0.0,0.0,0.0,0.0,0.0,0.0,0.0,0.0,0.0,0.0,0.0,0.0,0.0,0.0,0.0,0.0,0.0,0.0,0.0,0.0,0.0,0.0,0.0,0.0,0.0,0.0,0.0,0.0,0.0,0.0,0.0,0.0,0.0,0.0,0.0,0.0,0.0,0.0,0.0,0.0,0.0,0.0,0.0,0.0,0.0,0.0,0.0,0.0,0.0,1.8135,2.0576,2.0841,1.8839,1.6115,1.3791,0.0,0.0,0.0,0.0,0.0,0.0,0.0,0.0,0.0,0.0,0.0,0.0,0.0,0.0,0.0,0.0,0.0,0.0,0.0,0.0,0.0,0.0,0.0,0.0,0.0,0.0,0.0,0.0,0.0,0.0,0.0,0.0,0.0,0.0,0.0,0.0,0.0,0.0,0.0,0.0,0.0,0.0,0.0,0.0,0.0,0.0,0.0,0.0,0.0,0.0,0.0,0.0,0.0,0.0,0.0,0.0,0.0,0.0,0.0,0.0,0.0,0.0,0.0,0.0,0.0,0.0,0.0,0.0,0.0,0.0,0.0,0.0,0.0,0.0,0.0,0.0,0.0,0.0,0.0,0.0,0.0,0.0,0.0,0.0,0.0,0.0,0.0,0.0,0.0,0.0,0.0,0.0,0.0,0.0,0.0,0.0,0.0,0.0,0.0,0.0,0.0,0.0,0.0,0.0,0.0,0.0,0.0,0.0,0.0,1.9876,2.1685,2.1811,2.0105,1.684,1.4984,0.0,0.0,0.0,0.0,0.0,0.0,0.0,0.0,0.0,0.0,0.0,0.0,0.0,0.0,0.0,0.0,0.0,0.0,0.0,0.0,0.0,0.0,0.0,0.0,0.0,0.0,0.0,0.0,0.0,0.0,0.0,0.0,0.0,0.0,0.0,0.0,0.0,0.0,0.0,0.0,0.0,0.0,0.0,0.0,0.0,0.0,0.0,0.0,0.0,0.0,0.0,0.0,0.0,0.0,0.0,0.0,0.0,0.0,0.0,0.0,0.0,0.0,0.0,0.0,0.0,0.0,0.0,0.0,0.0,0.0,0.0,0.0,0.0,0.0,0.0,0.0,0.0,0.0,0.0,0.0,0.0,0.0,0.0,0.0,0.0,0.0,0.0,0.0,0.0,0.0,0.0,0.0,0.0,0.0,0.0,0.0,0.0,0.0,0.0,0.0,0.0,0.0,0.0,0.0,0.0,0.0,0.0,0.0,1.9516,2.3059,2.3741,2.3608,2.2709,1.893,1.6626,0.0,0.0,0.0,0.0,0.0,0.0,0.0,0.0,0.0,0.0,0.0,0.0,0.0,0.0,0.0,0.0,0.0,0.0,0.0,0.0,0.0,0.0,0.0,0.0,0.0,0.0,0.0,0.0,0.0,0.0,0.0,0.0,0.0,0.0,0.0,0.0,0.0,0.0,0.0,0.0,0.0,0.0,0.0,0.0,0.0,0.0,0.0,0.0,0.0,0.0,0.0,0.0,0.0,0.0,0.0,0.0,0.0,0.0,0.0,0.0,0.0,0.0,0.0,0.0,0.0,0.0,0.0,0.0,0.0,0.0,0.0,0.0,0.0,0.0,0.0,0.0,0.0,0.0,0.0,0.0,0.0,0.0,0.0,0.0,0.0,0.0,0.0,0.0,0.0,0.0,0.0,0.0,0.0,0.0,0.0,0.0,0.0,0.0,0.0,0.0,0.0,0.0,0.0,0.0,0.0,0.0,0.0,0.0,2.165,2.6454,2.5914,2.5509,2.5373,2.1518,1.8441,0.0,0.0,0.0,0.0,0.0,0.0,0.0,0.0,0.0,0.0,0.0,0.0,0.0,0.0,0.0,0.0,0.0,0.0,0.0,0.0,0.0,0.0,0.0,0.0,0.0,0.0,0.0,0.0,0.0,0.0,0.0,0.0,0.0,0.0,0.0,0.0,0.0,0.0,0.0,0.0,0.0,0.0,0.0,0.0,0.0,0.0,0.0,0.0,0.0,0.0,0.0,0.0,0.0,0.0,0.0,0.0,0.0,0.0,0.0,0.0,0.0,0.0,0.0,0.0,0.0,0.0,0.0,0.0,0.0,0.0,0.0,0.0,0.0,0.0,0.0,0.0,0.0,0.0,0.0,0.0,0.0,0.0,0.0,0.0,0.0,0.0,0.0,0.0,0.0,0.0,0.0,0.0,0.0,0.0,0.0,0.0,0.0,0.0,0.0,0.0,0.0,0.0,0.0,0.0,0.0,0.0,0.0,0.0,2.3218,2.5728,2.543,2.5045,2.4729,2.2017,1.9697,0.0,0.0,0.0,0.0,0.0,0.0,0.0,0.0,0.0,0.0,0.0,0.0,0.0,0.0,0.0,0.0,0.0,0.0,0.0,0.0,0.0,0.0,0.0,0.0,0.0,0.0,0.0,0.0,0.0,0.0,0.0,0.0,0.0,0.0,0.0,0.0,0.0,0.0,0.0,0.0,0.0,0.0,0.0,0.0,0.0,0.0,0.0,0.0,1.1892,0.0,0.0,0.0,0.0,0.0,0.0,0.0,0.0,0.0,0.0,0.0,0.0,0.0,0.0,0.0,0.0,0.0,0.0,0.0,0.0,0.0,0.0,0.0,0.0,0.0,0.0,0.0,0.0,0.0,0.0,0.0,0.0,0.0,0.0,0.0,0.0,0.0,0.0,0.0,0.0,0.0,0.0,0.0,0.0,0.0,0.0,0.0,0.0,0.0,0.0,0.0,0.0,0.0,0.0,0.0,0.0,0.0,0.0,0.0,2.3862,2.6015,2.595,2.5765,2.549,2.3944,2.1604,0.0,0.0,0.0,0.0,0.0,0.0,0.0,0.0,0.0,0.0,0.0,0.0,0.0,0.0,0.0,0.0,0.0,0.0,0.0,0.0,0.0,0.0,0.0,0.0,0.0,0.0,0.0,0.0,0.0,0.0,0.0,0.0,0.0,0.0,0.0,0.0,0.0,0.0,0.0,0.0,0.0,0.0,0.0,0.0,0.0,0.0,0.0,0.0,0.0,0.0,0.0,0.0,0.0,0.0,0.0,0.0,0.0,0.0,0.0,0.0,0.0,0.0,0.0,0.0,0.0,0.0,0.0,0.0,0.0,0.0,0.0,0.0,0.0,0.0,0.0,0.0,0.0,0.0,0.0,0.0,0.0,0.0,0.0,0.0,0.0,0.0,0.0,0.0,0.0,0.0,0.0,0.0,0.0,0.0,0.0,0.0,0.0,0.0,0.0,0.0,0.0,0.0,0.0,0.0,0.0,0.0,0.0,2.1054,2.4046,2.6573,2.6708,2.6708,2.6708,2.6148,2.3489,1.8522,0.0,0.0,0.0,0.0,0.0,0.0,0.0,0.0,0.0,0.0,0.0,0.0,0.0,0.0,0.0,0.0,0.0,0.0,0.0,0.0,0.0,0.0,0.0,0.0,0.0,0.0,0.0,0.0,0.0,0.0,0.0,0.0,0.0,0.0,0.0,0.0,0.0,0.0,1.2022,1.4023,0.0,0.0,0.0,0.0,0.0,0.0,0.0,0.0,1.3167,0.0,0.0,0.0,0.0,0.0,0.0,0.0,0.0,0.0,0.0,0.0,0.0,0.0,0.0,0.0,0.0,0.0,0.0,0.0,0.0,0.0,0.0,0.0,0.0,0.0,0.0,0.0,0.0,0.0,0.0,0.0,0.0,0.0,0.0,0.0,0.0,0.0,0.0,0.0,0.0,0.0,0.0,0.0,0.0,0.0,0.0,0.0,0.0,0.0,0.0,0.0,0.0,0.0,0.0,0.0,0.0,2.0529,2.1948,2.3948,2.6623,2.6708,2.6708,2.6708,2.6899,2.4308,1.8744,0.0,0.0,0.0,0.0,0.0,0.0,0.0,0.0,0.0,0.0,0.0,0.0,0.0,0.0,0.0,0.0,0.0,0.0,0.0,0.0,0.0,0.0,0.0,0.0,0.0,0.0,0.0,0.0,0.0,0.0,0.0,0.0,0.0,0.0,0.0,0.0,0.0,0.0,0.0,1.5348,1.5975,0.0,0.0,0.0,0.0,0.0,0.0,0.0,0.0,1.3748,0.0,0.0,0.0,0.0,0.0,0.0,0.0,0.0,0.0,0.0,0.0,0.0,0.0,0.0,0.0,0.0,0.0,0.0,0.0,0.0,0.0,0.0,0.0,0.0,0.0,0.0,0.0,0.0,0.0,0.0,0.0,0.0,0.0,0.0,0.0,0.0,0.0,0.0,0.0,0.0,0.0,0.0,0.0,0.0,0.0,0.0,0.0,0.0,0.0,0.0,0.0,0.0,0.0,0.0,0.0,1.9054,2.2774,2.5363,2.6657,2.6708,2.6791,2.7003,2.7164,2.4591,0.0,0.0,0.0,0.0,0.0,0.0,0.0,0.0,0.0,0.0,0.0,0.0,0.0,0.0,0.0,0.0,0.0,0.0,0.0,0.0,0.0,0.0,0.0,0.0,0.0,0.0,0.0,0.0,0.0,0.0,0.0,0.0,0.0,0.0,0.0,0.0,0.0,0.0,0.0,0.0,1.6237,1.7102,1.8448,0.0,0.0,0.0,0.0,0.0,0.0,1.4352,1.3972,0.0,0.0,0.0,0.0,0.0,0.0,0.0,0.0,0.0,0.0,0.0,0.0,0.0,0.0,0.0,0.0,0.0,0.0,0.0,0.0,0.0,0.0,0.0,0.0,0.0,0.0,0.0,0.0,0.0,0.0,0.0,0.0,0.0,0.0,0.0,0.0,0.0,0.0,0.0,0.0,0.0,0.0,0.0,0.0,0.0,0.0,0.0,0.0,0.0,0.0,0.0,0.0,0.0,0.0,0.0,1.7079,2.2844,2.6168,2.6708,2.6791,2.6988,2.7319,2.7396,2.4736,0.0,0.0,0.0,0.0,0.0,0.0,0.0,0.0,0.0,0.0,0.0,0.0,0.0,0.0,0.0,0.0,0.0,0.0,0.0,0.0,0.0,0.0,0.0,0.0,0.0,0.0,0.0,0.0,0.0,0.0,0.0,0.0,0.0,0.0,0.0,0.0,0.0,0.0,0.0,0.0,0.0,1.8219,2.0014,1.7785,0.0,0.0,0.0,0.0,1.5297,1.539,0.0,0.0,0.0,0.0,0.0,0.0,0.0,0.0,0.0,0.0,0.0,0.0,0.0,0.0,0.0,0.0,0.0,0.0,0.0,0.0,0.0,0.0,0.0,0.0,0.0,0.0,0.0,0.0,0.0,0.0,0.0,0.0,0.0,0.0,0.0,0.0,0.0,0.0,0.0,0.0,0.0,0.0,0.0,0.0,0.0,0.0,0.0,0.0,0.0,0.0,0.0,0.0,0.0,0.0,0.0,0.0,1.6953,2.0958,2.4312,2.6723,2.7117,2.727,2.7378,2.796,2.4825,0.0,0.0,0.0,0.0,0.0,0.0,0.0,0.0,0.0,0.0,0.0,0.0,0.0,0.0,0.0,0.0,0.0,0.0,0.0,0.0,0.0,0.0,0.0,0.0,0.0,0.0,0.0,0.0,0.0,0.0,0.0,0.0,0.0,0.0,0.0,0.0,0.0,0.0,0.0,0.0,0.0,1.8945,1.8633,1.7494,1.6823,0.0,0.0,1.7683,1.8883,1.8787,0.0,0.0,0.0,0.0,0.0,0.0,0.0,0.0,0.0,0.0,0.0,0.0,0.0,0.0,0.0,0.0,0.0,0.0,0.0,0.0,0.0,0.0,0.0,0.0,0.0,0.0,0.0,0.0,0.0,0.0,0.0,0.0,0.0,0.0,0.0,0.0,0.0,0.0,0.0,0.0,0.0,0.0,0.0,0.0,0.0,0.0,0.0,0.0,0.0,0.0,0.0,0.0,0.0,0.0,0.0,1.5887,1.715,2.2313,2.5644,2.6908,2.7228,2.747,2.7722,2.8075,2.4849,0.0,0.0,0.0,0.0,0.0,0.0,0.0,0.0,0.0,0.0,0.0,0.0,0.0,0.0,0.0,0.0,0.0,0.0,0.0,0.0,0.0,0.0,0.0,0.0,0.0,0.0,0.0,0.0,0.0,0.0,0.0,0.0,0.0,0.0,0.0,0.0,0.0,0.0,0.0,0.0,0.0,0.0,2.1066,1.9338,0.0,0.0,0.0,1.8369,1.8788,0.0,0.0,0.0,0.0,0.0,0.0,0.0,0.0,0.0,0.0,0.0,0.0,0.0,0.0,0.0,0.0,0.0,0.0,0.0,0.0,0.0,0.0,0.0,0.0,0.0,0.0,0.0,0.0,0.0,0.0,0.0,0.0,0.0,0.0,0.0,0.0,0.0,0.0,0.0,0.0,0.0,0.0,0.0,0.0,0.0,0.0,0.0,0.0,0.0,0.0,0.0,0.0,0.0,0.0,0.0,0.0,0.0,1.7212,2.3589,2.6958,2.7023,2.7307,2.7636,2.8024,2.8161,0.0,0.0,0.0,0.0,0.0,0.0,0.0,0.0,0.0,0.0,0.0,0.0,0.0,0.0,0.0,0.0,0.0,0.0,0.0,0.0,0.0,0.0,0.0,0.0,0.0,0.0,0.0,0.2754,0.0,0.0,0.0,0.0,0.0,0.0,0.0,0.0,0.0,0.0,0.0,0.0,0.0,0.0,1.9958,2.2346,2.0613,1.9426,0.0,0.0,1.9045,1.9244,1.9688,1.9314,0.0,0.0,0.0,0.0,0.0,0.0,0.0,0.0,0.0,0.0,0.0,0.0,0.0,0.0,0.0,0.0,0.0,0.0,0.0,0.0,0.0,0.0,0.0,0.0,0.0,0.0,0.0,0.0,0.0,0.0,0.0,0.0,0.0,0.0,0.0,0.0,0.0,0.0,0.0,0.0,0.0,0.0,0.0,0.0,0.0,0.0,0.0,0.0,0.0,0.0,0.0,0.0,0.0,0.0,1.6604,1.7302,2.3634,2.7023,2.7103,2.743,2.7754,2.8088,2.8399,2.4915,0.0,0.0,0.0,0.0,0.0,0.0,0.0,0.0,0.0,0.0,0.0,0.0,0.0,0.0,0.0,0.0,0.0,0.0,0.0,0.0,0.0,0.0,0.0,0.0,0.0,0.0,0.0,0.0,0.0,0.0,0.0,0.0,0.0,0.0,0.0,0.0,0.0,0.0,0.0,0.0,0.0,1.921,2.0275,2.0181,2.0494,0.0,2.0741,2.0293,2.1955,2.186,2.0354,1.6624,0.0,0.0,0.0,0.0,0.0,0.0,0.0,0.0,0.0,0.0,0.0,0.0,0.0,0.0,0.0,0.0,0.0,0.0,0.0,0.0,0.0,0.0,0.0,0.0,0.0,0.0,0.0,0.0,0.0,0.0,0.0,0.0,0.0,0.0,0.0,0.0,0.0,0.0,0.0,0.0,0.0,0.0,0.0,0.0,0.0,0.0,0.0,0.0,0.0,0.0,0.0,0.0,0.0,1.6596,1.7304,2.3704,2.712,2.7233,2.7669,2.7964,2.8102,2.8044,2.5742,0.0,0.0,0.0,0.0,0.0,0.0,0.0,0.0,0.0,0.0,0.0,0.0,0.0,0.0,0.0,0.0,0.0,0.0,0.0,0.0,0.0,0.0,0.0,0.0,0.0,0.0,0.0,0.0,1.7829,1.8838,1.733,0.0,0.0,0.0,0.0,0.0,0.0,0.0,0.0,0.0,0.0,2.0558,2.1645,2.1295,0.0,0.0,2.1336,2.1165,2.2224,2.1549,2.0291,1.835,1.7265,0.0,0.0,0.0,0.0,0.0,0.0,0.0,0.0,0.0,0.0,0.0,0.0,0.0,0.0,0.0,0.0,0.0,0.0,0.0,0.0,0.0,0.0,0.0,0.0,0.0,0.0,0.0,0.0,0.0,0.0,0.0,0.0,0.0,0.0,0.0,0.0,0.0,0.0,0.0,0.0,0.0,0.0,0.0,0.0,0.0,0.0,0.0,0.0,0.0,0.0,0.0,0.0,1.6647,1.7337,2.3806,2.7215,2.7343,2.7786,2.8075,2.8224,2.8075,2.6497,0.0,0.0,0.0,0.0,0.0,0.0,0.0,0.0,0.0,0.0,0.0,0.0,0.0,0.0,0.0,0.0,0.0,0.0,0.0,0.0,0.0,0.0,0.0,0.0,0.0,0.0,0.0,0.0,1.6289,1.7057,1.8045,0.0,0.0,0.0,0.0,0.0,0.0,0.0,0.0,0.0,0.0,2.1368,2.2686,2.2151,2.1839,2.2465,2.19,2.1511,2.1859,2.1332,2.0423,1.9058,0.0,0.0,0.0,0.0,0.0,0.0,0.0,0.0,0.0,0.0,0.0,0.0,0.0,0.0,0.0,0.0,0.0,0.0,0.0,0.0,0.0,0.0,0.0,0.0,0.0,0.0,0.0,0.8027,0.0,0.0,0.7525,0.0,0.0,0.0,0.0,0.0,0.0,0.0,0.0,0.0,0.0,0.0,0.0,0.0,0.0,0.0,0.0,0.0,0.0,0.0,0.0,0.0,0.0,1.6698,1.737,2.3898,2.7376,2.7496,2.7719,2.8045,2.8461,2.8615,2.6985,2.3397,0.0,0.0,0.0,0.0,0.0,0.0,0.0,0.0,0.0,0.0,0.0,0.0,0.0,0.0,0.0,0.0,0.0,0.0,0.0,0.0,0.0,0.0,0.0,0.0,0.0,0.0,0.9666,1.0784,1.2375,0.0,0.0,0.0,0.0,0.0,0.0,0.0,0.0,0.0,1.8825,2.0033,2.124,2.2864,2.2536,2.2547,2.3682,2.2432,2.1273,2.1171,2.1547,2.0952,0.0,0.0,0.0,0.0,0.0,0.0,0.0,0.0,0.0,0.0,0.0,0.0,0.0,0.0,0.0,0.0,0.0,0.0,0.0,0.0,0.0,0.0,0.0,0.0,0.0,0.0,0.0,1.0843,1.0407,0.0,0.0,0.0,0.0,0.0,0.0,0.0,0.0,0.0,0.0,0.0,1.8165,1.978,0.0,0.0,0.0,0.0,0.0,0.0,0.0,0.0,0.0,0.0,0.0,0.0,1.6925,1.8195,2.4224,2.7511,2.7719,2.8073,2.8396,2.8621,2.8585,2.7042,2.3809,0.0,0.0,0.0,0.0,0.0,0.0,0.0,0.0,0.0,0.0,0.0,0.0,0.0,0.0,0.0,0.0,0.0,0.0,0.0,0.0,0.0,0.0,0.0,0.0,0.0,1.39,0.0,0.0,0.0,0.0,0.0,0.0,0.0,0.0,0.0,0.0,0.0,1.8528,2.0018,2.1701,2.3162,2.4174,2.3915,2.3831,0.0,0.0,0.0,0.0,0.0,0.0,0.0,0.0,0.0,0.0,0.0,0.0,0.0,0.0,1.8653,1.4757,1.2901,1.2135,1.2804,0.0,0.0,0.0,0.0,0.0,0.0,0.0,0.0,0.0,0.0,0.0,0.0,0.0,0.0,1.3933,1.35,1.3179,0.0,0.0,0.0,0.0,0.0,0.0,0.0,0.0,1.9551,2.0983,2.1374,2.2965,2.2655,0.0,2.0204,1.8183,0.0,0.0,0.0,0.0,0.0,0.0,0.0,0.0,1.7669,1.9807,2.4827,2.7615,2.7872,2.8286,2.8639,2.8897,2.8998,2.815,2.6232,2.7877,2.6547,0.0,0.0,0.0,0.0,0.0,0.0,0.0,0.0,0.0,0.0,0.0,0.0,0.0,0.0,0.0,0.0,0.0,0.0,0.0,0.0,0.0,0.0,0.0,1.3422,0.0,0.0,0.0,0.0,0.0,0.0,0.0,0.0,0.0,1.454,1.7586,2.0536,2.1997,2.3361,2.4494,2.515,0.0,0.0,0.0,0.0,0.0,0.0,0.0,2.1173,2.1546,2.0105,1.8904,1.8919,2.0666,2.1711,2.0594,0.0,0.0,1.7026,1.5228,1.4565,1.5194,1.5558,1.5762,1.5847,1.6703,1.7282,0.0,0.0,0.0,0.0,0.0,0.0,0.0,0.0,1.7546,1.7214,0.0,1.6555,0.0,0.0,0.0,0.0,1.3635,1.6422,0.0,0.0,2.4462,2.6103,2.6103,2.6103,2.6169,2.6118,2.4847,2.3314,2.1366,1.6502,0.0,0.0,0.0,0.0,0.0,0.0,1.9056,2.2261,2.5737,2.7672,2.7996,2.835,2.877,2.9321,2.9834,3.0132,3.0235,2.7305,2.5214,2.4317,1.4473,0.0,0.0,0.0,0.0,0.0,0.0,0.0,0.0,0.0,0.0,0.0,0.0,0.0,0.0,0.0,0.0,0.0,0.0,0.0,0.0,1.3083,0.0,0.0,0.0,0.0,0.0,0.0,0.0,0.0,0.0,0.0,1.9247,1.9931,2.1762,2.4488,0.0,0.0,0.0,0.0,2.521,2.6164,2.5039,2.3938,2.3444,2.3957,2.4096,2.3311,0.0,0.0,2.2348,2.3921,2.45,2.1528,2.2325,2.3111,2.2115,1.9783,1.82,1.82,1.7987,1.7728,1.7795,1.9186,2.0386,1.9276,0.0,0.0,0.0,0.0,1.8426,1.9768,2.227,2.1393,2.0726,2.0293,2.0068,0.0,0.0,0.0,0.0,0.0,0.0,1.9454,2.2197,2.3145,2.4477,2.6169,2.6185,2.6185,2.6169,2.5706,2.5242,2.4673,2.3161,1.8242,1.0348,0.0,0.0,0.0,0.0,2.1556,2.3033,2.6179,2.7968,2.8224,2.8694,2.9191,2.9713,3.0025,3.0285,3.0537,2.9651,2.7952,2.5324,2.1764,0.0,0.0,0.0,0.0,0.0,0.0,0.0,0.0,0.0,0.0,0.0,0.0,0.0,0.0,0.0,0.0,0.0,0.0,0.0,1.2491,1.4135,1.5284,0.0,0.0,0.0,0.0,0.0,0.0,0.0,0.0,0.0,2.2355,2.3018,2.3861,0.0,0.0,2.569,2.5864,2.6123,2.6363,2.6485,2.6128,0.0,2.5568,2.444,2.3921,2.491,2.5543,2.5586,2.4853,2.5096,2.5095,2.4128,2.3737,2.3438,2.3178,2.2296,2.1565,2.1663,2.1514,2.1311,2.1233,2.1559,2.1793,2.342,2.2019,2.0441,2.0408,2.1413,2.1133,2.2489,2.4845,2.4281,2.3786,2.3424,2.3375,2.1818,1.9135,1.8124,0.0,0.0,0.0,2.1256,2.3983,2.3949,2.4775,2.6136,2.6185,2.6185,2.6151,2.564,2.5588,2.6063,2.5697,2.2144,1.5787,0.0,0.0,1.6647,2.0416,2.3243,2.4999,2.706,2.8174,2.8298,2.9023,2.9589,2.9969,3.0195,3.0409,3.0603,3.066,2.9767,2.7777,2.5543,2.3456,0.0,0.0,0.0,0.0,0.0,0.0,0.0,0.0,0.0,0.0,0.0,2.1356,2.0102,0.0,0.0,0.0,1.9762,1.6561,1.6908,1.7981,0.0,0.0,0.0,0.0,0.0,0.0,0.0,2.2249,2.3095,2.3857,2.4756,2.5194,2.5485,2.5594,2.5954,2.6196,2.6131,0.0,2.6708,2.6589,2.6571,2.6554,2.6502,2.538,2.4896,2.5971,2.6133,2.6133,2.6134,2.5946,2.5714,2.551,2.4988,2.4502,2.4502,2.429,2.3793,2.3081,2.2718,2.2496,2.2393,2.2263,2.2191,2.6555,2.6149,2.2198,2.1454,2.2932,2.3554,2.4722,2.6187,2.6203,2.6185,2.6185,2.6185,2.494,2.2655,2.0408,0.0,2.2867,2.2834,2.4016,2.6169,2.6185,2.6185,2.6185,2.6185,2.6185,2.6169,2.5087,2.5138,2.6118,2.5442,2.4146,2.2418,2.2197,2.231,2.2699,2.2842,2.4521,2.7689,2.8115,2.8339,2.8428,2.9391,2.9962,3.0084,3.0374,3.0537,3.0619,3.0681,3.0781,3.076,2.701,2.6668,3.0346,0.0,0.0,0.0,0.0,0.0,0.0,0.0,0.0,0.0,0.0,0.0,0.0,0.0,0.0,2.1086,2.2522,0.0,2.368,2.3028,0.0,0.0,0.0,1.8028,1.7686,2.0445,2.2414,2.2516,0.0,0.0,2.6502,2.6485,2.6537,2.6657,2.6674,2.664,2.6453,2.6435,2.6485,2.6485,2.6502,2.6502,2.645,2.6333,2.6283,2.6399,2.6484,2.6433,2.6433,2.645,2.6293,2.5975,2.5899,2.5795,2.5846,2.5674,2.5179,2.3139,2.2562,2.2312,2.2311,2.2306,2.2302,2.6572,2.647,2.5413,2.5196,2.5563,2.5643,2.5892,2.6277,2.6205,2.6185,2.6185,2.6185,2.587,2.5288,2.4691,2.4775,2.5339,2.5321,2.5637,2.6169,2.6185,2.6185,2.6185,2.6185,2.6185,2.6187,2.6061,2.6025,2.6064,2.6303,2.6181,2.5706,2.6012,2.5108,2.3174,2.5295,2.6993,2.8152,2.8355,2.8718,2.9279,2.9687,2.9996,3.017,3.044,3.0614,3.0674,3.0809,3.0839,3.0797,2.9862,2.9803,3.0757,2.6217,0.0,0.0,0.0,0.0,0.0,0.0,0.0,0.0,0.0,2.2953,2.7001,0.0,2.0372,0.0,2.5826,2.4685,2.1695,2.2035,0.0,0.0,2.0457,2.0229,2.3777,2.3489,2.3626,2.5295,2.6101,2.652,2.6485,2.6485,2.6468,2.6418,2.6469,2.6336,2.5799,2.6151,2.6451,2.6382,2.6365,2.6329,2.6292,2.6274,2.6274,2.6273,2.6257,2.6273,2.6274,2.6257,2.6256,2.6132,2.5828,2.5612,2.5629,2.5365,2.5019,2.4453,2.439,2.4233,2.3662,2.3481,2.3481,2.664,2.664,2.6606,2.6606,2.6572,2.6434,2.6382,2.6399,2.6293,2.624,2.624,2.6221,2.6185,2.6185,2.6185,2.6185,2.6185,2.6185,2.6185,2.6185,2.6185,2.6385,2.6684,2.67,2.6942,2.7388,2.737,2.7408,2.7552,2.7538,2.7629,2.7869,2.7938,2.7428,2.6411,2.7486,2.7951,2.7787,2.8421,2.9124,2.9836,2.9968,2.9602,2.8705,2.9936,3.0107,2.903,3.0194,3.0311,2.9177,2.9087,2.9076,2.9037,2.6495,2.5726,0.0,0.0,0.0,0.0,0.0,0.0,0.0,0.0,0.0,0.0,0.0,2.3836,2.3664,2.5497,2.5399,2.2151,2.3088,2.414,2.47,2.3103,2.318,2.6115,2.5297,2.5013,2.6229,2.6379,2.6379,2.6363,2.6363,2.6345,2.6258,2.6311,2.6213,2.5897,2.6217,2.652,2.6434,2.6434,2.6365,2.6221,2.631,2.6328,2.6221,2.6185,2.6185,2.6185,2.6185,2.6185,2.6185,2.599,2.5811,2.5793,2.5443,2.5137,2.4942,2.4823,2.4655,2.4255,2.3982,2.3839,2.6708,2.6708,2.6708,2.6708,2.6708,2.6555,2.652,2.6502,2.6382,2.6313,2.6312,2.624,2.6203,2.622,2.6203,2.6203,2.622,2.6285,2.6336,2.6351,2.6452,2.6816,2.7431,2.747,2.8009,2.8874,2.8703,2.8856,2.9332,2.8776,2.8664,2.9023,2.8743,2.9046,2.9876,2.9082,2.8203,2.741,2.8441,2.9333,3.0009,3.0002,2.906,2.7253,2.9413,2.965,2.748,2.955,2.9769,2.7613,2.7333,2.7264,2.724,2.6598,2.5595,0.0,2.133,0.0,0.0,0.0,0.0,0.0,0.0,0.0,0.0,2.7016,2.4976,2.0079,2.3829,2.5765,2.3945,2.5046,2.603,2.6381,2.6045,2.5919,2.6225,2.6222,2.6185,2.6185,2.6168,2.615,2.6168,2.6148,2.6114,2.6096,2.6096,2.6097,2.6133,2.6329,2.652,2.6537,2.652,2.6364,2.624,2.6346,2.6399,2.6205,2.6239,2.6238,2.6168,2.6203,2.6238,2.6168,2.6132,2.6132,2.615,2.5811,2.5462,2.5192,2.4839,2.4492,2.4219,2.3903,2.3616,2.6708,2.6708,2.6708,2.6708,2.6708,2.6674,2.6623,2.6589,2.6502,2.6416,2.6313,2.6278,2.6241,2.622,2.6259,2.6241,2.6219,2.6816,2.7083,2.7116,2.7713,2.8044,2.8213,2.8449,2.8702,2.8929,2.942,2.9294,2.8624,2.9169,2.9022,2.8255,2.8736,2.8716,2.825,0.0,0.0,0.0,2.8594,2.8659,2.9109,2.9046,2.8964,2.8913,3.0061,0.0,3.0018,3.0464,3.0487,2.9949,2.9797,0.0,0.0,0.0,0.0,0.0,0.0,0.0,0.0,0.0,0.0,0.0,2.0715,2.0318,2.281,2.53,2.5349,2.2119,2.4619,2.6301,2.5815,2.6012,2.6207,2.6239,2.6168,2.615,2.6187,2.622,2.6185,2.6185,2.6059,2.5952,2.5952,2.5807,2.5715,2.5747,2.5731,2.5715,2.5733,2.6061,2.6257,2.6274,2.6187,2.6099,2.6119,2.6082,2.61,2.6101,2.6365,2.6346,2.6061,2.6276,2.6346,2.6043,2.5936,2.5952,2.5952,2.5881,2.5791,2.5917,2.557,2.4965,2.3964,2.3659,2.3595,2.6708,2.6708,2.6708,2.6708,0.0,2.6708,2.6674,2.664,2.6572,2.6486,2.6399,2.6382,2.6398,2.6362,2.6312,2.646,2.6804,2.7135,2.7497,2.7845,2.8227,2.8591,2.8906,2.928,2.973,3.0254,3.0249,3.0429,3.0749,3.0261,2.9898,2.9735,2.971,2.954,2.9297,3.0519,3.0928,3.0405,3.0049,3.0267,3.1009,3.0595,2.9836,2.8906,3.0075,0.0,0.0,0.0,0.0,0.0,0.0,0.0,0.0,0.0,0.0,2.9212,2.5492,2.3906,2.5566,2.4053,2.4035,2.6222,2.4559,2.3619,2.4122,2.5609,2.5866,2.4407,2.5547,2.6328,2.6258,2.6048,2.5923,2.6025,2.5844,2.5735,2.5879,2.5881,2.5915,2.5899,2.5824,2.5735,2.5752,2.5661,2.5605,2.5619,2.5602,2.5602,2.564,2.5883,2.6117,2.6117,2.6137,2.6066,2.5921,2.5939,2.5919,2.5886,2.5992,2.599,2.5789,2.5954,2.6026,2.5789,2.5752,2.5752,2.5731,2.5567,2.5438,2.5476,2.5079,2.4527,2.3831,2.3824,2.3846,2.6708,2.6708,2.6708,2.6793,2.6894,2.6894,2.6962,2.708,0.0,0.0,0.0,2.6855,2.6888,2.6904,2.6783,2.7046,2.7594,2.7651,2.7995,2.8591,2.8724,2.9092,2.9703,2.9962,3.063,3.1528,3.1029,3.1485,3.2703,3.1368,3.0903,3.1237,3.0852,3.0791,3.1203,3.2292,3.2601,3.206,3.1702,3.2012,3.3,3.2333,3.0977,2.8925,3.038,3.0078,2.7775,2.9555,2.9564,2.7383,2.6973,2.6778,2.6667,2.6432,2.7194,2.9134,2.9134,2.8994,2.8982,2.8917,2.8858,2.8773,2.7904,2.7114,2.6502,2.6365,2.6295,2.6278,2.6222,2.6185,2.6185,2.583,2.5666,2.5862,2.553,2.5365,2.5567,2.5602,2.564,2.5602,2.5602,2.5546,2.553,2.5508,2.5492,2.5492,2.5454,2.5508,2.5513,2.5719,2.5885,2.5866,2.5959,2.5997,2.5756,2.5719,2.5777,2.5645,2.5642,2.564,2.5605,2.5661,2.5698,2.5715,2.5624,2.5621,2.5597,2.5317,2.4997,2.502,2.4558,2.4099,2.4036,2.4204,2.4183,2.6708,2.6708,2.6708,2.7063,2.7655,2.7638,2.8044,2.8604,2.7871,2.7549,2.7564,2.8185,2.8434,2.8395,2.8379,2.8354,2.8375,2.8893,2.9185,2.9281,2.993,3.0429,3.0839,3.056,3.0716,3.1198,3.1642,3.1654,3.1345,3.2009,3.182,3.0894,3.1429,3.2069,3.2519,3.2943,3.3494,3.4105,3.2466,3.1748,3.2071,3.1865,3.1669,3.1523,3.2274,3.221,3.1018,3.1182,3.0842,2.9743,2.9437,2.9255,2.9175,2.8806,2.8754,2.9037,2.9028,2.8964,2.8929,2.8846,2.8761,2.8569,2.756,2.6708,2.6292,2.6293,2.626,2.6221,2.6202,2.6185,2.6185,2.597,2.5826,2.5862,2.5661,2.5551,2.5584,2.5581,2.5581,2.5584,2.5451,2.5352,2.5317,2.5201,2.5123,2.5103,2.5162,2.5088,2.5182,2.5413,2.5562,2.5451,2.5432,2.5457,2.5478,2.5435,2.5438,2.5519,2.5721,2.5756,2.5565,2.5826,2.5956,2.5862,2.5677,2.5584,2.5578,2.5426,2.5298,2.5343,2.5208,2.5072,2.4664,2.4623,2.4415,2.6928,2.7283,2.73,2.774,2.845,2.845,2.8762,2.9246,2.9279,2.895,2.8447,2.8768,2.8883,2.8883,2.9013,2.9217,2.9494,2.9719,2.9995,3.0339,3.067,3.072,3.0531,3.0731,3.1007,3.1335,3.1389,3.1819,3.2474,3.2658,3.2469,3.206,3.2336,3.262,3.2885,3.3595,3.4157,3.4558,3.3682,3.3505,3.4029,3.3534,3.3294,3.3351,3.2714,3.2111,3.1704,3.1047,3.0672,3.0696,3.0471,3.0265,3.0088,2.9883,2.9508,2.9042,2.8987,2.8964,2.8905,2.8731,2.8383,2.7783,2.7288,2.6792,2.6222,2.6222,2.6187,2.6043,2.6025,2.597,2.5895,2.5805,2.5696,2.56,2.5489,2.5378,2.5282,2.5275,2.5259,2.5259,2.5182,2.5139,2.5123,2.5045,2.5005,2.5005,2.5005,2.5005,2.5005,2.5158,2.5256,2.5162,2.5143,2.5162,2.5208,2.5185,2.5182,2.5227,2.5346,2.5381,2.5278,2.5508,2.553,2.5451,2.5355,2.5278,2.5294,2.5217,2.5201,2.522,2.5107,2.4851,2.4497,2.4126,2.3767,2.7623,2.8078,2.8149,2.8696,2.9483,2.9564,2.9796,3.0196,3.0751,3.0524,2.9811,2.974,2.974,2.9776,2.992,3.0229,3.0564,3.0562,3.0791,3.1111,3.1014,3.0717,3.032,3.0731,3.1087,3.135,3.1321,3.2054,3.3259,3.3198,3.3336,3.3677,3.3391,3.3324,3.3607,3.4452,3.4799,3.463,3.4793,3.5096,3.5561,3.4739,3.426,3.4119,3.2938,3.2149,3.1933,3.1231,3.0975,3.1283,3.1007,3.0721,3.0491,3.0399,3.0018,2.9365,2.925,2.907,2.8731,2.8391,2.7901,2.7178,2.6971,2.6674,2.6203,2.6078,2.6023,2.5915,2.5879,2.577,2.5656,2.5565,2.547,2.5314,2.524,2.5162,2.5025,2.5005,2.5005,2.5005,2.5005,2.5005,2.5005,2.5005,2.5005,2.5005,2.5005,2.5005,2.5005,2.5005,2.5005,2.5005,2.5005,2.5005,2.5005,2.5005,2.5005,2.5005,2.5025,2.5084,2.5084,2.5084,2.5123,2.5182,2.5143,2.5123,2.51,2.506,2.5025,2.5025,2.4866,2.4605,2.4385,2.3988,2.3407,2.9075,2.8947,2.9231,2.9987,3.0973,3.1286,3.16,3.1968,3.2091,3.2108,3.1881,3.1986,3.1916,3.1986,3.183,3.1689,3.1484,3.1594,3.1501,3.1236,3.0789,3.0716,3.0886,3.0594,3.0594,3.1087,3.2002,3.2342,3.2359,3.3687,3.4624,3.5026,3.4656,3.4822,3.5518,3.5681,3.5388,3.4644,3.5323,3.5378,3.4695,3.3804,3.3335,3.3324,3.3794,3.3551,3.2428,3.2968,3.2854,3.2068,3.1297,3.0835,3.0698,3.0611,3.0442,3.0118,3.0003,2.9477,2.8318,2.7636,2.7402,2.7396,2.6556,2.6026,2.5858,2.5728,2.5712,2.5789,2.5717,2.5605,2.5602,2.5432,2.5314,2.5275,2.5139,2.5005,2.5021,2.5005,2.5005,2.5005,2.4985,2.5005,2.5005,2.5005,2.5005,2.5005,2.5005,2.5005,2.5005,2.5005,2.5005,2.5005,2.5005,2.5005,2.5005,2.5005,2.5005,2.5005,2.5005,2.5045,2.5143,2.5236,2.5314,2.5278,2.5317,2.5201,2.5197,2.5143,2.5005,2.4985,2.4926,2.4886,2.4886,2.4706,2.4261,2.9902,2.9986,3.0351,3.1023,3.1826,3.2004,3.2265,3.2584,3.2584,3.2467,3.2248,3.2245,3.2257,3.2317,3.2434,3.2418,3.223,3.1825,3.1496,3.1255,3.0593,3.0421,3.0711,3.079,3.1198,3.2063,3.2588,3.3045,3.3564,3.4518,3.5184,3.5451,3.5355,3.5502,3.5859,3.5845,3.5433,3.4607,3.4372,3.3849,3.3198,3.3631,3.3697,3.3151,3.2711,3.234,3.1909,3.1505,3.1271,3.1323,3.1419,3.1392,3.1184,3.155,3.15,3.0906,3.0468,2.9821,2.8753,2.8167,2.7532,2.6858,2.6401,2.6026,2.5696,2.5524,2.5467,2.5524,2.5486,2.5375,2.5259,2.5162,2.5139,2.5084,2.4966,2.4902,2.4985,2.4851,2.4811,2.4966,2.4942,2.4922,2.4966,2.5005,2.5005,2.5005,2.4985,2.4985,2.5005,2.5005,2.5005,2.5005,2.5005,2.5005,2.5005,2.5005,2.5005,2.5005,2.5005,2.5045,2.5084,2.5123,2.5143,2.5259,2.5201,2.5143,2.5103,2.5084,2.4985,2.4966,2.4786,2.4701,2.4722,2.4544,2.4094,3.0949,3.1098,3.139,3.1924,3.2586,3.2486,3.2511,3.2619,3.2632,3.2355,3.1876,3.1854,3.1897,3.1975,3.2184,3.2235,3.2038,3.1569,3.1349,3.128,3.0683,3.0641,3.1026,3.1448,3.198,3.2641,3.3156,3.3883,3.4728,3.4963,3.5284,3.563,3.5772,3.5856,3.5874,3.5641,3.5043,3.4213,3.3483,3.2593,3.182,3.2875,3.3209,3.2384,3.1882,3.163,3.1657,3.1221,3.1182,3.1686,3.2002,3.1941,3.1556,3.2212,3.2169,3.1192,3.0545,2.9682,2.8564,2.8022,2.7318,2.6414,2.6154,2.5903,2.5602,2.5336,2.5217,2.5178,2.5158,2.5084,2.4982,2.4942,2.4926,2.4906,2.4802,2.4802,2.4906,2.4751,2.4766,2.4962,2.4926,2.4882,2.4942,2.4926,2.4926,2.4942,2.4906,2.4926,2.4926,2.4906,2.4871,2.4906,2.4886,2.4926,2.4966,2.5005,2.5005,2.5005,2.5005,2.5005,2.5005,2.5005,2.5005,2.5103,2.5025,2.5005,2.5045,2.5005,2.4985,2.4946,2.4822,2.4641,2.4722,2.4421,2.4276,3.2631,3.2229,3.223,3.2627,3.3283,3.287,3.2522,3.2177,3.2227,3.1804,3.1179,3.1175,3.1093,3.1124,3.1238,3.0948,3.0737,3.0977,3.1242,3.1497,3.1269,3.1555,3.2319,3.276,3.2686,3.2507,3.372,3.4715,3.5187,3.4883,3.5062,3.5846,3.5877,3.5895,3.5783,3.5116,3.4159,3.3495,3.3174,3.2164,3.0748,3.1168,3.1262,3.0746,3.1774,3.2251,3.2185,3.3488,3.4106,3.3876,3.3081,3.2379,3.1691,3.2217,3.2037,3.0815,3.0125,2.8949,2.7349,2.6859,2.6478,2.6168,2.5852,2.5467,2.5397,2.5162,2.4985,2.4842,2.4862,2.4806,2.4786,2.4822,2.4782,2.467,2.463,2.4686,2.4786,2.4782,2.4842,2.4962,2.4946,2.4886,2.4822,2.4802,2.4802,2.4766,2.4706,2.4686,2.4766,2.469,2.465,2.465,2.467,2.471,2.4926,2.4946,2.4946,2.4946,2.4906,2.4966,2.4985,2.5005,2.4985,2.4985,2.4946,2.4946,2.4985,2.4985,2.4946,2.4926,2.4906,2.4846,2.4762,2.4802,2.4666,3.3265,3.3014,3.2511,3.2433,3.2546,3.1939,3.1556,3.1492,3.1981,3.1745,3.1225,3.1714,3.1733,3.1247,3.1434,3.1558,3.1596,3.1865,3.2038,3.2087,3.1715,3.2045,3.2876,3.2708,3.3079,3.3847,3.4088,3.4635,3.5411,3.5405,3.5544,3.58,3.5806,3.5762,3.5707,3.5443,3.4782,3.387,3.3698,3.2807,3.1146,3.1183,3.086,3.0003,3.0457,3.0935,3.1251,3.1744,3.2128,3.2465,3.2631,3.2569,3.2296,3.256,3.2236,3.1095,3.0803,2.9916,2.8288,2.8055,2.7386,2.6003,2.6144,2.589,2.5305,2.4985,2.4846,2.4802,2.4706,2.4666,2.4656,2.4737,2.4746,2.4645,2.4594,2.4589,2.4645,2.4564,2.4544,2.469,2.4731,2.471,2.4706,2.4686,2.4686,2.467,2.463,2.4609,2.4645,2.463,2.4589,2.4609,2.4609,2.463,2.469,2.4731,2.4731,2.4731,2.4731,2.4731,2.4751,2.4771,2.4766,2.4786,2.4786,2.4806,2.4806,2.4791,2.4791,2.4771,2.4771,2.4806,2.4746,2.4726,2.4686,3.3483,3.3255,3.2857,3.25,3.2204,3.2015,3.1765,3.1632,3.2187,3.2007,3.151,3.2023,3.2023,3.1665,3.1964,3.2267,3.2412,3.2397,3.2459,3.2618,3.2365,3.2786,3.3546,3.3337,3.3659,3.4542,3.4367,3.4676,3.5578,3.5757,3.5854,3.5868,3.5749,3.5713,3.5657,3.5347,3.477,3.4147,3.3703,3.2741,3.1496,3.1427,3.1022,3.0208,3.0067,3.0281,3.0708,3.1069,3.1471,3.1979,3.2705,3.2981,3.2665,3.2302,3.1749,3.0976,3.0751,3.0023,2.8571,2.8329,2.7512,2.5832,2.5921,2.5811,2.5009,2.4786,2.4836,2.4915,2.4952,2.4896,2.5102,2.5264,2.5124,2.4647,2.4369,2.4369,2.4503,2.4141,2.4063,2.4328,2.4528,2.4569,2.4569,2.4564,2.4584,2.4549,2.4528,2.4508,2.4564,2.4544,2.4508,2.4487,2.4487,2.4487,2.4508,2.4508,2.4589,2.4609,2.4645,2.4609,2.4569,2.4569,2.4569,2.4589,2.4589,2.4589,2.4589,2.4609,2.4609,2.4589,2.463,2.467,2.463,2.4589,2.4569,3.3361,3.3081,3.3323,3.2998,3.2498,3.3057,3.3178,3.2525,3.279,3.2509,3.1915,3.1976,3.2173,3.2091,3.2806,3.3048,3.3033,3.2545,3.2572,3.3089,3.332,3.3834,3.4595,3.4672,3.4529,3.4434,3.4613,3.5085,3.576,3.583,3.5853,3.5808,3.5706,3.5663,3.5709,3.4787,3.4197,3.3995,3.3208,3.2127,3.1279,3.1708,3.1552,3.0839,3.0833,3.0816,3.0602,3.1895,3.2533,3.274,3.344,3.3524,3.2559,3.1497,3.0538,3.0322,2.9905,2.9043,2.7857,2.7349,2.6931,2.5912,2.5396,2.5361,2.5266,2.4826,2.4828,2.5402,2.5474,2.5611,2.6063,2.6238,2.5864,2.4625,2.4295,2.4295,2.4367,2.3741,2.3297,2.3985,2.4441,2.457,2.4549,2.4616,2.4688,2.4751,2.457,2.4518,2.4581,2.4498,2.4338,2.4317,2.4343,2.4364,2.4323,2.4302,2.4426,2.4528,2.4549,2.4549,2.4508,2.4487,2.4487,2.4487,2.4487,2.4487,2.4508,2.4508,2.4528,2.4528,2.4549,2.4549,2.4508,2.4487,2.4482,3.4111,3.3866,3.3457,3.3133,3.2813,3.2625,3.2321,3.2228,3.2746,3.285,3.278,3.341,3.3738,3.38,3.415,3.4328,3.4415,3.4178,3.4121,3.4212,3.4444,3.4731,3.4988,3.475,3.4536,3.463,3.5163,3.5586,3.5788,3.5807,3.5758,3.5694,3.5546,3.5504,3.5604,3.5142,3.4908,3.4855,3.4412,3.3695,3.2836,3.2713,3.2337,3.157,3.1191,3.1058,3.1244,3.1339,3.1948,3.3068,3.3334,3.3011,3.2109,3.1509,3.0762,2.9969,2.9958,2.9527,2.8543,2.8433,2.7934,2.6935,2.6482,2.653,2.6422,2.5258,2.5045,2.5895,2.5728,2.5632,2.6202,2.6387,2.6255,2.5802,2.5674,2.5494,2.5545,2.5436,2.5224,2.4917,2.5074,2.5157,2.5102,2.5114,2.5323,2.5601,2.5309,2.501,2.4985,2.4708,2.4317,2.4281,2.4281,2.4327,2.4281,2.4281,2.4343,2.4405,2.4426,2.4462,2.4426,2.4405,2.4405,2.4405,2.4385,2.4369,2.4405,2.4405,2.4426,2.4405,2.4405,2.4385,2.4385,2.44,2.44,3.4352,3.4101,3.3773,3.3438,3.3163,3.2943,3.2945,3.302,3.3521,3.3809,3.4004,3.4526,3.486,3.4917,3.4999,3.51,3.522,3.5231,3.5174,3.5086,3.5128,3.5276,3.5374,3.5087,3.4931,3.5106,3.5586,3.5823,3.5809,3.5751,3.57,3.566,3.5519,3.5483,3.5552,3.5307,3.516,3.5144,3.4832,3.4257,3.3569,3.3459,3.3111,3.2388,3.2194,3.2194,3.2254,3.1845,3.1987,3.2694,3.2742,3.2213,3.1451,3.1244,3.0788,3.0111,2.9987,2.9809,2.9124,2.893,2.858,2.7519,2.7308,2.7205,2.6976,2.5809,2.5982,2.6509,2.644,2.6357,2.6995,2.7149,2.7134,2.7157,2.6443,2.6115,2.5948,2.6184,2.6061,2.5612,2.5644,2.575,2.5764,2.5741,2.5955,2.622,2.601,2.5718,2.5641,2.5395,2.5072,2.4789,2.4764,2.4635,2.4327,2.4281,2.4281,2.4302,2.4323,2.4359,2.4323,2.4323,2.4323,2.4323,2.4323,2.4323,2.4343,2.4323,2.4323,2.4281,2.4297,2.4302,2.4323,2.4323,2.4338,3.4242,3.3818,3.4235,3.4038,3.3563,3.4241,3.4566,3.4698,3.4906,3.5062,3.5166,3.5146,3.5247,3.5338,3.5283,3.5327,3.5411,3.5413,3.5505,3.5557,3.5539,3.5509,3.5573,3.5656,3.5675,3.5701,3.58,3.5805,3.5725,3.5704,3.5703,3.567,3.5552,3.5552,3.5457,3.5125,3.4916,3.4935,3.4526,3.3948,3.3362,3.3799,3.3802,3.3037,3.3451,3.3571,3.3249,3.2889,3.2541,3.2092,3.1915,3.1547,3.0935,3.0729,3.0535,3.0154,3.0189,2.9935,2.9488,2.8924,2.831,2.7819,2.7762,2.746,2.702,2.6991,2.7047,2.7411,2.7303,2.7534,2.8073,2.8227,2.8242,2.8148,2.7022,2.6,2.5363,2.6105,2.639,2.6061,2.6153,2.645,2.6458,2.6428,2.6497,2.6588,2.6565,2.6441,2.6364,2.618,2.598,2.5718,2.541,2.5272,2.5066,2.5072,2.5087,2.5087,2.4918,2.4681,2.4435,2.4343,2.4466,2.4451,2.4481,2.4435,2.4358,2.4404,2.4358,2.4317,2.4297,2.4297,2.4297,2.4297,2.4281,3.4707,3.4102,3.4698,3.4876,3.4712,3.5048,3.5135,3.5159,3.5252,3.5347,3.5361,3.5348,3.5386,3.5405,3.5386,3.5436,3.5542,3.5551,3.5629,3.5744,3.5789,3.5749,3.5749,3.5799,3.5793,3.5736,3.5697,3.5682,3.5706,3.5649,3.5648,3.5606,3.5295,3.5178,3.5212,3.4898,3.4773,3.4879,3.463,3.4409,3.4218,3.4125,3.408,3.3833,3.3633,3.3522,3.3299,3.2598,3.2109,3.1899,3.1757,3.1413,3.0814,3.0551,3.0347,3.021,2.9886,2.9665,2.9461,2.9046,2.8721,2.8682,2.8519,2.8474,2.8225,2.7611,2.7651,2.7874,2.775,2.7688,2.8242,2.8411,2.8411,2.8356,2.7719,2.7321,2.7376,2.7564,2.7507,2.707,2.7124,2.7165,2.714,2.7167,2.7315,2.7563,2.7411,2.7119,2.7072,2.6795,2.6534,2.6334,2.6103,2.601,2.5933,2.5903,2.5918,2.598,2.5764,2.5379,2.4933,2.4471,2.4697,2.4896,2.5066,2.5102,2.482,2.4681,2.4564,2.4548,2.4333,2.4312,2.4333,2.4317,2.4297,3.4089,3.3711,3.4487,3.4606,3.4402,3.5098,3.5245,3.5031,3.5314,3.5524,3.5553,3.5529,3.5568,3.5604,3.5578,3.5623,3.5708,3.5717,3.5793,3.5851,3.5879,3.5873,3.5824,3.5797,3.5729,3.5667,3.5615,3.5616,3.5639,3.5614,3.561,3.554,3.5212,3.51,3.5184,3.4831,3.4655,3.472,3.4561,3.4439,3.4397,3.4257,3.4136,3.4023,3.3703,3.3462,3.3075,3.2401,3.2004,3.1897,3.1548,3.1159,3.0935,3.0489,3.0246,3.0215,2.9766,2.947,2.9289,2.9059,2.8936,2.8951,2.8897,2.8779,2.8567,2.8101,2.81,2.8251,2.7996,2.8057,2.8288,2.8411,2.8372,2.8323,2.8235,2.8259,2.8372,2.8262,2.8139,2.7931,2.7847,2.7877,2.7818,2.7859,2.8036,2.8207,2.8027,2.7873,2.7765,2.7396,2.7072,2.6903,2.6749,2.6657,2.6441,2.6349,2.6411,2.6503,2.6503,2.6118,2.5718,2.5102,2.5302,2.5626,2.5718,2.5687,2.5441,2.5219,2.5189,2.505,2.465,2.4487,2.4579,2.4625,2.4564,3.3107,3.3088,3.4035,3.3996,3.3701,3.4912,3.5258,3.4745,3.5341,3.5697,3.5773,3.5753,3.5784,3.5899,3.5804,3.5839,3.5896,3.5897,3.5917,3.5927,3.5896,3.5841,3.5814,3.5723,3.5652,3.5592,3.5582,3.5588,3.5583,3.5591,3.5573,3.5469,3.5255,3.5133,3.5006,3.4722,3.4561,3.4495,3.4316,3.4209,3.4197,3.4124,3.4061,3.3972,3.3788,3.3375,3.2858,3.2419,3.2214,3.2195,3.13,3.1001,3.1035,3.0464,3.0215,3.0075,2.97,2.9312,2.9129,2.899,2.8889,2.885,2.8842,2.87,2.851,2.8441,2.8432,2.8405,2.8411,2.8365,2.8356,2.8411,2.8348,2.8275,2.8235,2.8259,2.8348,2.8372,2.8387,2.8411,2.8387,2.8411,2.8411,2.8411,2.8411,2.8348,2.8258,2.8211,2.8165,2.7996,2.7734,2.7565,2.7411,2.7272,2.7011,2.6734,2.6826,2.6919,2.7026,2.6857,2.6734,2.6364,2.6334,2.6411,2.6457,2.6349,2.6118,2.5995,2.5927,2.5696,2.5395,2.521,2.5096,2.5149,2.5118,3.3781,3.3283,3.4724,3.5218,3.5141,3.5543,3.5642,3.5451,3.5763,3.5916,3.5945,3.5944,3.5951,3.5976,3.5937,3.5976,3.5969,3.5965,3.5971,3.5907,3.5749,3.5664,3.5664,3.5631,3.5585,3.552,3.5515,3.5534,3.5528,3.5515,3.5441,3.5281,3.5086,3.487,3.4722,3.4446,3.4209,3.4185,3.4099,3.4061,3.4061,3.4036,3.3985,3.3881,3.3578,3.3184,3.2779,3.2317,3.2127,3.2056,3.1696,3.1123,3.0654,3.0368,3.0097,2.9766,2.9448,2.9167,2.9075,2.8967,2.8897,2.8865,2.8803,2.8747,2.8589,2.8589,2.8541,2.846,2.8411,2.8411,2.8372,2.8299,2.8299,2.8299,2.8259,2.8235,2.8348,2.8323,2.8323,2.8372,2.8411,2.8411,2.8411,2.8411,2.8411,2.8411,2.8411,2.8411,2.8411,2.8411,2.8227,2.798,2.7934,2.7796,2.7703,2.7457,2.7457,2.7473,2.7519,2.755,2.7426,2.7226,2.7042,2.7057,2.718,2.7026,2.6842,2.6811,2.678,2.6457,2.6149,2.5887,2.5718,2.5703,2.5601,3.3716,3.345,3.4655,3.4941,3.4764,3.549,3.5676,3.544,3.5799,3.6016,3.6015,3.6014,3.6012,3.6006,3.5958,3.597,3.597,3.5953,3.5886,3.5776,3.5635,3.5604,3.554,3.5552,3.5528,3.5507,3.5488,3.5501,3.5494,3.5405,3.5304,3.5179,3.4917,3.4701,3.4539,3.4245,3.4111,3.4074,3.4023,3.3998,3.3998,3.3934,3.3842,3.3734,3.3455,3.3157,3.2749,3.2419,3.2109,3.1895,3.1601,3.1203,3.0679,3.0389,3.007,2.9711,2.9312,2.9137,2.9091,2.8967,2.8873,2.8858,2.8779,2.8621,2.8525,2.8517,2.8493,2.842,2.8411,2.8372,2.8299,2.8323,2.8323,2.8299,2.8235,2.8259,2.8348,2.8323,2.8323,2.8387,2.8411,2.8411,2.8411,2.8411,2.8411,2.8411,2.8411,2.8411,2.8411,2.8411,2.8411,2.8288,2.8334,2.8319,2.8319,2.8227,2.815,2.8119,2.8073,2.8104,2.8042,2.7796,2.755,2.7642,2.7734,2.7796,2.7657,2.7642,2.7519,2.738,2.7072,2.6611,2.6318,2.6318,2.6134,3.3589,3.3665,3.4519,3.4454,3.4075,3.5369,3.5605,3.5113,3.564,3.5987,3.6014,3.6012,3.5996,3.5965,3.5927,3.5947,3.5925,3.5877,3.5768,3.5605,3.556,3.5547,3.5495,3.5501,3.5474,3.5453,3.5493,3.5474,3.5391,3.5281,3.5149,3.5054,3.4772,3.4509,3.4374,3.4209,3.4036,3.3985,3.3947,3.3921,3.3908,3.3815,3.3712,3.3615,3.3534,3.3235,3.283,3.2486,3.2144,3.1637,3.1276,3.1047,3.0808,3.046,3.0006,2.9767,2.9296,2.9121,2.9052,2.8967,2.885,2.8771,2.866,2.8541,2.8444,2.842,2.842,2.8396,2.8411,2.8348,2.821,2.8299,2.8323,2.8259,2.821,2.8259,2.8323,2.8387,2.8411,2.8411,2.8411,2.8411,2.8411,2.8411,2.8411,2.8411,2.8411,2.8411,2.8411,2.8411,2.8411,2.8411,2.8411,2.8411,2.8411,2.8411,2.8411,2.8411,2.8411,2.8411,2.8411,2.8211,2.798,2.8165,2.8258,2.8227,2.815,2.7965,2.795,2.8119,2.7873,2.7288,2.7057,2.6926,2.6665,3.4443,3.4484,3.5344,3.5586,3.5531,3.58,3.5815,3.5744,3.5843,3.5946,3.5991,3.601,3.5962,3.5933,3.5963,3.5927,3.583,3.5749,3.5645,3.5518,3.5477,3.5455,3.5481,3.5434,3.5376,3.5312,3.5383,3.5398,3.5281,3.5209,3.4973,3.4691,3.455,3.4363,3.4148,3.4004,3.3965,3.3913,3.3847,3.3775,3.3748,3.3684,3.3615,3.3563,3.3477,3.3238,3.2928,3.257,3.2162,3.1621,3.124,3.071,3.0281,3.0021,2.9711,2.9387,2.9175,2.9052,2.8967,2.8904,2.8803,2.8692,2.8597,2.8525,2.842,2.8411,2.8411,2.8411,2.8411,2.8348,2.821,2.8323,2.8323,2.8259,2.8259,2.8299,2.8235,2.8299,2.8411,2.8411,2.8411,2.8411,2.8411,2.8411,2.8411,2.8411,2.8411,2.8411,2.8411,2.8411,2.8411,2.8411,2.8411,2.8411,2.8411,2.8411,2.8411,2.8411,2.8411,2.8411,2.8411,2.8411,2.8411,2.8411,2.8411,2.835,2.8273,2.8196,2.8203,2.8225,2.8049,2.7834,2.7602,2.7332,2.7124,3.5312,3.5331,3.5739,3.5885,3.5896,3.5882,3.5895,3.589,3.589,3.5895,3.5942,3.5945,3.594,3.5883,3.5798,3.5686,3.5582,3.5591,3.5504,3.5418,3.5395,3.5412,3.5453,3.5412,3.5364,3.5327,3.5357,3.5312,3.5122,3.4917,3.4753,3.4628,3.4397,3.4136,3.3998,3.3934,3.3887,3.3847,3.3753,3.3684,3.3684,3.3605,3.3534,3.3448,3.322,3.2941,3.2685,3.2266,3.1823,3.1357,3.0905,3.0402,2.9983,2.9645,2.9409,2.9144,2.9029,2.8967,2.8897,2.8811,2.8692,2.8621,2.8565,2.8468,2.842,2.8411,2.8466,2.8451,2.8411,2.8387,2.8323,2.8372,2.8348,2.8323,2.8323,2.8299,2.8275,2.8299,2.8354,2.8403,2.8411,2.8411,2.8411,2.8411,2.8411,2.8411,2.8411,2.8411,2.8411,2.8411,2.8411,2.8411,2.8411,2.8411,2.8411,2.8411,2.8411,2.8411,2.8411,2.8411,2.8411,2.8411,2.8411,2.8411,2.8411,2.8411,2.8381,2.828,2.8317,2.8299,2.8146,2.7975,2.7871,2.7701,2.7479,3.5886,3.5896,3.5882,3.5884,3.5883,3.588,3.5894,3.588,3.588,3.5886,3.5889,3.588,3.5872,3.582,3.5697,3.5512,3.5328,3.5464,3.5425,3.5345,3.535,3.5383,3.5391,3.5376,3.5335,3.5246,3.5171,3.5119,3.4972,3.4743,3.4588,3.4401,3.4105,3.3947,3.3881,3.386,3.3834,3.378,3.3698,3.3675,3.3619,3.3534,3.3419,3.3316,3.2928,3.2602,3.2368,3.1896,3.1414,3.0968,3.0563,3.0149,2.9761,2.9432,2.919,2.9075,2.8982,2.8897,2.8803,2.8724,2.8597,2.8541,2.8549,2.8517,2.8521,2.8647,2.8828,2.875,2.891,2.8784,2.8643,2.8549,2.8525,2.8453,2.8372,2.8305,2.8492,2.8563,2.8532,2.8526,2.8449,2.8442,2.8458,2.8411,2.8411,2.8411,2.8411,2.8411,2.8411,2.8411,2.8411,2.8411,2.8411,2.8411,2.8411,2.8411,2.8411,2.8411,2.8411,2.8411,2.8411,2.8411,2.8411,2.8411,2.8411,2.8411,2.8411,2.8348,2.8299,2.825,2.8201,2.8107,2.7942,2.7877,2.7722,3.59,3.5883,3.5899,3.5882,3.5827,3.5819,3.5857,3.5885,3.5885,3.5885,3.5875,3.584,3.5757,3.5702,3.5635,3.5506,3.5438,3.5412,3.5404,3.5297,3.5308,3.5331,3.5308,3.5316,3.5207,3.5113,3.4917,3.4793,3.4723,3.4651,3.4405,3.4117,3.4011,3.3887,3.3807,3.3766,3.3726,3.3684,3.3591,3.3509,3.347,3.3441,3.3319,3.3101,3.2816,3.2453,3.2127,3.162,3.1064,3.0518,3.0489,3.0027,2.9432,2.9566,2.938,2.909,2.8881,2.8826,2.87,2.8668,2.8621,2.8645,2.8818,2.8748,2.8942,2.9444,2.9903,2.9998,3.0155,2.9877,2.9234,2.9037,2.8967,2.8991,2.9036,2.9067,2.9163,2.9317,2.9215,2.8925,2.8956,2.8664,2.8535,2.8473,2.8411,2.8411,2.8411,2.8411,2.8411,2.8411,2.8411,2.8411,2.8372,2.8372,2.8372,2.8387,2.8411,2.8411,2.8411,2.8411,2.8411,2.8411,2.8411,2.8411,2.8411,2.8411,2.8387,2.8348,2.8259,2.821,2.8177,2.8103,2.7989,2.793,2.7865,3.584,3.5833,3.5833,3.583,3.5799,3.5795,3.5807,3.5834,3.5786,3.5782,3.5767,3.567,3.5593,3.5538,3.5502,3.5411,3.5314,3.5314,3.5296,3.5266,3.5277,3.53,3.5308,3.5293,3.5174,3.4981,3.4841,3.4632,3.4505,3.4302,3.4099,3.4018,3.3855,3.3771,3.3698,3.3675,3.3661,3.3619,3.3549,3.3462,3.3393,3.3271,3.3117,3.2846,3.2402,3.2021,3.1694,3.1315,3.072,3.022,3.0215,2.9935,2.9335,2.9289,2.9312,2.9387,2.9273,2.9036,2.87,2.8834,2.8873,2.8951,2.9268,2.9585,2.9869,3.0489,3.087,3.061,3.0716,3.0509,3.0179,3.0099,3.0309,3.0313,3.0125,3.0153,3.0232,3.017,3.0123,2.9782,2.9387,2.9098,2.8744,2.8495,2.8418,2.8411,2.8387,2.8372,2.8411,2.8411,2.8411,2.8411,2.8348,2.8299,2.8323,2.8348,2.8348,2.8372,2.8411,2.8411,2.8411,2.8411,2.8411,2.8411,2.8411,2.8411,2.8387,2.8348,2.8299,2.8226,2.8177,2.8079,2.8005,2.798,2.793,3.5806,3.5793,3.5786,3.5806,3.5769,3.5773,3.5736,3.5718,3.5669,3.5643,3.5615,3.5526,3.5443,3.5372,3.535,3.5285,3.5198,3.5182,3.5182,3.5218,3.5253,3.5269,3.5277,3.5242,3.5141,3.4898,3.4754,3.4537,3.4227,3.3998,3.3908,3.3985,3.378,3.3689,3.3619,3.3591,3.3563,3.3534,3.3509,3.3422,3.3286,3.3083,3.2848,3.2453,3.1932,3.1433,3.1259,3.0781,3.0262,3.0236,3.03,3.0113,2.9528,2.9705,2.9933,3.0053,3.0038,2.9996,2.9688,2.9601,2.9512,2.9793,3.0158,3.0849,3.1675,3.207,3.2127,3.1772,3.1411,3.1368,3.1271,3.1248,3.1352,3.1542,3.1643,3.1598,3.1482,3.1283,3.0987,3.0571,3.0105,2.9546,2.9126,2.8642,2.8449,2.8403,2.8372,2.8348,2.8372,2.842,2.8411,2.8411,2.8372,2.8323,2.8348,2.8348,2.8348,2.8348,2.8387,2.8411,2.8411,2.8411,2.8411,2.8411,2.8411,2.8411,2.8411,2.8348,2.8323,2.8226,2.8152,2.8079,2.8029,2.8005,2.7955,3.5775,3.5723,3.5769,3.5756,3.5698,3.5718,3.5632,3.5543,3.5538,3.552,3.5496,3.5437,3.5335,3.5258,3.5242,3.5207,3.5182,3.5182,3.5182,3.519,3.519,3.5218,3.5209,3.5157,3.5053,3.4832,3.4601,3.4325,3.4068,3.378,3.3712,3.3698,3.3661,3.3615,3.3577,3.3538,3.3466,3.3422,3.3378,3.3286,3.3101,3.288,3.2587,3.2162,3.1512,3.1033,3.1237,3.0522,3.0113,3.0279,3.0609,3.0713,3.0342,3.0622,3.0929,3.1074,3.1084,3.1244,3.1398,3.0759,3.0613,3.1345,3.1961,3.2352,3.3222,3.2423,3.2471,3.3145,3.2547,3.2327,3.2278,3.2295,3.2272,3.2646,3.2791,3.2652,3.2474,3.2208,3.1871,3.1397,3.0964,3.0595,3.0017,2.9633,2.8845,2.8744,2.8387,2.8348,2.8405,2.8429,2.8372,2.8372,2.8372,2.8372,2.8411,2.8372,2.8323,2.8348,2.8411,2.8411,2.8411,2.8411,2.8411,2.8411,2.8411,2.8411,2.8411,2.8348,2.8299,2.8226,2.8152,2.8103,2.8029,2.8005,2.7915,3.5713,3.5707,3.5653,3.5602,3.5593,3.5587,3.555,3.5508,3.5451,3.5395,3.5319,3.5278,3.525,3.5198,3.5182,3.5182,3.5182,3.5182,3.5182,3.5182,3.5182,3.5182,3.5157,3.5009,3.4832,3.4591,3.4284,3.403,3.3793,3.3619,3.3577,3.3563,3.3549,3.3506,3.3481,3.3452,3.3364,3.3256,3.3211,3.3117,3.2979,3.2752,3.2453,3.2039,3.1785,3.1181,3.0861,3.0601,3.0284,3.0292,3.0853,3.1215,3.1475,3.1888,3.2062,3.2237,3.2205,3.2663,3.3123,3.2359,3.194,3.2319,3.305,3.3751,3.4353,3.3946,3.3906,3.3984,3.3445,3.3044,3.3466,3.3205,3.3095,3.3683,3.3851,3.3695,3.351,3.3241,3.295,3.2563,3.2329,3.2039,3.1406,3.0759,2.9845,2.9061,2.8673,2.8381,2.8462,2.8414,2.8372,2.8348,2.8372,2.8372,2.8411,2.8348,2.8323,2.8372,2.8411,2.8411,2.8411,2.8411,2.8411,2.8411,2.8411,2.8411,2.8411,2.8372,2.8323,2.8299,2.8201,2.8113,2.8039,2.7989,2.7965,3.5635,3.5601,3.5521,3.547,3.547,3.547,3.5451,3.5411,3.536,3.5297,3.5182,3.5182,3.5182,3.5182,3.5182,3.5182,3.5182,3.5182,3.5182,3.5174,3.5176,3.5132,3.5018,3.4822,3.4601,3.4295,3.4056,3.3823,3.3605,3.3491,3.3481,3.3481,3.3466,3.3437,3.3408,3.3316,3.3241,3.3132,3.3039,3.2961,3.282,3.2821,3.2687,3.2363,3.2233,3.2185,3.1799,3.1579,3.086,3.0749,3.1125,3.2336,3.2919,3.3215,3.3116,3.3138,3.3359,3.3782,3.3962,3.4107,3.3321,3.3157,3.4115,3.4542,3.4805,3.4931,3.4353,3.4678,3.4024,3.37,3.4245,3.4137,3.406,3.4539,3.4738,3.4641,3.4563,3.4343,3.41,3.38,3.3427,3.2869,3.2522,3.1781,3.0703,2.9721,2.8918,2.8677,2.8685,2.8581,2.8348,2.8348,2.8348,2.8372,2.8372,2.8372,2.8372,2.8372,2.8411,2.8411,2.8411,2.8411,2.8411,2.8411,2.8411,2.8411,2.8396,2.8396,2.8396,2.8411,2.8299,2.8226,2.8113,2.8063,2.8079,3.5483,3.54,3.5412,3.5393,3.5393,3.5405,3.5335,3.5246,3.5215,3.5198,3.5182,3.5182,3.5182,3.5182,3.5182,3.5182,3.5182,3.5193,3.5193,3.5168,3.5054,3.4973,3.4803,3.4593,3.4311,3.4068,3.385,3.3648,3.3491,3.3452,3.3408,3.3393,3.3393,3.3364,3.3382,3.3211,3.3117,3.3088,3.2948,3.2787,3.2838,3.302,3.2943,3.3028,3.3006,3.3026,3.2903,3.2597,3.1903,3.1376,3.2005,3.327,3.4568,3.4366,3.3849,3.3051,3.3967,3.4231,3.3989,3.4902,3.4643,3.3909,3.4805,3.5234,3.52,3.4772,3.4422,3.4958,3.4246,3.4105,3.4551,3.4975,3.4911,3.5062,3.5245,3.5285,3.5152,3.5111,3.4778,3.4598,3.3987,3.3365,3.3223,3.2738,3.1591,3.0509,2.9421,2.9045,2.9116,2.8848,2.8587,2.8348,2.8372,2.8372,2.8411,2.8411,2.8411,2.8411,2.8411,2.8411,2.8411,2.8411,2.8411,2.8436,2.8541,2.8645,2.8525,2.8444,2.8645,2.8842,2.8493,2.8323,2.8226,2.8137,2.8128,3.5422,3.5398,3.5304,3.5273,3.5266,3.5273,3.5242,3.5209,3.5182,3.5182,3.5182,3.5182,3.5182,3.5182,3.5182,3.5193,3.5193,3.5134,3.5136,3.5091,3.4898,3.4744,3.4572,3.4288,3.3994,3.3839,3.3657,3.3526,3.3437,3.3411,3.3393,3.3378,3.3274,3.3193,3.3178,3.3101,3.3024,3.2802,3.2709,3.277,3.3055,3.3208,3.3444,3.3742,3.3834,3.3861,3.3768,3.3474,3.3038,3.262,3.3383,3.3849,3.4561,3.422,3.4155,3.3386,3.3841,3.4334,3.4508,3.5113,3.5374,3.5121,3.5149,3.5503,3.5299,3.505,3.5101,3.5105,3.4554,3.4563,3.5021,3.4761,3.4738,3.5118,3.5308,3.5308,3.5245,3.5337,3.5253,3.5243,3.4827,3.4363,3.406,3.3689,3.2674,3.1945,3.1013,3.0217,3.0114,2.9467,2.9018,2.8556,2.8411,2.8411,2.8411,2.8411,2.8468,2.8541,2.8468,2.8411,2.8411,2.8565,2.8541,2.8621,2.8748,2.8873,2.8897,2.8967,2.9227,2.9296,2.8936,2.8573,2.8405,2.8259,2.8137,3.5364,3.532,3.5223,3.5182,3.5182,3.5182,3.5182,3.5182,3.5182,3.5182,3.5182,3.5182,3.5185,3.5168,3.516,3.5126,3.5108,3.5056,3.4945,3.4898,3.4693,3.4475,3.423,3.3981,3.376,3.3648,3.3512,3.3393,3.3408,3.3393,3.3331,3.3256,3.3135,3.2993,3.2945,3.2864,3.2834,3.2711,3.2753,3.302,3.3403,3.3745,3.4187,3.4545,3.4737,3.4823,3.4523,3.4372,3.4359,3.4423,3.4192,3.4046,3.3938,3.3888,3.3975,3.3437,3.355,3.4281,3.4975,3.5305,3.5532,3.5515,3.5566,3.5498,3.5406,3.5316,3.5264,3.5182,3.489,3.4913,3.5024,3.4682,3.489,3.5291,3.5354,3.5354,3.54,3.5475,3.552,3.5509,3.5436,3.5088,3.4762,3.4418,3.3782,3.3237,3.2675,3.1868,3.0994,3.0177,2.949,2.9045,2.8625,2.8554,2.8515,2.8411,2.8493,2.8621,2.8645,2.8668,2.8936,2.9152,2.899,2.8873,2.9136,2.9348,2.9393,2.9528,2.9661,2.9617,2.9364,2.9013,2.8661,2.8566,2.8518,3.5331,3.519,3.5182,3.5185,3.5193,3.5157,3.5166,3.5174,3.5174,3.5166,3.5185,3.5157,3.5134,3.5101,3.5092,3.502,3.4908,3.487,3.4743,3.4591,3.4405,3.4165,3.3943,3.3743,3.3583,3.3477,3.3378,3.3378,3.3378,3.3304,3.3211,3.307,3.2948,3.277,3.2672,3.2765,3.2767,3.2878,3.3195,3.3506,3.392,3.4554,3.4978,3.5333,3.5614,3.5807,3.5655,3.5536,3.5527,3.5157,3.4421,3.4197,3.3964,3.3686,3.3303,3.3232,3.3632,3.4476,3.5176,3.5447,3.56,3.5616,3.5616,3.56,3.5549,3.5452,3.54,3.5377,3.5182,3.5088,3.5018,3.5111,3.5205,3.536,3.5406,3.5452,3.5475,3.5543,3.5571,3.5554,3.547,3.5233,3.5,3.4718,3.4395,3.4204,3.3533,3.2643,3.1742,3.0723,3.0071,2.9593,2.9193,2.8792,2.8721,2.8904,2.8865,2.9106,2.9136,2.9182,2.9483,2.9633,2.9454,2.9393,2.9661,2.9859,3.0032,3.0032,2.9968,2.9881,2.9924,2.9633,2.9325,2.9303,2.9287,3.5151,3.5127,3.5019,3.4992,3.4992,3.4992,3.5047,3.5119,3.5047,3.4973,3.4992,3.4992,3.4982,3.4974,3.4955,3.4841,3.4723,3.4609,3.448,3.4309,3.4105,3.3908,3.3721,3.3573,3.3466,3.3422,3.3378,3.3319,3.318,3.3119,3.2963,3.2753,3.281,3.2609,3.2668,3.2915,3.3125,3.337,3.3782,3.4159,3.4536,3.5077,3.5517,3.5908,3.6069,3.6174,3.5947,3.5346,3.5062,3.4466,3.4164,3.3796,3.2644,3.3609,3.4231,3.3835,3.4201,3.4721,3.5052,3.5402,3.5616,3.5616,3.5616,3.5532,3.5464,3.5452,3.5423,3.5423,3.5406,3.5297,3.5274,3.5344,3.5389,3.5412,3.5458,3.5498,3.5526,3.5571,3.56,3.5554,3.547,3.5247,3.5045,3.4894,3.4627,3.4695,3.4371,3.3493,3.2628,3.1681,3.0856,3.037,3.0156,2.9872,2.9789,2.9918,2.9675,2.9572,2.9633,2.9677,2.9815,2.9903,2.9815,2.9924,3.0161,3.0472,3.0797,3.0716,3.0493,3.0716,3.0736,3.0368,3.007,3.0011,2.993,3.5065,3.5011,3.4936,3.4908,3.4898,3.486,3.4908,3.4965,3.4917,3.4908,3.4908,3.4917,3.4889,3.4869,3.4859,3.4722,3.4491,3.4424,3.4293,3.3985,3.3788,3.3684,3.3563,3.3481,3.3422,3.3378,3.3319,3.3211,3.3073,3.2866,3.2705,3.2674,3.2768,3.2844,3.3054,3.3698,3.4183,3.43,3.4519,3.4874,3.5178,3.5476,3.5897,3.6134,3.6191,3.5959,3.5504,3.47,3.4611,3.409,3.3939,3.3779,3.3128,3.4261,3.4918,3.4624,3.4901,3.5111,3.5287,3.5424,3.5577,3.5616,3.5616,3.5577,3.5509,3.5481,3.5475,3.5469,3.5498,3.5503,3.5503,3.5503,3.5503,3.5464,3.5503,3.5549,3.5571,3.5577,3.5554,3.5515,3.5339,3.5115,3.4951,3.4864,3.4793,3.4769,3.4823,3.4568,3.3758,3.2943,3.2088,3.1428,3.1313,3.1175,3.1066,3.0886,3.0576,3.0321,3.0157,3.0205,3.0236,3.0347,3.0452,3.0535,3.0634,3.0895,3.1075,3.1131,3.1035,3.119,3.119,3.0875,3.0613,3.0597,3.0514,3.5,3.4898,3.487,3.487,3.487,3.48,3.4788,3.4788,3.4831,3.4879,3.487,3.486,3.484,3.4759,3.4718,3.455,3.4328,3.4209,3.4011,3.3703,3.3657,3.3563,3.3466,3.3382,3.3301,3.3271,3.3196,3.3055,3.2997,3.2931,3.2891,3.2732,3.3318,3.3546,3.3646,3.4582,3.5009,3.4943,3.5166,3.5472,3.5552,3.5862,3.6187,3.6165,3.5972,3.565,3.4885,3.4762,3.5127,3.424,3.3868,3.4061,3.4579,3.4811,3.5144,3.5293,3.5424,3.5464,3.5487,3.5554,3.5577,3.5616,3.5616,3.56,3.5571,3.5549,3.5543,3.5543,3.5549,3.5526,3.5526,3.5526,3.5526,3.5503,3.5526,3.5549,3.5554,3.5577,3.5577,3.5532,3.5424,3.5201,3.5178,3.5091,3.5131,3.4975,3.4981,3.5088,3.4782,3.4032,3.3454,3.2665,3.259,3.2494,3.2225,3.1968,3.1473,3.117,3.0895,3.0717,3.0733,3.0935,3.1151,3.1035,3.0915,3.1035,3.1171,3.119,3.119,3.119,3.119,3.119,3.1131,3.1015,3.0955,3.4849,3.48,3.4699,3.4668,3.4668,3.4636,3.4655,3.4655,3.4658,3.4678,3.4668,3.4668,3.4676,3.4615,3.4495,3.4293,3.4099,3.3959,3.3712,3.3563,3.3491,3.3462,3.3364,3.3256,3.3196,3.3117,3.3008,3.3009,3.3042,3.314,3.3336,3.3371,3.3986,3.4333,3.4235,3.5223,3.5506,3.5417,3.5742,3.5887,3.5924,3.6006,3.6165,3.6058,3.5859,3.572,3.4981,3.4269,3.4207,3.3729,3.3786,3.4384,3.5295,3.5368,3.5447,3.5577,3.5616,3.5616,3.5616,3.5616,3.5616,3.5616,3.5616,3.5616,3.5616,3.5616,3.5616,3.5594,3.5571,3.5549,3.5532,3.5549,3.5549,3.5549,3.5566,3.5549,3.5554,3.5577,3.5616,3.5554,3.5464,3.5402,3.5379,3.5379,3.5402,3.5424,3.5424,3.5453,3.543,3.499,3.4871,3.4274,3.4058,3.3884,3.3523,3.2967,3.2433,3.1884,3.1498,3.1355,3.1221,3.119,3.119,3.119,3.1171,3.119,3.119,3.119,3.119,3.119,3.119,3.119,3.119,3.1112,3.1151,3.4697,3.4697,3.4634,3.4612,3.4612,3.4612,3.4612,3.4612,3.4612,3.4612,3.4591,3.4517,3.4473,3.445,3.4257,3.4074,3.3881,3.3748,3.3619,3.3466,3.3364,3.3316,3.3241,3.3132,3.307,3.3028,3.3281,3.3364,3.3424,3.3759,3.4056,3.4107,3.4684,3.5082,3.4996,3.5511,3.581,3.5732,3.6128,3.6182,3.6144,3.6101,3.6036,3.5927,3.58,3.5565,3.5026,3.424,3.4251,3.4212,3.4324,3.4807,3.5448,3.5554,3.5577,3.56,3.5616,3.5616,3.5616,3.5616,3.5616,3.5616,3.5616,3.5616,3.5616,3.5616,3.5616,3.5616,3.5616,3.5577,3.5577,3.5594,3.5594,3.5594,3.5594,3.5594,3.5577,3.56,3.5616,3.5577,3.5532,3.5532,3.5509,3.5509,3.5532,3.5532,3.56,3.56,3.56,3.5616,3.5616,3.5515,3.5081,3.4962,3.4706,3.4044,3.333,3.2756,3.2087,3.1664,3.136,3.1241,3.119,3.119,3.119,3.119,3.119,3.119,3.119,3.119,3.119,3.119,3.119,3.119,3.119,3.4612,3.4612,3.4612,3.4612,3.4612,3.4612,3.4612,3.4612,3.4612,3.4612,3.455,3.4351,3.4281,3.4233,3.4049,3.3868,3.3726,3.3643,3.352,3.3393,3.3349,3.3226,3.3101,3.3024,3.3023,3.3269,3.3615,3.4023,3.4334,3.4595,3.4769,3.4836,3.5252,3.5754,3.5846,3.6076,3.634,3.6184,3.6241,3.6152,3.6084,3.5997,3.591,3.5778,3.5594,3.5026,3.4711,3.4678,3.484,3.4857,3.493,3.5284,3.5526,3.5616,3.5616,3.5616,3.5616,3.5616,3.5616,3.5616,3.5616,3.5616,3.5616,3.5616,3.5616,3.5616,3.5616,3.5616,3.5616,3.5616,3.5616,3.5616,3.5616,3.5616,3.5616,3.5616,3.5616,3.5616,3.5616,3.5616,3.5616,3.5616,3.5616,3.5616,3.5616,3.5616,3.5616,3.5616,3.5616,3.5616,3.5616,3.5616,3.5414,3.5397,3.5481,3.4844,3.3931,3.3186,3.2476,3.1918,3.1478,3.1292,3.119,3.119,3.119,3.119,3.119,3.119,3.119,3.119,3.119,3.119,3.119,3.119,3.119,3.4612,3.4612,3.4612,3.4612,3.4612,3.4612,3.4612,3.4612,3.4612,3.4612,3.4517,3.4245,3.4136,3.4281,3.3913,3.3712,3.3684,3.3559,3.3342,3.3196,3.318,3.3055,3.2983,3.298,3.3048,3.3565,3.4163,3.4475,3.5012,3.5287,3.5407,3.5498,3.608,3.6386,3.6318,3.6482,3.6423,3.6318,3.6212,3.6127,3.6041,3.5954,3.5844,3.5734,3.5622,3.547,3.5414,3.547,3.5431,3.5414,3.5397,3.556,3.5616,3.5616,3.5616,3.5616,3.5616,3.5616,3.5616,3.5616,3.5616,3.5616,3.5616,3.5616,3.5616,3.5616,3.5616,3.5616,3.5616,3.5616,3.5616,3.5616,3.5616,3.5616,3.5616,3.5616,3.5616,3.5616,3.5616,3.5616,3.5616,3.5616,3.5616,3.5616,3.5616,3.5616,3.5616,3.5616,3.5616,3.5616,3.5616,3.5616,3.5616,3.56,3.5566,3.5081,3.4286,3.3558,3.278,3.2036,3.1512,3.1275,3.119,3.119,3.119,3.119,3.119,3.119,3.119,3.119,3.119,3.119,3.119,3.119,3.119]}]]